[[{"header":{"parameterUnit":"m.s-1","parameterCategory":1,"la1":30.6,"la2":28.766,"lo1":-90.7593,"lo2":-88.6598,"dy":0.0162,"dx":0.0183,"nx":116,"ny":114,"refTime":"2024-04-10T06:00:00:Z","depth":0,"parameterNumber":2,"parameterNumberName":"U-component_of_WINDS"},"data":[0.0,0.0,0.0,0.0,0.0,0.0,0.0,0.0,0.0,0.0,0.0,0.0,0.0,0.0,0.0,0.0,0.0,0.0,0.0,0.0,0.0,0.0,0.0,0.0,0.0,0.0,0.0,0.0,0.0,0.0,0.0,0.0,0.0,0.0,0.0,0.0,0.0,0.0,0.0,0.0,0.0,0.0,0.0,0.0,0.0,0.0,0.0,0.0,0.0,0.0,0.0,0.0,0.0,0.0,0.0,0.0,0.0,0.0,0.0,0.0,0.0,0.0,0.0,0.0,0.0,0.0,0.0,0.0,0.0,0.0,0.0,0.0,0.0,0.0,0.0,0.0,0.0,0.0,0.0,0.0,0.0,0.0,0.0,0.0,0.0,0.0,0.0,0.0,0.0,0.0,0.0,0.0,0.0,0.0,0.0,0.0,0.0,0.0,0.0,0.0,0.0,0.0,0.0,0.0,0.0,0.0,0.0,0.0,0.0,0.0,0.0,0.0,0.0,0.0,0.0,0.0,0.0,0.0,0.0,0.0,0.0,0.0,0.0,0.0,0.0,0.0,0.0,0.0,0.0,0.0,0.0,0.0,0.0,0.0,0.0,0.0,0.0,0.0,0.0,0.0,0.0,0.0,0.0,0.0,0.0,0.0,0.0,0.0,0.0,0.0,0.0,0.0,0.0,0.0,0.0,0.0,0.0,0.0,0.0,0.0,0.0,0.0,0.0,0.0,0.0,0.0,0.0,0.0,0.0,0.0,0.0,0.0,0.0,0.0,0.0,0.0,0.0,0.0,0.0,0.0,0.0,0.0,0.0,0.0,0.0,0.0,0.0,0.0,0.0,0.0,0.0,0.0,0.0,0.0,0.0,0.0,0.0,0.0,0.0,0.0,0.0,0.0,0.0,0.0,0.0,0.0,0.0,0.0,0.0,0.0,0.0,0.0,0.0,0.0,0.0,0.0,0.0,0.0,0.0,0.0,0.0,0.0,0.0,0.0,0.0,0.0,0.0,0.0,0.0,0.0,0.0,0.0,0.0,0.0,0.0,0.0,0.0,0.0,0.0,0.0,0.0,0.0,0.0,0.0,0.0,0.0,0.0,0.0,0.0,0.0,0.0,0.0,0.0,0.0,0.0,0.0,0.0,0.0,0.0,0.0,0.0,0.0,0.0,0.0,0.0,0.0,0.0,0.0,0.0,0.0,0.0,0.0,0.0,0.0,0.0,0.0,0.0,0.0,0.0,0.0,0.0,0.0,0.0,0.0,0.0,0.0,0.0,0.0,0.0,0.0,0.0,0.0,0.0,0.0,0.0,0.0,0.0,0.0,0.0,0.0,0.0,0.0,0.0,0.0,0.0,0.0,0.0,0.0,0.0,0.0,0.0,0.0,0.0,0.0,0.0,0.0,0.0,0.0,0.0,0.0,0.0,0.0,0.0,0.0,0.0,0.0,0.0,0.0,0.0,0.0,0.0,0.0,0.0,0.0,0.0,0.0,0.0,0.0,0.0,0.0,0.0,0.0,0.0,0.0,0.0,0.0,0.0,0.0,0.0,0.0,0.0,0.0,0.0,0.0,0.0,0.0,0.0,0.0,0.0,0.0,0.0,0.0,0.0,0.0,0.0,0.0,0.0,0.0,0.0,0.0,0.0,0.0,0.0,0.0,0.0,0.0,0.0,0.0,0.0,0.0,0.0,0.0,0.0,0.0,0.0,0.0,0.0,0.0,0.0,0.0,0.0,0.0,0.0,0.0,0.0,0.0,0.0,0.0,0.0,0.0,0.0,0.0,0.0,0.0,0.0,0.0,0.0,0.0,0.0,0.0,0.0,0.0,0.0,0.0,0.0,0.0,0.0,0.0,0.0,0.0,0.0,0.0,0.0,0.0,0.0,0.0,0.0,0.0,0.0,0.0,0.0,0.0,0.0,0.0,0.0,0.0,0.0,0.0,0.0,0.0,0.0,0.0,0.0,0.0,0.0,0.0,0.0,0.0,0.0,0.0,0.0,0.0,0.0,0.0,0.0,0.0,0.0,0.0,0.0,0.0,0.0,0.0,0.0,0.0,0.0,0.0,0.0,0.0,0.0,0.0,0.0,0.0,0.0,0.0,0.0,0.0,0.0,0.0,0.0,0.0,0.0,0.0,0.0,0.0,0.0,0.0,0.0,0.0,0.0,0.0,0.0,0.0,0.0,0.0,0.0,0.0,0.0,0.0,0.0,0.0,0.0,0.0,0.0,0.0,0.0,0.0,0.0,0.0,0.0,0.0,0.0,0.0,0.0,0.0,0.0,0.0,0.0,0.0,0.0,0.0,0.0,0.0,0.0,0.0,0.0,0.0,0.0,0.0,0.0,0.0,0.0,0.0,0.0,0.0,0.0,0.0,0.0,0.0,0.0,0.0,0.0,0.0,0.0,0.0,0.0,0.0,0.0,0.0,0.0,0.0,0.0,0.0,0.0,0.0,0.0,0.0,0.0,0.0,0.0,0.0,0.0,0.0,0.0,0.0,0.0,0.0,0.0,0.0,0.0,0.0,0.0,0.0,0.0,0.0,0.0,0.0,0.0,0.0,0.0,0.0,0.0,0.0,0.0,0.0,0.0,0.0,0.0,0.0,0.0,0.0,0.0,0.0,0.0,0.0,0.0,0.0,0.0,0.0,0.0,0.0,0.0,0.0,0.0,0.0,0.0,0.0,0.0,0.0,0.0,0.0,0.0,0.0,0.0,0.0,0.0,0.0,0.0,0.0,0.0,0.0,0.0,0.0,0.0,0.0,0.0,0.0,0.0,0.0,0.0,0.0,0.0,0.0,0.0,0.0,0.0,0.0,0.0,0.0,0.0,0.0,0.0,0.0,0.0,0.0,0.0,0.0,0.0,0.0,0.0,0.0,0.0,0.0,0.0,0.0,0.0,0.0,0.0,0.0,0.0,0.0,0.0,0.0,0.0,0.0,0.0,0.0,0.0,0.0,0.0,0.0,0.0,0.0,0.0,0.0,0.0,0.0,0.0,0.0,0.0,0.0,0.0,0.0,0.0,0.0,0.0,0.0,0.0,0.0,0.0,0.0,0.0,0.0,0.0,0.0,0.0,0.0,0.0,0.0,0.0,0.0,0.0,0.0,0.0,0.0,0.0,0.0,0.0,0.0,0.0,0.0,0.0,0.0,0.0,0.0,0.0,0.0,0.0,0.0,0.0,0.0,0.0,0.0,0.0,0.0,0.0,0.0,0.0,0.0,0.0,0.0,0.0,0.0,0.0,0.0,0.0,0.0,0.0,0.0,0.0,0.0,0.0,0.0,0.0,0.0,0.0,0.0,0.0,0.0,0.0,0.0,0.0,0.0,0.0,0.0,0.0,0.0,0.0,0.0,0.0,0.0,0.0,0.0,0.0,0.0,0.0,0.0,0.0,0.0,0.0,0.0,0.0,0.0,0.0,0.0,0.0,0.0,0.0,0.0,0.0,0.0,0.0,0.0,0.0,0.0,0.0,0.0,0.0,0.0,0.0,0.0,0.0,0.0,0.0,0.0,0.0,0.0,0.0,0.0,0.0,0.0,0.0,0.0,0.0,0.0,0.0,0.0,0.0,0.0,0.0,0.0,0.0,0.0,0.0,0.0,0.0,0.0,0.0,0.0,0.0,0.0,0.0,0.0,0.0,0.0,0.0,0.0,0.0,0.0,0.0,0.0,0.0,0.0,0.0,0.0,0.0,0.0,0.0,0.0,0.0,0.0,0.0,0.0,0.0,0.0,0.0,0.0,0.0,0.0,0.0,0.0,0.0,0.0,0.0,0.0,0.0,0.0,0.0,0.0,0.0,0.0,0.0,0.0,0.0,0.0,0.0,0.0,0.0,0.0,0.0,0.0,0.0,0.0,0.0,0.0,0.0,0.0,0.0,0.0,0.0,0.0,0.0,0.0,0.0,0.0,0.0,0.0,0.0,0.0,0.0,0.0,0.0,0.0,0.0,0.0,0.0,0.0,0.0,0.0,0.0,0.0,0.0,0.0,0.0,0.0,0.0,0.0,0.0,0.0,0.0,0.0,0.0,0.0,0.0,0.0,0.0,0.0,0.0,0.0,0.0,0.0,0.0,0.0,0.0,0.0,0.0,0.0,0.0,0.0,0.0,0.0,0.0,0.0,0.0,0.0,0.0,0.0,0.0,0.0,0.0,0.0,0.0,0.0,0.0,0.0,0.0,0.0,0.0,0.0,0.0,0.0,0.0,0.0,0.0,0.0,0.0,0.0,0.0,0.0,0.0,0.0,0.0,0.0,0.0,0.0,0.0,0.0,0.0,0.0,0.0,0.0,0.0,0.0,0.0,0.0,0.0,0.0,0.0,0.0,0.0,0.0,0.0,0.0,0.0,0.0,0.0,0.0,0.0,0.0,0.0,0.0,0.0,0.0,0.0,0.0,0.0,0.0,0.0,0.0,0.0,0.0,0.0,0.0,0.0,0.0,0.0,0.0,0.0,0.0,0.0,0.0,0.0,0.0,0.0,0.0,0.0,0.0,0.0,0.0,0.0,0.0,0.0,0.0,0.0,0.0,0.0,0.0,0.0,0.0,0.0,0.0,0.0,0.0,0.0,0.0,0.0,0.0,0.0,0.0,0.0,0.0,0.0,0.0,0.0,0.0,0.0,0.0,0.0,0.0,0.0,0.0,0.0,0.0,0.0,0.0,0.0,0.0,0.0,0.0,0.0,0.0,0.0,0.0,0.0,0.0,0.0,0.0,0.0,0.0,0.0,0.0,0.0,0.0,0.0,0.0,0.0,0.0,0.0,0.0,0.0,0.0,0.0,0.0,0.0,0.0,0.0,0.0,0.0,0.0,0.0,0.0,0.0,0.0,0.0,0.0,0.0,0.0,0.0,0.0,0.0,0.0,0.0,0.0,0.0,0.0,0.0,0.0,0.0,0.0,0.0,0.0,0.0,0.0,0.0,0.0,0.0,0.0,0.0,0.0,0.0,0.0,0.0,0.0,0.0,0.0,0.0,0.0,0.0,0.0,0.0,0.0,0.0,0.0,0.0,0.0,0.0,0.0,0.0,0.0,0.0,0.0,0.0,0.0,0.0,0.0,0.0,0.0,0.0,0.0,0.0,0.0,0.0,0.0,0.0,0.0,0.0,0.0,0.0,0.0,0.0,0.0,0.0,0.0,0.0,0.0,0.0,0.0,0.0,0.0,0.0,0.0,0.0,0.0,0.0,0.0,0.0,0.0,0.0,0.0,0.0,0.0,0.0,0.0,0.0,0.0,0.0,0.0,0.0,0.0,0.0,0.0,0.0,0.0,0.0,0.0,0.0,0.0,0.0,0.0,0.0,0.0,0.0,0.0,0.0,0.0,0.0,0.0,0.0,0.0,0.0,0.0,0.0,0.0,0.0,0.0,0.0,0.0,0.0,0.0,0.0,0.0,0.0,0.0,0.0,0.0,0.0,0.0,0.0,0.0,0.0,0.0,0.0,0.0,0.0,0.0,0.0,0.0,0.0,0.0,0.0,0.0,0.0,0.0,0.0,0.0,0.0,0.0,0.0,0.0,0.0,0.0,0.0,0.0,0.0,0.0,0.0,0.0,0.0,0.0,0.0,0.0,0.0,0.0,0.0,0.0,0.0,0.0,0.0,0.0,0.0,0.0,0.0,0.0,0.0,0.0,0.0,0.0,0.0,0.0,0.0,0.0,0.0,0.0,0.0,0.0,0.0,0.0,0.0,0.0,0.0,0.0,0.0,0.0,0.0,0.0,0.0,0.0,0.0,0.0,0.0,0.0,0.0,0.0,0.0,0.0,0.0,0.0,0.0,0.0,0.0,0.0,0.0,0.0,0.0,0.0,0.0,0.0,0.0,0.0,0.0,0.0,0.0,0.0,0.0,0.0,0.0,0.0,0.0,0.0,0.0,0.0,0.0,0.0,0.0,0.0,0.0,0.0,0.0,0.0,0.0,0.0,0.0,0.0,0.0,0.0,0.0,0.0,0.0,0.0,0.0,0.0,0.0,0.0,0.0,0.0,0.0,0.0,0.0,0.0,0.0,0.0,0.0,0.0,0.0,0.0,0.0,0.0,0.0,0.0,0.0,0.0,0.0,0.0,0.0,0.0,0.0,0.0,0.0,0.0,0.0,0.0,-5.6295,-5.6905,0.0,0.0,0.0,0.0,0.0,0.0,0.0,0.0,0.0,0.0,0.0,0.0,0.0,0.0,0.0,0.0,0.0,0.0,0.0,0.0,0.0,0.0,0.0,-5.7881,-5.7881,-5.7881,-5.7881,-5.7845,-5.7735,0.0,0.0,0.0,0.0,0.0,-5.7476,-5.7364,-5.7085,-5.6621,-5.6621,-5.64,-5.5938,-5.5825,-5.5949,-5.6166,0.0,0.0,0.0,0.0,0.0,0.0,0.0,0.0,0.0,0.0,0.0,0.0,0.0,0.0,0.0,0.0,0.0,0.0,0.0,0.0,0.0,0.0,0.0,0.0,0.0,0.0,0.0,0.0,0.0,0.0,0.0,0.0,0.0,0.0,0.0,0.0,0.0,0.0,0.0,0.0,0.0,0.0,0.0,0.0,0.0,0.0,0.0,0.0,0.0,0.0,0.0,0.0,0.0,0.0,0.0,0.0,0.0,0.0,0.0,0.0,0.0,0.0,0.0,0.0,0.0,0.0,0.0,0.0,0.0,0.0,-5.5435,-5.6083,0.0,0.0,0.0,0.0,0.0,0.0,0.0,0.0,0.0,0.0,0.0,0.0,0.0,0.0,0.0,0.0,0.0,0.0,0.0,0.0,0.0,-5.7881,-5.7881,-5.7881,-5.7881,-5.7881,-5.7881,-5.7845,-5.7808,-5.7662,0.0,0.0,-5.7433,-5.7275,-5.7163,-5.6934,-5.6471,-5.5721,-5.5534,-5.5127,-5.4531,-5.41,-5.4213,-5.4755,-5.4576,0.0,0.0,0.0,0.0,0.0,0.0,0.0,0.0,0.0,0.0,0.0,0.0,0.0,0.0,0.0,0.0,0.0,0.0,0.0,0.0,0.0,0.0,0.0,0.0,0.0,0.0,0.0,0.0,0.0,0.0,0.0,0.0,0.0,0.0,0.0,0.0,0.0,0.0,0.0,0.0,0.0,0.0,0.0,0.0,0.0,0.0,0.0,0.0,0.0,0.0,0.0,0.0,0.0,0.0,0.0,0.0,0.0,0.0,0.0,0.0,0.0,0.0,0.0,-5.4847,-5.4777,-5.4655,-5.4603,-5.397,-5.3008,-5.4166,-5.4745,-5.4893,-5.5384,0.0,0.0,0.0,0.0,0.0,0.0,0.0,0.0,0.0,0.0,0.0,0.0,0.0,0.0,0.0,0.0,0.0,0.0,0.0,-5.7881,-5.7881,-5.7881,-5.7881,-5.7881,-5.7735,-5.7551,-5.7402,-5.7514,-5.7514,-5.7364,-5.6724,-5.6462,-5.6609,-5.5458,-5.4907,-5.4955,-5.4082,-5.3594,-5.3457,-5.2052,-5.1415,-5.1606,-5.3629,0.0,0.0,0.0,0.0,0.0,0.0,0.0,0.0,0.0,0.0,0.0,0.0,0.0,0.0,0.0,0.0,0.0,0.0,0.0,0.0,0.0,0.0,0.0,0.0,0.0,0.0,0.0,0.0,0.0,0.0,0.0,0.0,0.0,0.0,0.0,0.0,0.0,0.0,0.0,0.0,0.0,0.0,0.0,-5.5853,-5.5804,0.0,0.0,0.0,0.0,0.0,0.0,0.0,0.0,0.0,0.0,0.0,0.0,0.0,-5.3734,-5.3734,-5.3734,-5.3377,-5.273,-5.273,-5.2357,-5.1745,-5.1728,-5.1645,-5.1481,-5.1662,0.0,-5.2624,-5.2696,0.0,0.0,0.0,0.0,0.0,0.0,0.0,0.0,0.0,0.0,0.0,0.0,0.0,0.0,0.0,0.0,0.0,0.0,0.0,0.0,0.0,-5.7808,-5.7735,-5.7735,-5.7181,-5.6835,-5.6872,-5.6432,-5.6197,-5.6233,-5.5822,-5.5345,-5.4903,-5.4288,-5.3531,-5.2592,-5.1761,-5.1334,-5.1318,-5.062,-5.0263,-5.0319,-5.1385,-5.1839,-5.1839,-5.1839,0.0,0.0,0.0,0.0,0.0,0.0,0.0,0.0,0.0,0.0,0.0,0.0,0.0,0.0,0.0,0.0,0.0,0.0,0.0,0.0,0.0,0.0,0.0,0.0,0.0,0.0,0.0,0.0,0.0,0.0,0.0,0.0,0.0,0.0,0.0,0.0,0.0,0.0,0.0,-5.5797,-5.529,-5.4532,-5.4733,-5.4682,0.0,0.0,0.0,0.0,0.0,0.0,0.0,0.0,0.0,-5.3501,-5.3501,-5.3501,-5.3501,-5.3501,-5.3331,-5.2976,-5.252,-5.2131,-5.1809,-5.1403,-5.098,-5.0591,-5.0591,-5.0527,-5.0496,-5.1696,-5.2259,-5.2316,0.0,0.0,0.0,0.0,-5.1234,-5.1181,0.0,0.0,0.0,0.0,0.0,0.0,0.0,0.0,0.0,0.0,0.0,0.0,-5.7374,-5.7274,-5.7107,-5.6741,-5.5979,-5.5514,-5.5422,-5.4779,-5.4444,-5.4592,-5.4262,-5.3736,-5.2994,-5.2738,-5.1993,-5.0635,-4.9874,-4.9487,-4.9503,-4.9262,-4.9141,-4.9141,-4.9141,-4.9423,-4.9805,-4.9805,-4.9805,0.0,0.0,0.0,0.0,0.0,0.0,0.0,0.0,0.0,0.0,0.0,0.0,0.0,0.0,0.0,0.0,0.0,0.0,0.0,0.0,0.0,0.0,0.0,0.0,0.0,0.0,0.0,0.0,0.0,0.0,0.0,0.0,0.0,0.0,0.0,0.0,0.0,0.0,-5.4998,-5.4424,-5.3449,-5.3683,-5.3783,0.0,0.0,0.0,0.0,0.0,0.0,-5.3501,-5.3501,-5.3501,-5.3501,-5.3501,-5.3501,-5.3501,-5.3501,-5.3399,-5.3196,-5.2587,-5.2198,-5.1995,-5.1251,-5.0625,-5.0084,-4.9898,-4.9509,-4.9117,-5.0724,-5.1133,-5.0735,-5.1032,-5.0893,-5.0497,-5.0331,-5.0276,-5.0276,0.0,0.0,0.0,0.0,0.0,0.0,0.0,0.0,0.0,0.0,0.0,-5.7139,-5.5935,-5.6085,-5.5712,-5.4394,-5.3951,-5.3396,-5.2573,-5.246,-5.2444,-5.2444,-5.1789,-5.1359,-5.1319,-5.0446,-4.9939,-4.9868,-4.905,-4.8641,-4.8641,-4.7822,-4.7424,-4.7424,-4.7424,-4.8324,-4.9805,-4.9805,-4.9805,-4.9805,0.0,0.0,0.0,0.0,0.0,0.0,0.0,0.0,0.0,0.0,0.0,0.0,0.0,0.0,0.0,0.0,0.0,0.0,0.0,0.0,0.0,0.0,0.0,0.0,0.0,0.0,0.0,0.0,0.0,0.0,0.0,0.0,0.0,0.0,0.0,0.0,0.0,0.0,0.0,-5.2955,-5.2937,0.0,0.0,0.0,0.0,-5.3179,-5.323,-5.3298,-5.3501,-5.3501,-5.3501,-5.3501,-5.3501,-5.3501,-5.3501,-5.3501,-5.3129,-5.2367,-5.2317,-5.1944,-5.1251,-5.049,-5.0135,-5.005,-4.9357,-4.9035,-4.9018,-4.9117,-4.9479,-4.9884,-4.9354,-4.9471,-4.989,-4.9303,-4.9094,-4.9094,0.0,0.0,0.0,0.0,0.0,-5.7729,-5.7256,-5.7188,-5.6934,-5.6207,-5.6254,-5.6025,-5.5041,-5.475,-5.4224,-5.3221,-5.2347,-5.1789,-5.1598,-5.1129,-5.0874,-5.0874,-5.0635,-5.0192,-4.954,-4.864,-4.8198,-4.8198,-4.7892,-4.7779,-4.7737,-4.7467,-4.7309,-4.7309,-4.7309,-4.7624,-4.8198,-4.8198,-4.8198,-4.824,-4.879,-4.9035,0.0,0.0,0.0,0.0,0.0,0.0,0.0,0.0,0.0,0.0,0.0,0.0,0.0,0.0,0.0,0.0,0.0,0.0,0.0,0.0,0.0,0.0,0.0,0.0,0.0,0.0,0.0,0.0,0.0,0.0,0.0,0.0,0.0,0.0,0.0,0.0,0.0,-5.1262,-5.1187,0.0,-5.1262,-5.1299,-5.1336,-5.141,-5.141,-5.1447,-5.1484,-5.201,-5.2348,-5.247,-5.3025,-5.3382,-5.3501,-5.3501,-5.3365,-5.3078,-5.2553,-5.2164,-5.1894,-5.115,-5.0557,-5.0084,-4.9813,-4.9441,-4.9001,-4.9001,-4.9124,-4.9303,-4.9077,-4.9138,-4.9273,-4.9094,-4.9001,-4.9001,0.0,0.0,0.0,0.0,0.0,-5.7645,-5.6917,-5.6799,-5.6461,-5.5463,-5.5248,-5.4823,-5.3874,-5.3264,-5.2589,-5.1662,-5.0672,-5.0072,-5.0016,-4.9537,-4.9247,-4.9247,-4.9247,-4.8938,-4.8297,-4.7624,-4.7309,-4.7309,-4.7309,-4.7309,-4.7309,-4.7309,-4.7309,-4.7309,-4.7309,-4.7309,-4.7309,-4.7309,-4.7309,-4.7337,-4.7934,-4.8172,-4.8214,0.0,0.0,0.0,0.0,0.0,0.0,0.0,0.0,0.0,0.0,0.0,0.0,0.0,0.0,0.0,0.0,0.0,0.0,0.0,0.0,0.0,0.0,0.0,0.0,0.0,0.0,0.0,0.0,0.0,0.0,0.0,0.0,0.0,0.0,-5.0412,-5.0064,-5.0181,-5.0103,-5.0064,-5.0181,-5.022,-5.022,-5.0281,-5.0281,-5.032,-5.0397,-5.093,-5.1266,-5.1394,-5.2026,-5.2416,-5.2539,-5.2661,-5.2817,-5.3093,-5.2555,-5.2455,-5.2689,-5.1928,-5.1302,-5.0811,-5.0304,-4.9813,-4.9357,-4.9103,-4.9001,-4.9001,-4.9001,-4.9001,-4.9001,-4.9001,-4.9001,-4.9001,0.0,0.0,0.0,0.0,0.0,-5.7611,-5.6884,-5.6748,-5.6207,-5.4752,-5.4328,-5.3663,-5.2385,-5.1641,-5.0755,-4.955,-4.8913,-4.8297,-4.7666,-4.7624,-4.7624,-4.7624,-4.7624,-4.7624,-4.7624,-4.7424,-4.7309,-4.7309,-4.7294,-4.7309,-4.7309,-4.7309,-4.7309,-4.7309,-4.7309,-4.7309,-4.7309,-4.7309,-4.7309,-4.7309,-4.7309,-4.7309,-4.7309,0.0,0.0,0.0,0.0,0.0,0.0,0.0,0.0,0.0,0.0,0.0,0.0,0.0,0.0,0.0,0.0,0.0,0.0,0.0,0.0,0.0,0.0,0.0,0.0,0.0,0.0,0.0,0.0,0.0,0.0,0.0,0.0,0.0,-4.9891,-4.9829,-4.9726,-4.9726,-4.9726,-4.9726,-4.9726,-4.9726,-4.9789,-5.0009,-5.0009,-5.0087,-5.0281,-5.032,-5.0336,-5.0358,-5.0566,-5.0681,-5.0681,-5.0941,-5.1459,-5.2236,-5.2236,-5.2677,-5.3399,-5.2622,-5.2251,-5.2182,-5.068,-5.0069,-5.0033,-4.9275,-4.897,-4.9001,-4.9001,-4.9001,-4.9001,-4.9001,-4.9001,-4.9001,0.0,0.0,0.0,-5.8405,-5.7569,-5.685,-5.6139,-5.5547,-5.4871,-5.3923,-5.3231,-5.2468,-5.1545,-5.0582,-4.9642,-4.8728,-4.8355,-4.8076,-4.788,-4.788,-4.788,-4.788,-4.788,-4.788,-4.788,-4.7852,-4.781,-4.781,-4.7639,-4.751,-4.7495,-4.7396,-4.7309,-4.7309,-4.7309,-4.7309,-4.7309,-4.7309,-4.7309,-4.7309,-4.7309,-4.7309,-4.7309,0.0,0.0,0.0,0.0,0.0,0.0,0.0,0.0,0.0,0.0,0.0,0.0,0.0,0.0,0.0,0.0,0.0,0.0,0.0,0.0,0.0,0.0,0.0,0.0,0.0,0.0,0.0,0.0,0.0,0.0,0.0,-4.7666,-4.7737,-4.8046,-4.8003,-4.7976,-4.7976,-4.7976,-4.7976,-4.7976,-4.7976,-4.8003,-4.8088,-4.8072,-4.8072,-4.8157,-4.8749,-4.9141,-4.9215,-4.9931,-5.032,-5.049,-5.0566,-5.0773,-5.1129,-5.1129,-5.1352,-5.1736,-5.1523,-5.1432,-5.134,-4.9862,-4.9559,-5.0002,-4.8751,-4.8513,-4.9001,-4.9001,-4.9001,-4.9001,-4.9001,-4.9001,-4.9001,0.0,0.0,0.0,-5.8154,-5.7289,-5.6562,-5.5818,-5.5074,-5.4329,-5.3602,-5.252,-5.1606,-5.1145,-4.9821,-4.8846,-4.8453,-4.816,-4.8049,-4.8133,-4.8133,-4.816,-4.826,0.0,-4.8133,-4.8133,-4.8049,-4.8007,-4.8007,-4.7837,-4.7752,-4.7752,-4.7639,-4.751,-4.7424,-4.7424,-4.7381,-4.7309,-4.7309,-4.7309,-4.7309,-4.7309,-4.7309,-4.7309,-4.7309,-4.7309,-4.7309,-4.7309,-4.7309,-4.7309,-4.7309,0.0,0.0,0.0,0.0,0.0,0.0,0.0,0.0,0.0,0.0,0.0,0.0,0.0,0.0,0.0,0.0,0.0,0.0,0.0,0.0,0.0,0.0,0.0,0.0,-4.7309,-4.7309,-4.7309,-4.7309,-4.7309,-4.7309,-4.7309,-4.7414,-4.7683,-4.7713,-4.7833,-4.8102,-4.8132,-4.8132,-4.8132,-4.8611,-4.8788,-4.8611,-4.9151,-4.9381,-4.9206,-4.9343,-4.9607,-5.008,-5.008,-5.0313,-5.0811,-5.0887,-5.0923,-5.087,-4.9482,-4.9169,-4.9493,-4.805,-4.7688,-4.8145,0.0,0.0,0.0,0.0,-4.9001,-4.9001,0.0,0.0,0.0,-5.8244,-5.7277,-5.6461,-5.5818,-5.5006,-5.4228,-5.3602,-5.2167,-5.1182,-5.1107,-4.9534,-4.8537,-4.8578,-4.8244,-4.8133,-4.8328,-4.8328,-4.8412,-4.8578,-4.8412,-4.8328,-4.8328,-4.8175,-4.8049,-4.8049,-4.8049,-4.8049,-4.8049,-4.8007,-4.788,-4.7624,-4.7624,-4.751,-4.7337,-4.7337,-4.7309,-4.7309,-4.7309,-4.7309,-4.7309,-4.7309,-4.7309,-4.7309,-4.7309,-4.7309,-4.7309,-4.7309,0.0,0.0,0.0,0.0,0.0,0.0,0.0,0.0,0.0,0.0,0.0,0.0,0.0,0.0,0.0,0.0,0.0,0.0,0.0,0.0,0.0,0.0,0.0,0.0,-4.7309,-4.7339,-4.7399,-4.7414,-4.7414,-4.7414,-4.7474,-4.7758,-4.8341,-4.8401,-4.8641,-4.9269,-4.9314,-4.9314,-4.9314,-4.9314,0.0,0.0,0.0,-4.8288,-4.7658,-4.784,-4.8271,-4.901,-4.901,-4.9423,-5.0142,-5.0297,-5.0467,-5.0464,-4.9164,-4.872,-4.8767,-4.7254,-4.6708,-4.6914,-4.8322,-4.894,-4.9001,-4.9001,-4.9001,-4.9001,0.0,0.0,0.0,-5.8875,-5.7172,-5.5869,-5.5733,-5.4583,-5.367,-5.3518,-5.2677,-5.1806,-5.1182,-5.0206,-4.9325,-4.8661,-4.8537,-4.8495,-4.8537,-4.8537,-4.8578,-4.862,-4.8578,-4.8537,-4.8537,-4.8495,-4.8495,-4.8495,-4.8328,-4.8244,-4.8244,-4.8091,-4.7964,-4.7922,-4.7922,-4.7794,-4.7553,-4.7553,-4.7467,-4.7309,-4.7309,-4.7309,-4.7309,-4.7309,-4.7309,-4.7309,-4.7309,-4.7309,-4.7309,-4.7309,-4.7309,-4.7309,-4.7309,0.0,0.0,0.0,0.0,0.0,0.0,0.0,0.0,0.0,0.0,0.0,0.0,0.0,0.0,0.0,0.0,0.0,0.0,0.0,0.0,-4.7309,-4.7309,-4.7489,-4.8012,-4.8102,-4.8102,-4.8102,-4.8566,-4.8985,-4.9105,-4.912,-4.9179,-4.9299,-4.9314,-4.9314,-4.9314,-4.9314,-4.9254,-4.912,-4.861,-4.831,-4.819,-4.7694,-4.7581,-4.7907,-4.7907,0.0,-4.8464,-4.8506,-4.8903,-4.94,-4.7581,-4.7523,-4.8498,-4.6505,-4.6024,-4.6657,-4.7721,-4.8482,-4.9001,-4.9001,-4.9001,-4.9001,0.0,0.0,0.0,-5.9095,-5.7381,-5.6082,-5.5735,-5.4465,-5.3501,-5.3501,-5.2799,-5.1987,-5.1182,-5.04,-4.9566,-4.8687,-4.862,-4.862,-4.862,-4.862,-4.862,-4.862,-4.862,-4.862,-4.862,-4.862,-4.862,-4.862,-4.8495,-4.8453,-4.8453,-4.8328,-4.826,-4.8175,-4.8175,-4.7964,-4.7581,-4.7581,-4.7467,-4.7309,-4.7309,-4.7309,-4.7309,-4.7309,-4.7309,-4.7309,-4.7309,-4.7309,-4.7309,-4.7309,-4.7309,-4.7309,-4.7309,-4.7309,-4.7309,0.0,0.0,0.0,0.0,0.0,0.0,0.0,0.0,0.0,0.0,0.0,0.0,0.0,0.0,-4.7309,-4.7309,0.0,-4.7309,-4.7309,-4.7578,-4.7908,-4.8237,-4.885,-4.9149,-4.882,-4.912,-4.9434,-4.9718,-4.9748,-4.9883,-5.0227,-5.0242,-5.0242,-5.0242,-5.0242,-5.0092,-4.9763,-4.9119,-4.8626,-4.8282,-4.7638,-4.7337,-4.7467,-4.7467,-4.751,-4.7639,-4.7752,-4.8034,-4.8304,-4.6824,-4.6612,-4.7145,-4.5423,-4.5184,-4.6005,-4.6483,-4.7339,-4.8354,-4.8829,-4.894,-4.8875,0.0,0.0,0.0,-5.9543,-5.7971,-5.6691,-5.6013,-5.4669,-5.367,-5.3518,-5.2955,-5.2219,-5.1406,-5.0631,-4.971,-4.8687,-4.862,-4.862,-4.862,-4.862,-4.862,-4.862,-4.862,-4.862,-4.862,-4.862,-4.862,-4.862,-4.862,-4.862,-4.862,-4.862,-4.8495,-4.837,-4.837,-4.8133,-4.7709,-4.7709,-4.7553,-4.7337,-4.7309,-4.7309,-4.7309,-4.7309,-4.7309,-4.7309,-4.7309,-4.7309,-4.7309,-4.7309,-4.7309,-4.7309,-4.7309,-4.7309,-4.7309,-4.7309,-4.7309,0.0,0.0,0.0,0.0,0.0,0.0,0.0,0.0,-4.7309,-4.7309,-4.7309,-4.7309,-4.7309,-4.7309,-4.7414,-4.7489,-4.7489,-4.8057,-4.8521,-4.8641,-4.9568,-5.0092,-4.9688,-4.9689,-4.9853,-5.033,-5.0375,-5.0599,-5.1184,-5.1214,-5.1214,-5.1214,-5.1214,-5.0928,-5.0405,-4.9673,-4.906,-4.8476,-4.7698,-4.7309,-4.7309,-4.7309,-4.7309,-4.7309,-4.7467,-4.7553,-4.7478,-4.6388,-4.5784,-4.5465,-4.4388,-4.4381,-4.5089,-4.5221,-4.6024,-4.7171,-4.8145,-4.8547,-4.8446,0.0,0.0,0.0,0.0,0.0,-5.7443,-5.6689,-5.54,-5.4228,-5.3602,-5.3433,-5.3058,-5.2272,-5.1459,-5.0345,-4.8728,-4.862,-4.862,-4.862,-4.862,-4.862,-4.862,-4.862,-4.862,-4.862,-4.862,-4.862,-4.862,-4.862,-4.862,-4.862,-4.862,-4.8578,-4.8578,-4.8578,-4.8453,-4.8202,-4.8049,-4.7794,-4.7553,-4.7381,-4.7309,-4.7309,-4.7309,-4.7309,-4.7309,-4.7309,-4.7309,-4.7309,-4.7309,-4.7309,-4.7309,-4.7309,-4.7309,-4.7309,-4.7309,-4.7309,-4.7309,-4.7309,-4.7309,-4.7309,-4.7309,-4.7309,-4.7309,0.0,-4.7309,-4.7309,-4.7309,-4.7309,-4.7309,-4.7309,-4.7788,-4.8177,-4.8177,-4.8775,-4.9359,-4.9882,-5.0106,-5.039,-5.093,-5.1005,-5.1035,-5.1094,-5.1109,-5.1139,-5.1214,-5.1214,-5.1214,-5.1214,-5.1214,-5.1184,-5.1109,-4.9912,-4.9269,-4.9209,-4.7923,-4.7309,-4.7309,-4.7309,-4.7309,-4.7309,-4.7309,-4.7352,-4.7278,-4.6124,-4.4996,-4.3941,-4.379,-4.3808,-4.3949,-4.4601,-4.4946,-4.5243,-4.6378,-4.7188,-4.754,0.0,0.0,0.0,0.0,0.0,-5.7987,-5.6854,-5.5485,-5.4329,-5.3602,-5.3501,-5.3195,-5.2378,-5.157,-5.0615,-4.947,-4.9365,-4.9122,-4.8646,-4.862,-4.862,-4.862,-4.862,-4.862,-4.862,-4.862,-4.862,-4.862,-4.862,-4.862,-4.862,-4.862,-4.862,-4.862,-4.862,-4.8495,-4.8286,-4.8202,-4.7964,-4.7581,-4.751,-4.7381,-4.7309,-4.7309,-4.7309,-4.7309,-4.7309,-4.7309,0.0,0.0,-4.7309,-4.7309,-4.7309,-4.7309,-4.7309,-4.7309,-4.7309,-4.7309,-4.7309,-4.7309,-4.7309,-4.7309,-4.7309,-4.7309,-4.7309,-4.7309,-4.7309,-4.7309,-4.7309,-4.7309,-4.7309,-4.7848,-4.8282,-4.8282,-4.9149,-4.9927,-5.0151,-5.0524,-5.0868,-5.1184,-5.1214,-5.1214,-5.1214,-5.1214,-5.1214,-5.1214,-5.1214,-5.1214,-5.1214,-5.1214,-5.1214,-5.1214,-4.9942,-4.9314,-4.9314,-4.7967,-4.7309,-4.7309,-4.7309,-4.7309,-4.7309,-4.7309,-4.6875,-4.6097,-4.5612,-4.4759,-4.369,-4.3518,-4.3557,-4.3729,-4.405,-4.4427,-4.4909,-4.5957,-4.6212,-4.5916,0.0,0.0,0.0,0.0,0.0,-5.9012,-5.752,-5.606,-5.4839,-5.3924,-5.3636,-5.3195,-5.2378,-5.1769,-5.1124,-5.0283,-5.0245,-4.9868,-4.9,-4.8975,-4.8852,-4.862,-4.862,-4.862,-4.862,-4.862,-4.862,-4.862,-4.862,-4.862,-4.862,-4.862,-4.862,-4.862,-4.862,-4.8537,-4.837,-4.8328,-4.8076,-4.7794,-4.7709,-4.7596,-4.7381,-4.7381,-4.7352,-4.7309,-4.7309,-4.7309,0.0,0.0,-4.7309,-4.7309,-4.7309,-4.7309,-4.7309,-4.7309,-4.7309,-4.7309,-4.7309,-4.7309,-4.7309,-4.7309,-4.7309,-4.7309,-4.7309,-4.7309,-4.7309,-4.7309,-4.7309,-4.7369,-4.7534,-4.8117,-4.8611,-4.879,-4.9778,-5.0465,-5.0465,-5.0868,-5.1214,-5.1214,-5.1214,-5.1214,-5.1214,-5.1214,-5.1214,-5.1214,-5.1214,-5.1214,-5.1214,-5.1214,-5.1214,-5.1214,-4.9942,-4.9314,-4.9314,-4.7967,-4.7309,-4.7309,-4.7309,-4.7309,-4.7294,-4.7115,-4.6396,-4.5289,-4.5095,-4.4473,-4.3557,-4.3384,-4.3423,-4.3596,-4.3596,-4.3918,-4.4472,-4.5159,-4.5068,-4.448,0.0,0.0,0.0,0.0,0.0,-6.0747,-5.8998,-5.7555,-5.6127,-5.4737,-5.394,-5.3195,-5.2378,-5.2272,-5.1915,-5.1145,-5.107,-5.0729,-4.9908,-4.9868,-4.9486,-4.8661,-4.862,-4.862,-4.862,-4.862,-4.862,-4.862,-4.862,-4.862,-4.862,-4.862,-4.862,-4.862,-4.862,-4.862,-4.8578,-4.837,-4.8286,-4.8244,-4.8049,-4.7837,-4.7581,-4.7581,-4.7467,-4.7309,-4.7309,0.0,0.0,0.0,-4.7309,-4.7309,-4.7309,-4.7309,-4.7309,-4.7309,-4.7309,-4.7309,-4.7309,-4.7309,-4.7309,-4.7309,-4.7309,-4.7309,-4.7309,-4.7309,-4.7309,-4.7309,-4.7309,-4.7504,-4.8132,-4.8835,-4.9449,-5.0031,-5.0704,-5.1184,-5.1184,-5.1214,-5.1214,-5.1214,-5.1214,-5.1214,-5.1214,-5.1214,-5.1214,-5.1214,-5.1214,-5.1214,-5.1214,-5.1214,-5.1214,-5.1214,-4.9942,-4.9314,-4.9314,-4.7967,-4.7309,-4.7309,-4.7309,-4.7309,-4.7279,-4.6651,-4.5963,-4.5259,-4.4616,-4.3958,-4.329,-4.329,-4.329,-4.329,-4.329,-4.3329,-4.3369,-4.3369,-4.3586,-4.3629,0.0,0.0,0.0,0.0,0.0,0.0,-6.0693,-5.8885,-5.7153,-5.5761,-5.444,0.0,0.0,0.0,0.0,0.0,-5.1878,-5.1533,-5.0729,-5.0221,-4.9749,-4.9486,-4.8934,-4.862,-4.862,-4.862,-4.862,-4.862,-4.862,-4.862,-4.862,-4.862,-4.862,-4.862,-4.862,-4.862,-4.862,-4.8537,-4.8412,-4.8286,-4.8218,-4.8049,-4.7837,-4.7681,-4.7553,-4.7467,0.0,0.0,0.0,0.0,0.0,-4.7309,-4.7309,-4.7309,-4.7309,-4.7309,-4.7309,-4.7309,-4.7309,-4.7309,-4.7309,-4.7309,-4.7309,-4.7309,-4.7309,-4.7309,-4.7309,-4.7309,-4.7653,-4.8027,-4.8252,-4.9179,-4.9972,-5.0166,-5.0749,-5.1214,-5.1214,-5.1214,-5.1214,-5.1214,-5.1214,-5.1214,-5.1214,-5.1214,-5.1214,-5.1214,-5.1214,-5.1214,-5.1214,-5.1214,-5.1214,-5.1214,-4.9942,-4.9314,-4.9314,-4.7967,-4.7309,-4.7309,-4.7309,-4.7309,-4.7279,-4.6621,-4.5948,-4.5259,-4.4601,-4.3902,-4.329,-4.329,-4.329,-4.329,-4.329,-4.329,-4.329,-4.329,-4.2859,-4.213,0.0,0.0,0.0,0.0,0.0,0.0,0.0,0.0,0.0,0.0,0.0,0.0,0.0,0.0,0.0,0.0,0.0,-5.2378,-5.157,-5.1048,-5.0631,-5.0322,-4.951,-4.9041,-4.9041,-4.8769,-4.862,-4.862,-4.8934,-4.9041,-4.9081,-4.9349,-4.9494,-4.9494,-4.9494,-4.9494,-4.9494,-4.9494,-4.9414,-4.9293,-4.9293,-4.8969,-4.8506,-4.8324,-4.7976,0.0,0.0,0.0,0.0,0.0,-4.7309,-4.7309,-4.7309,-4.7309,-4.7309,-4.7309,-4.7309,-4.7309,-4.7309,-4.7309,-4.7309,-4.7309,-4.7309,-4.7309,-4.7309,-4.7309,-4.7309,-4.7309,-4.7833,-4.8356,-4.8596,-4.9508,-5.027,-5.051,-5.0898,-5.1214,-5.1214,-5.1214,-5.1214,-5.1214,-5.1214,-5.1214,-5.1214,-5.1214,-5.1214,-5.1214,-5.1214,-5.1214,-5.1214,-5.1214,-5.1214,-5.1214,-4.9942,-4.9314,-4.9314,-4.7967,-4.7309,-4.7309,-4.7309,-4.7309,-4.7279,-4.6367,-4.5723,-4.5244,-4.4347,-4.3678,-4.329,-4.329,-4.329,-4.329,-4.329,-4.329,-4.329,-4.329,-4.2506,-4.1422,0.0,0.0,0.0,0.0,0.0,0.0,0.0,0.0,0.0,0.0,0.0,0.0,0.0,0.0,0.0,0.0,0.0,0.0,-5.2414,0.0,0.0,-5.1182,-5.04,-4.9947,-4.9947,-4.9163,-4.8728,-4.8728,-4.9566,-4.9947,-4.9986,-5.0729,-5.1107,-5.1107,-5.1107,-5.1107,-5.1107,-5.1107,-5.1107,-5.1107,-5.1107,-5.0467,-4.9567,-4.9567,0.0,0.0,0.0,0.0,0.0,-4.7279,-4.7309,-4.7309,-4.7309,-4.7309,-4.7309,-4.7309,-4.7309,-4.7309,-4.7309,-4.7309,-4.7309,-4.7309,-4.7309,-4.7309,-4.7309,-4.7309,-4.7309,-4.7309,-4.7863,-4.8536,-4.9194,-4.9823,-5.045,-5.1124,-5.1214,-5.1214,-5.1214,-5.1214,-5.1214,-5.1214,-5.1214,-5.1214,-5.1214,-5.1214,-5.1214,-5.1214,-5.1214,-5.1214,-5.1214,-5.1214,-5.1199,-5.1169,-4.9927,-4.9299,-4.9269,-4.7938,-4.7309,-4.7309,-4.7309,-4.7294,-4.7204,-4.5903,-4.5274,-4.517,-4.3883,-4.329,-4.329,-4.329,-4.329,-4.329,-4.329,-4.329,-4.329,-4.329,-4.2506,-4.1422,0.0,0.0,0.0,0.0,0.0,0.0,0.0,0.0,0.0,0.0,0.0,0.0,0.0,0.0,0.0,0.0,0.0,0.0,-5.3212,0.0,0.0,0.0,0.0,0.0,0.0,0.0,0.0,0.0,0.0,-5.0805,-5.0805,-5.0995,-5.1107,-5.1107,-5.1107,-5.1107,-5.1107,-5.1107,-5.1107,-5.1107,0.0,-5.0957,-5.0675,0.0,0.0,0.0,0.0,0.0,-4.6905,-4.7192,-4.7309,-4.7309,-4.7309,-4.7309,-4.7309,-4.7309,-4.7309,-4.7309,-4.7309,-4.7309,-4.7309,-4.7309,-4.7309,-4.7309,-4.7309,-4.7309,-4.7309,-4.7309,-4.8222,-4.912,-4.9284,-5.0197,-5.102,-5.1184,-5.1214,-5.1214,-5.1214,-5.1214,-5.1214,-5.1214,-5.1214,-5.1214,-5.1214,-5.1214,-5.1214,-5.1214,-5.1214,-5.1214,-5.1214,-5.1214,-5.0943,-5.0465,-4.9688,-4.9075,-4.8536,-4.7713,-4.7309,-4.7309,-4.7309,-4.7055,-4.6546,-4.5678,-4.5035,-4.4526,-4.3648,-4.329,-4.329,-4.329,-4.329,-4.329,-4.329,-4.329,-4.329,-4.329,-4.2506,-4.1422,0.0,0.0,0.0,0.0,0.0,0.0,0.0,0.0,0.0,0.0,0.0,0.0,0.0,0.0,0.0,0.0,0.0,0.0,0.0,0.0,0.0,0.0,0.0,0.0,0.0,0.0,0.0,0.0,0.0,0.0,0.0,-5.1987,-5.2167,-5.2167,-5.2167,-5.2167,-5.2167,-5.2167,0.0,0.0,0.0,0.0,0.0,0.0,0.0,0.0,0.0,0.0,-4.7154,-4.7319,-4.7355,-4.7309,-4.7309,-4.7309,-4.7309,-4.7309,-4.7309,-4.7309,-4.7309,-4.7309,-4.7309,-4.7309,-4.7309,-4.7309,-4.7309,-4.7309,-4.7309,-4.7309,-4.8117,-4.897,-4.9269,-5.0107,-5.0838,-5.1169,-5.1214,-5.1214,-5.1214,-5.1214,-5.1214,-5.1214,-5.1214,-5.1214,-5.1214,-5.1214,-5.1214,-5.1214,-5.1214,-5.1214,-5.1214,-5.1214,-5.0868,-5.0211,-4.9598,-4.8865,-4.7863,-4.7489,-4.7309,-4.7309,-4.7309,-4.6965,-4.6264,-4.5618,-4.493,-4.4272,-4.3574,-4.329,-4.329,-4.329,-4.329,-4.329,-4.329,-4.329,-4.329,-4.329,-4.2506,-4.1422,0.0,0.0,0.0,0.0,0.0,0.0,0.0,0.0,0.0,0.0,-5.9258,-5.7583,0.0,0.0,0.0,0.0,0.0,0.0,0.0,0.0,0.0,0.0,0.0,0.0,0.0,0.0,0.0,0.0,0.0,0.0,0.0,0.0,0.0,0.0,0.0,0.0,0.0,0.0,0.0,0.0,0.0,0.0,0.0,0.0,0.0,0.0,0.0,0.0,-4.7435,-4.7388,-4.7353,-4.7309,-4.7309,-4.7309,-4.7309,-4.7309,-4.7309,-4.7309,-4.7309,-4.7309,-4.7309,-4.7309,-4.7309,-4.7309,-4.7309,-4.7309,-4.7309,-4.7309,-4.7833,-4.8476,-4.9194,-4.9793,-5.0405,-5.1109,-5.1214,-5.1214,-5.1214,-5.1214,-5.1214,-5.1214,-5.1214,-5.1214,-5.1214,-5.1214,-5.1214,-5.1214,-5.1214,-5.1214,-5.1214,-5.1139,-5.0704,-4.9956,-4.9344,-4.8461,-4.7309,-4.7309,-4.7309,-4.7309,-4.7309,-4.692,-4.6172,-4.5574,-4.4885,-4.4152,-4.3544,-4.329,-4.329,-4.329,-4.329,-4.329,-4.329,-4.329,-4.329,-4.329,-4.2506,-4.1422,0.0,0.0,0.0,0.0,0.0,0.0,0.0,0.0,0.0,0.0,-6.1139,-5.9556,0.0,0.0,0.0,0.0,0.0,0.0,0.0,0.0,0.0,0.0,0.0,0.0,0.0,-5.3161,-5.3076,-5.3076,-5.3195,0.0,0.0,0.0,0.0,0.0,0.0,0.0,0.0,0.0,0.0,0.0,0.0,0.0,0.0,0.0,0.0,0.0,0.0,-4.7025,0.0,0.0,-4.7052,-4.7309,-4.7309,-4.7309,-4.7309,-4.7309,-4.7309,-4.7309,-4.7309,-4.7309,-4.7309,-4.7309,-4.7309,-4.7309,-4.7309,-4.7309,-4.7309,-4.7309,-4.7833,-4.8476,-4.9194,-4.9793,-5.0405,-5.1109,-5.1214,-5.1214,-5.1214,-5.1214,-5.1214,-5.1214,-5.1214,-5.1214,-5.1214,-5.1214,-5.1214,-5.1214,-5.1214,-5.1214,-5.1214,-5.0659,-4.9853,-4.8671,-4.7982,-4.7534,-4.7309,-4.7309,-4.7309,-4.7309,-4.7309,-4.6666,-4.5469,-4.5349,-4.4646,-4.3454,-4.3349,-4.329,-4.329,-4.329,-4.329,-4.329,-4.329,-4.329,-4.329,-4.329,-4.2506,-4.1422,0.0,0.0,0.0,0.0,0.0,0.0,0.0,-6.278,-6.278,-6.278,-6.223,-6.1165,-5.9349,-5.814,-5.6947,0.0,0.0,0.0,0.0,0.0,0.0,0.0,0.0,0.0,0.0,-5.3501,-5.3501,-5.3501,0.0,-5.3979,-5.3979,-5.4333,-5.4474,-5.4506,-5.4782,-5.4918,0.0,0.0,0.0,0.0,0.0,0.0,0.0,0.0,0.0,0.0,0.0,0.0,0.0,0.0,-4.7104,-4.749,-4.7347,-4.7309,-4.7309,-4.7309,-4.7309,-4.7309,-4.7309,-4.7309,-4.7309,-4.7309,-4.7309,-4.7309,-4.7309,-4.7309,-4.7309,-4.7309,-4.7563,-4.7982,-4.8685,-4.9284,-4.9942,-5.0554,-5.0943,-5.1214,-5.1214,-5.1214,-5.1214,-5.1214,-5.1214,-5.1214,-5.1214,-5.1214,-5.1214,-5.1214,-5.1214,-5.1214,-5.1214,-5.0272,-4.9284,-4.8312,-4.7653,-4.7309,-4.7309,-4.7309,-4.7309,-4.7309,-4.6965,-4.6262,-4.5289,-4.4945,-4.4257,-4.329,-4.329,-4.329,-4.329,-4.329,-4.329,-4.329,-4.329,-4.329,-4.329,-4.329,-4.2506,-4.1422,0.0,0.0,0.0,0.0,0.0,0.0,-6.278,-6.278,-6.278,-6.278,-6.278,-6.2278,-6.0901,-5.9457,-5.8097,0.0,0.0,0.0,0.0,0.0,0.0,0.0,0.0,0.0,0.0,0.0,0.0,-5.3915,-5.4235,0.0,0.0,0.0,0.0,0.0,-5.5531,-5.5589,-5.5589,-5.5413,0.0,0.0,0.0,-5.2538,0.0,0.0,0.0,0.0,0.0,-4.8658,-4.8242,-4.7484,-4.7237,-4.7284,-4.7337,-4.7304,-4.7309,-4.7309,-4.7309,-4.7309,-4.7309,-4.7309,-4.7309,-4.7309,-4.7309,-4.7309,-4.7309,-4.7309,-4.7309,-4.7309,-4.7309,-4.7504,-4.8162,-4.8745,-4.9314,-5.0061,-5.0629,-5.1065,-5.1199,-5.1214,-5.1214,-5.1214,-5.1214,-5.1214,-5.1214,-5.1214,-5.1214,-5.1214,-5.1094,-5.0945,-5.081,-4.9688,-4.8805,-4.8102,-4.7578,-4.7309,-4.7309,-4.7309,-4.7309,-4.7294,-4.6636,-4.5963,-4.5274,-4.4616,-4.3917,-4.329,-4.329,-4.329,-4.329,-4.329,-4.329,-4.329,-4.329,-4.329,-4.329,-4.329,-4.2506,-4.1422,0.0,0.0,0.0,0.0,0.0,0.0,-6.278,-6.278,-6.278,-6.278,-6.278,-6.2661,-6.2253,-6.1426,-5.9949,0.0,0.0,0.0,0.0,0.0,0.0,0.0,0.0,0.0,0.0,0.0,0.0,-5.5224,-5.4672,0.0,0.0,0.0,0.0,0.0,0.0,-5.6229,-5.6176,-5.549,0.0,0.0,0.0,0.0,0.0,0.0,0.0,0.0,0.0,-4.842,-4.7753,-4.8072,-4.7144,-4.6075,-4.7129,-4.738,-4.7309,-4.7309,-4.7309,-4.7309,-4.7309,-4.7309,-4.7309,-4.7309,-4.7309,-4.7309,-4.7309,-4.7309,-4.7309,-4.7309,-4.7309,-4.7504,-4.8162,-4.8341,-4.879,-4.9986,-5.024,-5.048,-5.1124,-5.1214,-5.1214,-5.1214,-5.1214,-5.1214,-5.1214,-5.1214,-5.1214,-5.1214,-5.0629,-5.0062,-4.9479,-4.8775,-4.8072,-4.7414,-4.7339,-4.7309,-4.7309,-4.7309,-4.7309,-4.7294,-4.6636,-4.5963,-4.5274,-4.4616,-4.3917,-4.329,-4.329,-4.329,-4.329,-4.329,-4.329,-4.329,-4.329,-4.329,-4.329,-4.329,-4.2506,-4.1422,0.0,0.0,0.0,0.0,0.0,0.0,-6.257,-6.2698,-6.2755,-6.2679,-6.2679,-6.2603,-6.2415,-6.2045,-6.0979,-5.8925,-5.8322,0.0,0.0,0.0,0.0,0.0,0.0,0.0,0.0,0.0,-5.4345,-5.4237,-5.4769,0.0,0.0,0.0,0.0,0.0,0.0,-5.6837,-5.6819,-5.6521,0.0,0.0,0.0,0.0,0.0,0.0,0.0,0.0,0.0,0.0,-4.8371,-4.7852,-4.7494,-4.716,-4.6493,-4.6829,-4.7391,-4.7304,-4.7309,-4.7309,-4.7309,-4.7309,-4.7309,-4.7309,-4.7309,-4.7309,-4.7309,-4.7309,-4.7309,-4.7309,-4.7309,-4.7384,-4.7653,-4.8012,-4.8461,-4.897,-4.9672,-5.0285,-5.0539,-5.0928,-5.1214,-5.1214,-5.1214,-5.1214,-5.1214,-5.1214,-5.1003,-5.0614,-4.9658,-4.8955,-4.8686,-4.8431,-4.7982,-4.7324,-4.7309,-4.7309,-4.7309,-4.7309,-4.7115,-4.6711,-4.6022,-4.5349,-4.4691,-4.4018,-4.3544,-4.329,-4.329,-4.329,-4.329,-4.329,-4.329,-4.329,-4.329,-4.329,-4.329,-4.329,-4.2506,-4.1422,0.0,0.0,0.0,0.0,0.0,-6.25,-6.2415,-6.257,-6.2647,-6.2552,-6.2578,-6.2526,-6.2362,-6.2283,-6.1632,-6.0086,-5.9216,0.0,0.0,0.0,0.0,0.0,0.0,0.0,0.0,0.0,-5.4488,-5.4061,-5.4769,-5.5207,0.0,0.0,-5.6941,-5.6941,0.0,0.0,0.0,0.0,0.0,0.0,0.0,0.0,0.0,0.0,0.0,0.0,0.0,0.0,0.0,0.0,0.0,-4.7765,-4.6294,0.0,0.0,-4.7011,-4.716,-4.7309,-4.7309,-4.7309,-4.7309,-4.7309,-4.7309,-4.7309,-4.7309,-4.7309,-4.7309,-4.7309,-4.7309,-4.7309,-4.7309,-4.7683,-4.8057,0.0,-4.906,-4.9733,-4.9927,-5.0511,-5.0883,-5.0883,-5.1094,-5.1139,-5.0898,-5.075,-5.0361,-4.9718,-4.8805,-4.8192,-4.7997,-4.7997,-4.7788,-4.7309,-4.7309,-4.7309,-4.7309,-4.7309,-4.698,-4.6264,-4.5618,-4.4945,-4.4287,-4.3589,-4.329,-4.329,-4.329,-4.329,-4.329,-4.329,-4.329,-4.329,-4.329,-4.329,-4.329,-4.329,-4.2506,-4.1422,0.0,0.0,0.0,0.0,0.0,-6.2389,-6.2389,-6.2415,-6.2415,-6.2415,-6.25,-6.25,-6.223,-6.231,-6.1956,-6.0864,-6.0068,0.0,0.0,0.0,0.0,0.0,0.0,0.0,0.0,0.0,-5.5402,-5.5385,-5.4734,-5.4734,-5.5414,-5.6017,-5.6311,-5.6339,0.0,0.0,0.0,0.0,-5.6301,-5.4647,0.0,0.0,0.0,0.0,0.0,0.0,0.0,0.0,0.0,0.0,0.0,0.0,0.0,-4.614,-4.5622,0.0,-4.68,-4.7309,-4.7309,-4.7309,-4.7309,-4.7309,-4.7309,-4.7309,-4.7309,-4.7309,-4.7309,-4.7309,-4.7309,-4.7309,-4.7309,-4.7309,-4.7534,-4.8177,-4.8297,-4.8536,-4.9224,-4.9838,-5.0196,-5.0196,-5.0779,-5.096,-5.0255,-4.9673,-4.906,-4.8356,-4.8297,-4.7997,-4.7354,-4.7309,-4.7309,-4.7309,-4.7309,-4.7309,-4.7309,-4.7309,-4.698,-4.6264,-4.5618,-4.4945,-4.4287,-4.3589,-4.329,-4.329,-4.329,-4.329,-4.329,-4.329,-4.329,-4.329,-4.329,-4.329,-4.329,-4.329,-4.2506,-4.1422,0.0,0.0,0.0,0.0,0.0,0.0,-6.2141,-6.2283,-6.2362,-6.2283,-6.231,-6.2291,-6.2203,-6.2168,-6.1978,-6.1661,-6.0874,0.0,0.0,0.0,0.0,0.0,0.0,0.0,0.0,-5.5502,-5.5177,-5.4703,-5.4913,-5.5361,-5.6017,-5.6201,-5.6528,-5.6915,-5.6661,-5.6811,0.0,-5.6609,-5.5252,-5.3304,0.0,0.0,-5.0056,0.0,0.0,0.0,0.0,0.0,0.0,0.0,0.0,0.0,0.0,0.0,0.0,-4.5203,-4.5753,-4.6636,-4.6636,-4.6965,-4.7309,-4.7309,-4.7309,-4.7309,-4.7309,-4.7309,-4.7309,-4.7309,-4.7309,-4.7309,-4.7309,-4.7309,-4.7369,-4.7578,-4.7997,-4.8356,-4.8566,-4.9164,-4.9568,-4.9568,-4.9748,-4.9808,-4.9598,-4.8985,-4.8506,-4.8297,-4.7878,-4.7519,-4.7309,-4.7309,-4.7309,-4.7309,-4.7309,-4.7309,-4.7309,-4.686,-4.6292,-4.5618,-4.4945,-4.4287,-4.3604,-4.3394,-4.329,-4.329,-4.329,-4.329,-4.329,-4.329,-4.329,-4.329,-4.329,-4.329,-4.329,-4.329,-4.2506,-4.1422,0.0,0.0,0.0,0.0,0.0,0.0,-6.2005,-6.2141,-6.2222,-6.2141,-6.2177,-6.2177,-6.2123,-6.2114,-6.206,-6.1978,-6.1525,0.0,0.0,0.0,0.0,0.0,0.0,0.0,-5.5762,-5.5733,-5.5308,-5.4391,-5.4761,-5.5052,-5.5266,-5.5484,-5.5784,-5.6148,-5.6017,-5.6156,0.0,-5.5668,-5.4367,-5.275,0.0,0.0,-4.9832,0.0,0.0,0.0,0.0,0.0,0.0,0.0,0.0,0.0,0.0,0.0,0.0,0.0,-4.4706,-4.5618,-4.5873,-4.6426,-4.6935,-4.6935,-4.7115,-4.7309,-4.7309,-4.7309,-4.7309,-4.7309,-4.7309,-4.7309,-4.7309,-4.7309,-4.7309,-4.7309,-4.7653,-4.7923,-4.7923,-4.8476,-4.903,-4.9284,-4.909,-4.894,-4.894,-4.8297,-4.7923,-4.7923,-4.7534,-4.7309,-4.7309,-4.7309,-4.7309,-4.7309,-4.7309,-4.7309,-4.7309,-4.6651,-4.5978,-4.5289,-4.4631,-4.3932,-4.329,-4.329,-4.329,-4.329,-4.329,-4.329,0.0,-4.329,-4.329,-4.329,-4.329,-4.329,-4.329,-4.329,-4.2656,-4.1752,0.0,0.0,0.0,0.0,0.0,0.0,0.0,-6.1996,-6.1996,-6.1996,-6.2114,-6.2123,-6.2005,-6.2114,-6.2141,-6.2023,-6.1996,0.0,0.0,0.0,0.0,0.0,0.0,0.0,-5.6311,-5.6257,-5.5658,-5.4485,-5.4422,-5.4156,-5.3651,-5.4171,-5.4422,-5.4485,-5.5069,-5.532,-5.5262,-5.4443,-5.3625,-5.2733,-5.1442,-5.0499,0.0,0.0,0.0,0.0,0.0,0.0,0.0,0.0,0.0,0.0,0.0,0.0,0.0,0.0,0.0,0.0,0.0,-4.5693,-4.6219,-4.6264,-4.6785,-4.7249,-4.7294,-4.7309,0.0,-4.7309,-4.7309,-4.7309,-4.7309,-4.7309,-4.7309,-4.7309,-4.7309,-4.7309,-4.7309,-4.7833,-4.8446,-4.9105,-4.8596,-4.8222,-4.8222,-4.7668,-4.7309,-4.7309,-4.7309,-4.7309,-4.7309,-4.7309,-4.7309,-4.7309,-4.7309,-4.7279,-4.7234,-4.6576,-4.5903,-4.5214,-4.4556,-4.3888,-4.329,-4.329,-4.329,-4.329,-4.329,-4.329,-4.329,-4.329,-4.329,-4.329,-4.329,-4.329,-4.329,-4.329,-4.2925,-4.2306,0.0,0.0,0.0,0.0,0.0,0.0,0.0,0.0,0.0,0.0,-6.2051,-6.2033,-6.1978,-6.2051,-6.2033,0.0,0.0,0.0,0.0,0.0,0.0,0.0,0.0,0.0,-5.6311,-5.5848,-5.5473,-5.5177,-5.4641,-5.4579,-5.4953,-5.4579,-5.4672,-5.5147,-5.4795,-5.4587,-5.4425,-5.3618,-5.259,-5.1378,-5.0517,-4.9769,0.0,0.0,0.0,0.0,-4.9001,-4.9001,0.0,0.0,0.0,0.0,0.0,0.0,0.0,0.0,-4.3409,-4.3559,-4.3708,0.0,-4.5663,-4.6187,-4.6441,-4.6696,0.0,-4.7309,-4.7309,-4.7309,-4.7309,-4.7309,-4.7309,-4.7309,-4.7309,-4.7309,-4.7309,-4.7309,-4.7309,-4.7444,-4.7593,-4.7743,-4.7623,-4.7534,-4.7534,-4.7399,-4.7309,-4.7309,-4.7309,-4.7309,-4.7309,-4.7309,-4.7309,-4.7309,-4.7309,-4.7055,-4.6561,-4.5873,-4.52,-4.4541,-4.3883,-4.3439,-4.329,-4.329,-4.329,-4.329,-4.329,-4.329,-4.329,-4.329,-4.329,-4.329,-4.329,-4.329,-4.329,-4.329,-4.2925,-4.2306,0.0,0.0,0.0,0.0,0.0,0.0,0.0,0.0,0.0,0.0,-6.1996,-6.1996,-6.1996,-6.1996,-6.1996,0.0,0.0,0.0,0.0,0.0,0.0,0.0,0.0,-5.7311,-5.6311,-5.5978,-5.5531,-5.4948,-5.4579,-5.444,-5.4506,-5.4156,-5.4188,-5.4506,-5.4156,-5.3965,-5.385,-5.3404,-5.241,-5.1042,-5.0663,0.0,0.0,0.0,0.0,0.0,-4.9001,-4.9001,0.0,-4.861,-4.8515,-4.8162,0.0,0.0,0.0,0.0,-4.329,-4.329,-4.329,-4.4062,-4.5005,-4.5678,-4.6097,-4.6501,-4.716,-4.7309,-4.7309,-4.7309,-4.7309,-4.7309,-4.7309,-4.7309,-4.7309,-4.7309,-4.7309,-4.7309,-4.7309,-4.7309,-4.7309,-4.7309,-4.7309,-4.7309,-4.7309,-4.7309,-4.7309,-4.7309,-4.7309,-4.7309,-4.7309,-4.7309,-4.7309,-4.7309,-4.701,-4.6681,-4.6279,-4.5648,-4.496,-4.4302,-4.3604,-4.329,-4.329,-4.329,-4.329,-4.329,-4.329,-4.329,-4.329,-4.329,-4.329,-4.329,-4.329,-4.329,-4.329,-4.329,-4.3105,-4.2671,0.0,0.0,0.0,0.0,0.0,0.0,0.0,0.0,0.0,0.0,0.0,0.0,0.0,0.0,0.0,0.0,0.0,0.0,0.0,0.0,0.0,0.0,-5.8836,-5.7744,-5.6329,-5.6201,-5.5583,-5.4391,-5.4313,-5.4011,-5.3501,-5.3501,-5.3501,-5.3501,-5.3501,-5.3501,-5.3501,-5.3365,-5.2503,-5.12,-5.1099,0.0,0.0,0.0,0.0,0.0,0.0,0.0,0.0,-4.861,-4.8515,-4.8162,-4.6288,0.0,0.0,0.0,0.0,0.0,-4.329,-4.3693,-4.4332,-4.4975,-4.5663,-4.6337,-4.6995,0.0,0.0,0.0,-4.7309,-4.7309,-4.7309,-4.7164,-4.7121,-4.7266,-4.7309,-4.7309,-4.7309,-4.7309,-4.7309,-4.7309,-4.7309,-4.7309,-4.7309,-4.7309,-4.7309,-4.7309,-4.7309,-4.7309,-4.7309,-4.7309,-4.7309,-4.7309,-4.6666,-4.6234,-4.6172,-4.5484,-4.4811,-4.4152,-4.3559,-4.329,-4.329,-4.329,-4.329,-4.329,-4.329,-4.329,-4.329,-4.329,-4.329,-4.329,-4.329,-4.329,-4.329,-4.329,-4.329,-4.311,0.0,0.0,0.0,0.0,0.0,0.0,0.0,0.0,0.0,0.0,0.0,0.0,0.0,0.0,0.0,0.0,0.0,0.0,0.0,0.0,0.0,-5.9669,-5.8836,-5.7744,-5.6329,-5.5791,-5.5159,-5.4391,-5.3898,-5.3584,-5.3501,-5.3501,-5.3501,-5.3501,-5.3501,-5.3501,-5.3467,-5.2773,-5.1995,-5.1134,-5.0524,0.0,0.0,0.0,0.0,0.0,0.0,0.0,0.0,-4.861,-4.8515,-4.8162,-4.6288,0.0,0.0,0.0,0.0,0.0,-4.329,-4.3364,-4.3604,-4.4302,-4.496,-4.5633,-4.6322,-4.6905,0.0,0.0,-4.7309,-4.7309,-4.7309,-4.6594,-4.6299,-4.7164,-4.7309,-4.7309,-4.7309,-4.7309,-4.7309,-4.7309,-4.7309,-4.7309,-4.7309,-4.7309,-4.7309,-4.7309,-4.7309,-4.7309,-4.7309,-4.7309,-4.7309,-4.7309,-4.6666,-4.6037,-4.5454,-4.4796,-4.4137,-4.3439,-4.3349,-4.329,-4.329,-4.329,-4.329,-4.329,-4.329,-4.329,-4.329,-4.329,-4.329,-4.329,-4.329,-4.329,-4.329,-4.329,-4.329,-4.311,0.0,0.0,0.0,0.0,0.0,0.0,0.0,0.0,0.0,0.0,0.0,0.0,0.0,0.0,0.0,0.0,0.0,0.0,0.0,0.0,-6.1272,-5.9669,-5.8925,-5.7681,-5.5854,-5.5189,-5.4534,-5.3913,-5.3651,-5.3501,-5.3501,-5.3501,-5.3501,-5.3501,-5.3501,-5.3501,-5.3484,-5.3112,-5.2283,-5.1183,0.0,0.0,0.0,0.0,0.0,0.0,0.0,0.0,0.0,0.0,-4.8515,-4.8162,-4.6288,0.0,0.0,0.0,0.0,0.0,-4.329,-4.329,-4.3364,-4.3663,-4.4541,-4.5559,-4.6621,-4.7085,-4.7309,-4.7309,-4.7309,-4.7309,-4.7309,-4.6916,-4.6594,-4.6491,-4.6491,-4.6491,-4.6491,-4.6032,-4.6091,-4.7164,-4.6829,-4.6682,-4.7251,-4.7309,-4.7309,-4.7309,-4.7309,-4.7309,-4.7309,-4.7309,-4.7145,-4.6785,-4.6112,-4.5439,-4.4766,-4.4067,-4.3589,-4.329,-4.329,-4.329,-4.329,-4.329,-4.329,-4.329,-4.329,-4.329,-4.329,-4.329,-4.329,-4.329,-4.329,-4.329,-4.329,-4.329,-4.2841,-4.2192,0.0,0.0,0.0,0.0,0.0,0.0,0.0,0.0,0.0,0.0,0.0,0.0,0.0,0.0,0.0,0.0,0.0,0.0,0.0,-6.1996,-6.12,-5.9465,-5.879,-5.7499,-5.5449,-5.4734,-5.4106,-5.3501,-5.3501,-5.3501,-5.3501,-5.3501,-5.3501,-5.3501,-5.3501,-5.3501,-5.3501,-5.3501,-5.2621,-5.1185,0.0,0.0,0.0,0.0,0.0,0.0,0.0,0.0,0.0,0.0,0.0,0.0,0.0,0.0,0.0,-4.3771,-4.329,-4.329,-4.329,-4.329,-4.3364,-4.3678,-4.4541,-4.5559,-4.6606,-4.707,-4.7207,-4.7019,-4.6975,-4.6887,-4.6653,-4.6785,-4.6638,-4.5598,-4.5644,-4.5779,-4.5779,-4.4946,-4.4869,-4.6417,-4.6121,-4.6107,-4.6873,-4.7164,-4.7309,-4.7309,-4.7309,-4.7309,-4.7309,-4.7309,-4.6995,-4.6309,-4.5648,-4.4975,-4.4332,-4.3618,-4.329,-4.329,-4.329,-4.329,-4.329,-4.329,-4.329,-4.329,-4.329,-4.329,-4.329,-4.329,-4.329,-4.329,-4.329,-4.329,-4.329,-4.329,-4.2506,-4.1422,0.0,0.0,0.0,0.0,0.0,0.0,0.0,0.0,0.0,0.0,0.0,0.0,0.0,0.0,0.0,0.0,0.0,0.0,0.0,-6.1996,-6.1017,-5.8862,-5.8149,-5.7037,-5.542,-5.4734,-5.4106,-5.3501,-5.3501,-5.3501,-5.3501,-5.3501,-5.3501,-5.3501,-5.3501,-5.3501,-5.3501,-5.3501,-5.2621,-5.1185,-5.1185,0.0,0.0,0.0,0.0,0.0,0.0,0.0,0.0,0.0,0.0,0.0,0.0,0.0,-4.5369,-4.3771,-4.329,-4.329,-4.329,-4.329,-4.3589,-4.4855,-4.5229,-4.5319,-4.5409,-4.6411,-4.7019,-4.6107,-4.5928,-4.5598,-4.4684,-4.5281,-4.5598,-4.4591,-4.519,-4.5779,-4.5779,-4.4946,-4.4359,-4.4499,-4.5281,-4.5824,-4.5928,-4.6741,-4.7309,-4.7309,-4.7309,-4.7309,-4.7309,-4.7309,-4.6995,-4.6309,-4.5648,-4.4975,-4.4332,-4.3618,-4.329,-4.329,-4.329,-4.329,-4.329,-4.329,-4.329,-4.329,-4.329,-4.329,-4.329,-4.329,-4.329,-4.329,-4.329,-4.329,-4.329,-4.329,-4.2506,-4.1422,0.0,0.0,0.0,0.0,0.0,0.0,0.0,0.0,0.0,0.0,0.0,-6.1996,-6.1996,0.0,0.0,0.0,0.0,0.0,0.0,-6.1996,-6.1017,-5.8805,-5.8042,-5.6777,-5.483,-5.4156,-5.3734,-5.3501,-5.3501,-5.3433,-5.3314,-5.3433,-5.3416,-5.3298,-5.345,-5.3501,-5.3501,-5.3501,-5.2621,-5.1185,-5.1185,-5.0338,0.0,0.0,0.0,0.0,0.0,0.0,0.0,0.0,-4.826,-4.7918,-4.6234,-4.5697,-4.5369,-4.3771,-4.329,-4.329,-4.329,-4.329,-4.3514,-4.4466,-4.499,-4.5332,-4.5563,-4.5991,-4.6077,-4.5098,-4.4854,-4.4762,-4.4359,-4.4638,-4.4531,-4.3545,-4.3687,-4.3909,-4.3909,-4.3081,-4.2916,-4.4172,-4.4064,-4.4191,-4.4823,-4.5793,-4.6358,-4.6358,-4.6975,-4.7309,-4.7309,-4.692,-4.6381,-4.5708,-4.5035,-4.4362,-4.3663,-4.3424,-4.329,-4.329,-4.329,-4.329,-4.329,-4.329,-4.329,-4.329,-4.329,-4.329,-4.329,-4.329,-4.329,-4.329,-4.329,-4.329,-4.3245,-4.288,-4.2162,-4.1324,0.0,0.0,0.0,0.0,0.0,0.0,0.0,0.0,-6.1996,0.0,0.0,0.0,0.0,-6.1996,0.0,0.0,0.0,0.0,-6.1996,-6.1743,-6.0663,-5.8483,-5.7693,-5.6317,-5.4173,-5.3701,-5.3501,-5.3501,-5.3433,-5.3382,-5.3298,-5.3314,-5.328,-5.3179,-5.328,-5.3314,-5.3314,-5.3314,-5.2438,-5.1023,-5.1023,-5.0178,0.0,0.0,0.0,0.0,0.0,0.0,0.0,0.0,-4.8163,-4.7853,-4.6234,-4.5697,-4.5369,-4.3771,-4.329,-4.329,-4.329,-4.329,-4.3454,-4.4152,-4.4549,-4.487,-4.496,-4.5409,-4.5403,-4.4111,-4.3559,-4.3321,-4.3321,-4.3606,-4.3592,-4.2937,-4.2792,-4.2792,-4.2792,-4.1904,-4.1832,-4.3191,-4.3033,-4.3081,-4.3735,-4.5038,-4.5689,-4.5372,-4.655,-4.7164,-4.6829,-4.6494,-4.6007,-4.5319,-4.4661,-4.4003,-4.3305,-4.329,-4.329,-4.329,-4.329,-4.329,-4.329,-4.329,-4.329,-4.329,-4.329,-4.329,-4.329,-4.329,-4.329,-4.329,-4.329,-4.329,-4.3215,-4.2635,-4.1991,-4.128,0.0,0.0,0.0,0.0,0.0,0.0,0.0,0.0,-6.1978,-6.1996,-6.1996,0.0,0.0,0.0,0.0,0.0,0.0,0.0,-6.1996,-6.1236,-5.9857,-5.7806,-5.6924,-5.5546,-5.3551,-5.3501,-5.3501,-5.3501,-5.3298,-5.3298,-5.3467,-5.3093,-5.3007,-5.3179,-5.2972,-5.2903,-5.2903,-5.2903,-5.2066,-5.0693,-5.071,-4.9823,-4.8532,0.0,0.0,0.0,0.0,0.0,0.0,0.0,-4.8115,-4.7754,-4.6198,-4.5697,-4.5369,-4.3771,-4.329,-4.329,-4.329,-4.329,-4.3454,-4.4152,-4.4061,-4.3689,-4.3381,-4.4595,-4.5221,-4.3211,-4.2003,-4.1311,-4.1311,-4.2101,-4.2792,-4.2792,-4.2792,-4.2792,-4.2792,-4.1918,-4.1311,-4.1311,-4.2186,-4.2792,-4.2792,-4.461,-4.5372,-4.4359,-4.6136,-4.6829,-4.5824,-4.6105,-4.6007,-4.5319,-4.4646,-4.3947,-4.3305,-4.329,-4.329,-4.329,-4.329,-4.329,-4.329,-4.329,-4.329,-4.329,-4.329,-4.329,-4.329,-4.329,-4.329,-4.329,-4.329,-4.329,-4.32,-4.262,-4.1976,-4.128,0.0,0.0,0.0,0.0,0.0,0.0,0.0,0.0,-6.1476,-6.195,-6.1996,0.0,0.0,0.0,0.0,0.0,0.0,0.0,-6.1996,-6.087,-5.9441,-5.7776,-5.6512,-5.512,-5.3518,-5.3348,-5.3298,-5.3298,-5.323,-5.3093,-5.2885,-5.2885,-5.2868,-5.2764,-5.2868,-5.2903,-5.2903,-5.2903,-5.2351,-5.143,-5.0911,-5.0141,-4.922,0.0,0.0,0.0,0.0,0.0,0.0,0.0,0.0,0.0,-4.6198,-4.5697,-4.5369,-4.3771,-4.329,-4.329,-4.329,-4.329,-4.3454,-4.4152,-4.4061,-4.3689,-4.3381,-4.3491,-4.3307,-4.2003,-4.1498,-4.1311,-4.1311,-4.1547,-4.1733,-4.1733,-4.1733,-4.1733,-4.1733,-4.1498,-4.1311,-4.1311,-4.1547,-4.1733,-4.1733,-4.2937,-4.3592,-4.3259,-4.5084,-4.6107,-4.5824,-4.5661,-4.5514,-4.5304,-4.4212,-4.3484,-4.329,-4.329,-4.329,-4.329,-4.329,-4.329,-4.329,-4.329,-4.329,-4.329,-4.329,-4.329,-4.329,-4.329,-4.329,-4.329,-4.329,-4.3045,-4.2566,-4.1946,-4.125,-4.0591,0.0,0.0,0.0,0.0,0.0,0.0,-6.0529,-6.059,-6.0759,-6.1151,-6.1448,-6.159,0.0,0.0,0.0,0.0,0.0,0.0,-6.1636,-6.0218,-5.881,-5.7356,-5.5888,-5.4619,-5.3518,-5.3298,-5.3144,-5.3076,-5.3007,-5.2868,-5.2729,-5.2711,-5.2676,-5.2589,-5.2676,-5.2711,-5.2711,-5.2711,-5.2277,-5.1543,-5.0793,-5.0043,-4.9342,0.0,0.0,0.0,0.0,0.0,0.0,0.0,0.0,0.0,-4.6198,-4.5697,-4.5369,-4.3771,-4.329,-4.329,-4.329,-4.329,-4.3394,-4.3783,-4.3562,-4.3071,-4.2593,-4.2369,-4.2052,-4.1411,-4.1311,-4.1311,-4.1311,-4.1311,-4.1311,-4.1311,-4.1311,-4.1311,-4.1311,-4.1311,-4.1311,-4.1311,-4.1311,-4.1311,-4.1311,-4.2186,-4.2647,-4.2235,-4.4064,-4.5075,-4.4817,-4.4748,-4.478,-4.4915,-4.3843,-4.329,-4.329,-4.329,-4.329,-4.329,-4.329,-4.329,-4.329,-4.329,-4.329,-4.329,-4.329,-4.329,-4.329,-4.329,-4.329,-4.329,-4.329,-4.294,-4.2321,-4.1662,-4.0965,-4.0307,0.0,0.0,-5.8806,-5.8806,0.0,0.0,-5.9902,-5.9902,-5.9902,-5.9966,-6.0547,-6.0909,0.0,0.0,0.0,-6.1822,0.0,0.0,0.0,-5.9418,-5.797,-5.6733,-5.5187,-5.4059,-5.3501,-5.328,-5.3076,-5.2868,-5.2694,-5.2711,-5.2834,-5.2535,-5.248,-5.257,-5.2445,-5.2409,-5.2409,-5.2409,-5.2028,-5.1348,-5.0518,-4.9806,-4.9127,-4.8315,0.0,0.0,0.0,0.0,0.0,0.0,0.0,0.0,-4.6198,-4.5697,-4.5369,-4.3771,-4.329,-4.329,-4.329,-4.329,-4.329,-4.321,-4.2666,-4.204,-4.1419,-4.1311,-4.1311,-4.1311,-4.1311,-4.1311,-4.1311,-4.1311,-4.1311,-4.1311,-4.1311,-4.1311,-4.1311,-4.1311,-4.1311,-4.1311,-4.1311,-4.1311,-4.1311,-4.215,-4.2284,-4.1361,-4.3095,-4.3845,-4.3198,-4.3554,-4.39,-4.4169,-4.3593,-4.329,-4.329,-4.329,-4.329,-4.329,-4.329,-4.329,-4.329,-4.329,-4.329,-4.329,-4.329,-4.329,-4.329,-4.329,-4.329,-4.329,-4.323,-4.2851,-4.2231,-4.1572,-4.0876,-4.0232,0.0,0.0,-5.8118,-5.8118,0.0,0.0,-5.9079,-5.9129,-5.933,-5.9934,-6.0143,-6.0237,-6.0237,-6.0344,0.0,-6.0424,-6.0424,0.0,0.0,-5.8275,-5.6992,-5.67,-5.4766,-5.3568,-5.3264,-5.3093,-5.2868,-5.2659,-5.2624,-5.257,-5.2516,-5.2445,-5.2409,-5.2445,-5.2409,-5.2409,-5.2409,-5.2409,-5.2326,-5.2061,-5.0734,-5.0121,-4.9839,-4.8514,-4.8001,0.0,0.0,0.0,0.0,0.0,0.0,0.0,-4.6198,-4.5697,-4.5369,-4.3771,-4.329,-4.329,-4.329,-4.329,-4.313,-4.2456,-4.1763,-4.128,-4.1284,-4.1311,-4.1311,-4.1311,-4.1311,-4.1311,-4.1311,-4.1311,-4.1311,-4.1311,-4.1311,-4.1311,-4.1311,-4.1311,-4.1311,-4.1311,-4.1311,-4.1311,-4.1311,-4.1498,-4.1547,-4.1311,-4.2431,-4.2856,-4.2221,-4.3243,-4.363,-4.3299,-4.3297,-4.329,-4.329,-4.329,-4.329,-4.329,-4.329,-4.329,-4.329,-4.329,-4.329,-4.329,-4.329,-4.329,-4.329,-4.329,-4.329,-4.3245,-4.2776,-4.2201,-4.1504,-4.0846,-4.0187,-3.9568,0.0,0.0,0.0,0.0,0.0,0.0,0.0,0.0,-5.8563,-5.8926,-5.9281,-5.9462,-5.9462,-5.9806,0.0,0.0,-5.9998,-5.9838,-5.9495,-5.7727,-5.6243,-5.5226,-5.4008,-5.3314,-5.3179,-5.2903,-5.2694,-5.2589,-5.2535,-5.248,-5.2409,-5.2409,-5.2409,-5.2409,-5.2409,-5.2409,-5.2409,-5.2409,-5.2409,-5.2293,-5.08,-5.022,-5.0055,-4.8564,-4.8001,-4.8001,-4.8001,0.0,0.0,0.0,0.0,0.0,0.0,0.0,-4.5369,-4.3771,-4.329,-4.329,-4.329,-4.329,-4.303,-4.2033,-4.1667,-4.1478,-4.0952,-4.1102,-4.1311,-4.1311,-4.1311,-4.1311,-4.1311,-4.1311,-4.1311,-4.1311,-4.1311,-4.1311,-4.1311,-4.1311,-4.1311,-4.1311,-4.1311,-4.1311,-4.1311,-4.1311,-4.1311,-4.1311,-4.1782,-4.1909,-4.1483,-4.2477,-4.2912,-4.2513,-4.3012,-4.329,-4.329,-4.329,-4.329,-4.329,-4.329,-4.329,-4.329,-4.329,-4.329,-4.329,-4.329,-4.329,-4.329,-4.329,-4.329,-4.323,-4.2626,-4.1991,-4.1309,-4.0651,-3.9993,-3.9388,0.0,0.0,0.0,0.0,0.0,0.0,0.0,0.0,0.0,-5.7881,-5.8388,-5.8737,-5.8737,-5.9281,-5.9644,0.0,0.0,0.0,-5.86,-5.7155,-5.5481,-5.3518,-5.3298,-5.3179,-5.311,-5.2764,-5.2589,-5.257,-5.2445,-5.2409,-5.2409,-5.2409,-5.2409,-5.2409,-5.2409,-5.2409,-5.2409,-5.2409,-5.2409,-5.2293,-5.08,-5.022,-5.0055,-4.8564,-4.8001,-4.8001,-4.8001,-4.8001,-4.8001,-4.8001,0.0,0.0,0.0,0.0,-4.5405,-4.3927,-4.3409,-4.329,-4.329,-4.321,-4.2861,-4.1967,-4.1835,-4.1704,-4.0869,-4.0887,-4.1193,-4.1298,-4.1311,-4.1311,-4.1311,-4.1311,-4.1311,-4.1311,-4.1311,-4.1311,-4.1311,-4.1311,-4.1311,-4.1311,-4.1311,-4.1311,-4.1311,-4.1311,-4.1311,-4.1311,-4.1311,-4.1133,-4.077,-4.1722,-4.2131,-4.1771,-4.2739,-4.329,-4.329,-4.329,-4.329,-4.329,-4.329,-4.329,-4.329,-4.329,-4.329,-4.329,-4.329,-4.329,-4.329,-4.329,-4.329,-4.3215,-4.253,-4.1901,-4.128,-4.0516,-3.9888,-3.9388,0.0,0.0,0.0,0.0,0.0,0.0,0.0,0.0,0.0,0.0,-5.7991,-5.8046,-5.8046,-5.8118,-5.819,-5.819,-5.819,-5.7882,-5.7147,0.0,0.0,-5.3297,-5.3213,-5.3041,-5.2694,-5.2624,-5.2535,-5.2409,-5.2409,-5.2409,-5.2409,-5.2409,-5.2409,-5.2409,-5.2409,-5.2409,-5.2409,-5.2409,-5.2409,-5.2293,-5.08,-5.022,-5.0055,-4.8564,-4.8001,-4.8001,-4.8001,-4.8001,-4.8001,-4.8001,-4.8001,0.0,0.0,0.0,-4.5515,-4.4586,-4.3849,-4.329,-4.329,-4.2739,-4.2274,-4.2564,-4.1513,-4.0631,-4.143,-4.1046,-4.0684,-4.1206,-4.1311,-4.1311,-4.1311,-4.1311,-4.1311,-4.1311,-4.1311,-4.1311,-4.1311,-4.1311,-4.1311,-4.1311,-4.1311,-4.1311,-4.1311,-4.1311,-4.1311,-4.1311,-4.1311,-4.0864,-3.9843,-4.137,-4.1824,-4.0816,-4.2426,-4.329,-4.329,-4.329,-4.329,-4.329,-4.329,-4.329,-4.329,-4.329,-4.329,-4.329,-4.329,-4.329,-4.329,-4.329,-4.329,-4.317,-4.1983,-4.1497,-4.1235,-4.0008,-3.9499,-3.9388,0.0,0.0,0.0,0.0,0.0,0.0,0.0,0.0,0.0,0.0,0.0,-5.7551,-5.7551,-5.7551,-5.7551,-5.7551,-5.7291,-5.6674,-5.5649,-5.4834,-5.4073,-5.3246,-5.2972,-5.2764,-5.2589,-5.2535,-5.248,-5.2409,-5.2409,-5.2409,-5.2373,-5.1908,-5.1944,-5.2409,-5.2409,-5.2142,-5.1709,-5.2178,-5.2106,-5.1574,-5.0543,-5.0082,-4.9919,-4.8448,-4.7892,-4.7893,-4.7968,-4.8001,-4.8001,-4.8001,-4.8001,-4.7853,-4.7033,0.0,0.0,0.0,-4.3927,-4.329,-4.329,-4.3036,-4.2692,-4.2422,-4.1981,-4.1641,-4.165,-4.1388,-4.1239,-4.1506,-4.141,-4.1311,-4.1311,-4.1311,-4.1311,-4.1311,-4.1311,-4.1311,-4.1311,-4.1311,-4.1311,-4.1311,-4.1311,-4.1311,-4.1311,-4.1311,-4.1311,-4.1311,-4.1311,-4.0814,-3.9677,-4.0842,-4.1259,-4.0631,-4.1893,-4.2795,-4.3305,-4.329,-4.329,-4.329,-4.329,-4.329,-4.329,-4.329,-4.329,-4.329,-4.329,-4.329,-4.329,-4.329,-4.329,-4.317,-4.1893,-4.1422,-4.122,-3.9903,-3.9388,-3.9388,0.0,0.0,0.0,0.0,0.0,0.0,0.0,0.0,0.0,0.0,0.0,-5.7289,-5.7289,0.0,0.0,0.0,-5.6667,-5.5871,-5.4529,-5.4121,-5.3664,-5.3075,-5.2764,-5.2589,-5.257,-5.2445,-5.2409,-5.2409,-5.2227,-5.2021,-5.1809,-5.0961,-5.0888,-5.1503,-5.1647,-5.138,-5.0821,-5.1455,-5.138,-5.0735,-4.9973,-4.9684,-4.9523,-4.8055,-4.7525,-4.7535,-4.7667,-4.7704,-4.7737,-4.7935,-4.8001,-4.7902,-4.7287,-4.6585,0.0,0.0,0.0,-4.329,-4.329,-4.329,-4.313,-4.2496,-4.2463,-4.2478,-4.1937,-4.1768,-4.1824,-4.2125,-4.1761,-4.1462,-4.1657,-4.1448,-4.1311,-4.1311,-4.1311,-4.1311,-4.1311,-4.1311,-4.1311,-4.1311,-4.1311,-4.1311,-4.1311,-4.1311,-4.1311,-4.1311,-4.1167,-4.0657,-3.9664,-4.0348,-4.0627,-4.0244,-4.138,-4.2319,-4.2955,-4.321,-4.329,-4.329,-4.329,-4.329,-4.329,-4.329,-4.329,-4.329,-4.329,-4.329,-4.329,-4.329,-4.329,-4.317,-4.1893,-4.1422,-4.122,-3.9903,-3.9388,-3.9388,0.0,0.0,0.0,0.0,0.0,0.0,0.0,0.0,0.0,0.0,0.0,-5.7289,-5.7289,-5.7289,-5.7022,-5.6335,-5.6235,-5.5582,-5.4127,-5.3373,-5.2884,-5.2624,-5.2589,0.0,-5.2409,-5.2409,-5.2409,-5.2409,-5.1713,-5.098,-5.0197,-4.9478,-4.9073,-4.9011,-4.9638,-4.9923,-4.9844,-4.9923,-4.9923,-4.9781,-4.9085,-4.8762,-4.8604,-4.7283,-4.6777,-4.6755,-4.6827,-4.6846,-4.6965,-4.7737,-4.8001,-4.8001,-4.7968,-4.7371,-4.6604,0.0,0.0,0.0,-4.329,-4.329,-4.329,-4.325,-4.2648,-4.2138,-4.2634,-4.2095,-4.1861,-4.2964,-4.2442,-4.1984,-4.2587,-4.1954,-4.1311,-4.1311,-4.1311,-4.1311,-4.1311,-4.1311,-4.1311,-4.1311,-4.1311,-4.1311,-4.1311,-4.1311,-4.1311,-4.1311,-4.0788,-4.0213,-3.9638,-3.996,-3.9875,-3.9312,-4.1029,-4.2032,-4.2073,-4.2875,-4.329,-4.329,-4.329,-4.329,-4.329,-4.329,-4.329,-4.329,-4.329,-4.329,-4.329,-4.329,-4.329,-4.317,-4.1893,-4.1422,-4.122,-3.9903,-3.9388,-3.9388,0.0,0.0,0.0,0.0,0.0,0.0,0.0,0.0,0.0,0.0,0.0,0.0,0.0,-5.6495,-5.6091,-5.5825,-5.5075,-5.4217,-5.3355,-5.2914,-5.2659,-5.2589,-5.2535,-5.2445,-5.2409,-5.2409,-5.2409,-5.2409,-5.168,-5.0878,-5.0075,-4.8764,-4.8098,-4.8064,-4.8812,-4.9119,-4.9075,-4.9583,-4.9503,-4.9019,-4.8715,-4.8621,-4.8528,-4.7588,-4.7191,-4.7169,-4.6845,-4.7032,-4.7427,-4.7264,-4.7555,-4.8001,-4.8001,-4.7454,-4.6569,-4.5316,-4.451,-4.3966,-4.3433,-4.329,-4.329,-4.329,-4.309,-4.2879,-4.3061,-4.2698,-4.2482,-4.2911,-4.2882,-4.2856,-4.3078,-4.214,-4.1311,-4.1311,-4.1311,-4.1311,-4.1311,-4.1311,-4.1311,-4.1311,-4.1311,-4.1311,-4.1311,-4.1311,-4.1311,-4.1311,-4.0762,-4.0187,-3.9638,-3.9933,-4.0117,-4.01,-4.1338,-4.2278,-4.2835,-4.313,-4.329,-4.329,-4.329,-4.329,-4.329,-4.329,-4.329,-4.329,-4.329,-4.329,-4.329,-4.329,-4.329,-4.317,-4.1893,-4.1422,-4.122,-3.9903,-3.9388,-3.9388,0.0,-5.7101,-5.7063,-5.6911,0.0,-5.6834,-5.6719,-5.668,-5.668,-5.668,0.0,0.0,0.0,0.0,-5.5118,-5.487,-5.3874,-5.3104,-5.2779,-5.2605,-5.2535,-5.2535,-5.2445,-5.2409,-5.2409,-5.2409,-5.2293,-5.2045,-5.102,-4.9997,-4.896,-4.7372,-4.6703,-4.6855,-4.7389,-4.7818,-4.8214,-4.8708,-4.8641,-4.8172,-4.8172,-4.8172,-4.8111,-4.7372,-4.7277,-4.7459,-4.685,-4.6988,-4.7373,-4.6908,-4.6953,-4.7286,-4.7521,-4.705,-4.6218,-4.5206,-4.451,-4.3989,-4.3448,-4.329,-4.329,-4.329,-4.329,-4.329,-4.329,-4.3146,-4.3033,-4.3282,-4.3214,-4.3253,-4.3723,-4.2805,-4.1923,-4.1842,-4.1498,-4.1311,-4.1311,-4.1311,-4.1311,-4.1311,-4.1311,-4.1311,-4.1311,-4.1311,-4.1311,-4.1311,-4.0592,-3.9991,-3.9625,-3.9746,-4.0209,-4.1043,-4.1686,-4.2415,-4.329,-4.329,-4.329,-4.329,-4.329,-4.329,-4.329,-4.329,-4.329,-4.329,-4.329,-4.329,-4.329,-4.329,-4.329,-4.317,-4.1893,-4.1422,-4.122,-3.9903,-3.9388,-3.9388,-5.6719,-5.668,-5.668,-5.668,-5.668,-5.668,-5.668,-5.6663,-5.6663,-5.6663,0.0,0.0,0.0,0.0,0.0,-5.345,-5.2771,-5.2409,-5.2409,-5.2409,-5.2409,-5.2409,-5.2409,-5.2409,-5.2393,-5.2393,-5.2028,-5.1282,-4.972,-4.822,-4.6777,-4.5213,-4.4782,-4.5274,-4.5289,-4.6022,-4.7279,-4.7294,-4.7309,-4.7309,-4.7309,-4.7309,-4.7234,-4.6591,-4.6853,-4.7496,-4.6779,-4.6648,-4.6803,-4.6734,-4.626,-4.5857,-4.6569,-4.6324,-4.5733,-4.5697,-4.4586,-4.3329,0.0,0.0,0.0,-4.329,-4.329,-4.329,-4.329,-4.329,-4.3469,-4.4152,-4.3519,-4.3226,-4.4574,-4.4006,-4.3213,-4.2924,-4.2052,-4.1411,-4.1411,-4.1411,-4.1411,-4.1411,-4.1361,-4.1361,-4.1411,-4.1311,-4.1311,-4.1361,-4.0252,-3.9612,-3.9612,-3.9344,-4.0116,-4.199,-4.2032,-4.2456,-4.329,-4.329,-4.329,-4.329,-4.329,-4.329,-4.329,-4.329,-4.329,-4.329,-4.329,-4.329,-4.329,-4.329,-4.329,-4.314,-4.1878,-4.1407,-4.119,-3.9903,-3.9388,-3.9388,-5.6719,-5.668,-5.668,-5.668,-5.668,-5.668,-5.668,-5.6249,-5.5918,0.0,0.0,0.0,-5.4787,-5.4162,-5.3434,-5.2721,-5.2525,-5.2409,-5.2409,-5.2409,-5.2409,-5.2409,-5.2409,-5.2161,-5.163,-5.1614,-5.1231,-5.0502,-4.895,-4.7718,-4.6777,-4.5213,-4.4523,-4.4601,-4.508,-4.5783,-4.6636,-4.71,-4.7309,-4.7309,-4.7309,-4.7309,-4.7279,-4.71,-4.7197,-4.7289,-4.6584,-4.6783,-4.7221,-4.6733,-4.6497,-4.647,-4.673,-4.6673,-4.6394,-4.5877,-4.4962,-4.4028,-4.3448,0.0,0.0,0.0,0.0,0.0,-4.329,-4.329,-4.3349,-4.3529,-4.373,-4.4131,-4.5018,-4.4749,-4.449,-4.4892,-4.4111,-4.3464,-4.3464,-4.3464,-4.3464,-4.3464,-4.2854,-4.266,-4.3416,-4.2164,-4.1597,-4.2333,-4.0663,-3.9612,-3.9612,-3.9965,-4.1071,-4.2875,-4.2955,-4.3036,-4.329,-4.329,-4.329,-4.329,-4.329,-4.329,-4.329,-4.329,-4.329,-4.329,-4.329,-4.329,-4.329,-4.329,-4.3045,-4.259,-4.1752,-4.1085,-4.0561,-3.9723,-3.9388,-3.9388,-5.668,-5.668,-5.668,-5.668,-5.6448,-5.6249,-5.6249,-5.5636,-5.5135,0.0,0.0,0.0,-5.3649,-5.3235,-5.2821,-5.2442,-5.2409,-5.2409,-5.2409,-5.2409,-5.2277,-5.1962,-5.1962,-5.1614,-5.085,-5.0833,-5.0331,-4.9261,-4.8052,-4.6875,-4.5816,-4.4596,-4.4246,-4.4736,-4.5125,-4.5828,-4.6756,-4.7145,-4.7309,-4.7309,-4.7309,-4.7309,-4.7309,-4.7309,-4.7553,-4.7719,-4.6989,-4.7065,-4.7446,-4.6681,-4.6526,-4.6626,-4.6729,-4.6772,-4.6637,-4.592,-4.5147,-4.432,-4.3512,-4.329,-4.329,-4.329,0.0,0.0,-4.329,-4.329,-4.329,-4.329,-4.3604,-4.4107,-4.4766,-4.4934,-4.5227,-4.5888,-4.5768,-4.525,-4.4406,-4.4312,-4.4312,-4.4312,-4.3782,-4.364,-4.4266,-4.3239,-4.2625,-4.2792,-4.1199,-4.0141,-4.0003,-4.0751,-4.1838,-4.325,-4.329,-4.329,-4.329,-4.329,-4.329,-4.329,-4.329,-4.329,-4.329,-4.329,-4.329,-4.329,-4.329,-4.329,-4.329,-4.329,-4.294,-4.2336,-4.1677,-4.098,-4.0322,-3.9664,-3.9388,-3.9388,0.0,-5.6575,-5.6432,-5.6432,-5.5853,-5.5336,-5.5336,-5.48,-5.4394,0.0,-5.3748,-5.3069,-5.2456,-5.2409,-5.2409,-5.2409,-5.2409,-5.2409,-5.2409,-5.2409,-5.2127,-5.1464,-5.1431,-5.1032,-5.0237,-5.0101,-4.9311,-4.7783,-4.6959,-4.5816,-4.4472,-4.3744,-4.4062,-4.52,-4.5334,-4.6067,-4.7204,-4.7279,-4.7309,-4.7309,-4.7309,-4.7309,-4.7309,-4.7309,-4.7779,-4.8366,-4.7581,-4.7386,-4.7421,-4.6575,-4.6429,-4.6606,-4.6642,-4.6664,-4.6559,-4.5976,-4.5257,-4.4427,-4.3645,-4.3433,-4.3409,-4.3329,-4.329,0.0,-4.329,-4.329,-4.329,-4.329,-4.329,-4.3484,-4.4197,-4.4796,-4.5439,-4.6202,-4.6815,-4.6564,-4.4854,-4.4638,-4.4638,-4.4638,-4.4531,-4.4499,-4.4638,-4.4452,-4.3942,-4.3067,-4.1865,-4.1052,-4.0745,-4.1561,-4.2415,-4.325,-4.329,-4.329,-4.329,-4.329,-4.329,-4.329,-4.329,-4.329,-4.329,-4.329,-4.329,-4.329,-4.329,-4.329,-4.329,-4.3215,-4.2836,-4.2231,-4.1647,-4.0935,-4.0217,-3.9634,-3.9388,-3.9388,-5.668,-5.568,-5.4838,-5.4838,-5.4251,-5.3763,-5.3763,-5.367,-5.3596,-5.3596,-5.3019,-5.2539,-5.239,-5.2409,-5.2409,-5.2409,-5.2409,-5.2409,-5.2409,-5.2409,-5.2359,-5.221,-5.221,-5.1545,-5.0237,-4.9567,-4.8494,-4.7022,-4.563,-4.4785,-4.4488,-4.4212,-4.4257,-4.4556,-4.5633,-4.6277,-4.6546,-4.7085,-4.7309,-4.7309,-4.7309,-4.7309,-4.7309,-4.7309,-4.7424,-4.7538,-4.7337,-4.7349,-4.7267,-4.6544,-4.6747,-4.7225,-4.6715,-4.6523,-4.6555,-4.6501,-4.5937,-4.5141,-4.4435,-4.4259,-4.4105,-4.3472,-4.329,0.0,-4.329,-4.329,-4.329,-4.329,-4.329,-4.3484,-4.4197,-4.4421,-4.49,-4.6085,-4.6384,-4.6567,-4.6667,-4.6697,-4.6697,-4.6697,-4.5987,-4.5838,-4.6653,-4.525,-4.4333,-4.4414,-4.2549,-4.1491,-4.1729,-4.1908,-4.2415,-4.325,-4.329,-4.329,-4.329,-4.329,-4.329,-4.329,-4.329,-4.329,-4.329,-4.329,-4.329,-4.329,-4.329,-4.329,-4.3245,-4.2776,-4.2201,-4.1602,-4.1467,-4.0651,-3.9589,-3.9433,-3.9388,-3.9388,-5.4931,-5.3946,-5.3182,-5.3182,-5.2589,-5.2124,-5.2124,-5.1827,-5.1604,-5.1604,-5.1297,-5.1086,-5.1086,-5.1086,-5.1086,-5.1086,-5.1086,-5.1086,-5.1086,-5.1086,-5.0924,-5.0568,-5.0953,-5.0484,-4.8945,-4.8949,-4.818,-4.6655,-4.5896,-4.5292,-4.4889,-4.4835,-4.499,-4.5349,-4.598,-4.6516,-4.683,-4.7174,-4.7309,-4.7309,-4.7309,-4.7309,-4.7309,-4.7309,-4.7309,-4.7309,-4.7309,-4.7309,-4.7249,-4.692,-4.7056,-4.7369,-4.7078,-4.6985,-4.6967,-4.6687,-4.6585,-4.6353,-4.528,-4.5323,-4.5359,-4.4196,-4.3888,0.0,0.0,-4.3888,-4.3888,-4.3888,-4.3888,-4.3877,-4.3788,-4.4092,-4.4646,-4.5648,-4.6097,-4.6503,-4.7219,-4.7309,-4.7309,-4.7309,-4.6829,-4.6741,-4.7251,-4.6373,-4.5401,-4.44,-4.2984,-4.2095,-4.2034,-4.2415,-4.2835,-4.329,-4.329,-4.329,-4.329,-4.329,-4.329,-4.329,-4.329,-4.329,-4.329,-4.329,-4.329,-4.329,-4.329,-4.329,-4.3245,-4.2626,-4.2006,-4.1392,-4.1025,-4.0292,-3.9388,-3.9388,-3.9388,-3.9388,-5.2895,-5.2092,-5.1537,-5.1537,-5.0929,-5.0457,-5.0457,-5.0089,-4.9805,-4.9805,-4.9805,-4.9805,-4.9805,-4.9805,-4.9805,-4.9805,-4.9805,-4.9805,-4.9805,-4.9805,-4.9513,-4.8944,-4.9597,-4.9315,-4.7849,-4.8355,-4.7953,-4.6487,-4.6343,-4.5956,-4.5289,-4.5424,-4.5783,-4.6337,-4.6414,-4.68,-4.7309,-4.7309,-4.7309,-4.7309,-4.7309,-4.7309,-4.7309,-4.7309,-4.7309,-4.7309,-4.7309,-4.7309,-4.7309,-4.7309,-4.7309,-4.7334,-4.7437,-4.7461,-4.7364,-4.6822,-4.7146,-4.7401,-4.623,-4.6327,-4.6504,-4.5415,-4.4895,-4.468,0.0,0.0,0.0,-4.4641,-4.4641,-4.4462,-4.3783,-4.4152,-4.4721,-4.5379,-4.5963,-4.6503,-4.7219,-4.7309,-4.7309,-4.7309,-4.7309,-4.7309,-4.7309,-4.707,-4.6142,-4.4322,-4.3378,-4.2694,-4.2266,-4.2915,-4.329,-4.329,-4.329,-4.329,-4.329,-4.329,-4.329,-4.329,-4.329,-4.329,-4.329,-4.329,-4.329,-4.329,-4.329,-4.329,-4.323,-4.2491,-4.1901,-4.1309,-4.0651,-3.9993,-3.9388,-3.9388,-3.9388,-3.9388,-5.1865,-5.0913,-4.9846,-4.9846,-4.9305,-4.8847,-4.8847,-4.939,-4.9805,-4.9805,-4.9805,-4.9805,-4.9805,-4.9805,-4.9805,-4.9805,-4.9805,-4.9805,-4.9805,-4.9805,-4.9773,-4.9694,-4.9773,-4.9441,-4.8574,-4.8043,-4.7327,-4.6487,-4.5793,-4.5372,-4.5304,-4.5918,-4.6247,-4.6309,-4.6935,-4.7234,-4.7309,-4.7309,-4.7309,-4.7309,-4.7309,-4.7309,-4.7309,-4.7309,-4.7309,-4.7309,-4.7309,-4.7309,-4.7309,-4.7309,-4.7309,-4.7294,-4.7306,-4.7319,-4.734,-4.7354,-4.7465,-4.7497,-4.7455,-4.7013,-4.6702,-4.7356,-4.6335,-4.5419,-4.6208,0.0,-4.5229,-4.5229,0.0,-4.5188,-4.508,0.0,0.0,-4.6097,-4.6234,-4.6503,-4.7219,-4.7309,-4.7309,-4.7309,-4.7309,-4.7309,-4.7309,-4.6217,-4.5412,-4.5165,-4.3975,-4.3205,-4.317,-4.325,-4.329,-4.329,-4.329,-4.329,-4.329,-4.329,-4.329,-4.329,-4.329,-4.329,-4.329,-4.329,-4.329,-4.329,-4.329,-4.329,-4.32,-4.1998,-4.1482,-4.1309,-4.0651,-3.9993,-3.9388,-3.9388,-3.9388,-3.9388,-4.9625,-4.9014,-4.8258,-4.8258,-4.8031,-4.7864,-4.7864,-4.813,-4.8366,-4.8366,-4.8366,-4.8366,-4.8366,-4.8366,-4.8366,-4.8366,-4.8366,-4.8366,-4.8366,-4.8366,-4.8366,-4.8366,-4.8831,-4.8732,-4.7911,-4.8101,-4.7773,-4.6974,-4.6626,-4.6456,-4.6471,-4.6756,-4.689,-4.6905,-4.7174,-4.7309,-4.7309,-4.7309,-4.7309,-4.7309,-4.7309,-4.7309,-4.7309,-4.7309,-4.7309,-4.7309,-4.7309,-4.7309,-4.7309,-4.7309,-4.7309,-4.7309,-4.7309,-4.7309,-4.7292,-4.7377,-4.7718,-4.8045,-4.7656,-4.7692,-4.7661,-4.7193,-4.6905,-4.6772,-4.7161,-4.6967,-4.6693,-4.6693,0.0,0.0,0.0,0.0,0.0,0.0,-4.6279,-4.6503,-4.7219,-4.7309,-4.7309,-4.7309,-4.7309,-4.716,-4.677,-4.5858,-4.514,-4.4751,-4.3828,-4.329,-4.329,-4.329,-4.329,-4.329,-4.329,-4.329,-4.329,-4.329,-4.329,-4.329,-4.329,-4.329,-4.329,-4.329,-4.329,-4.329,-4.329,-4.329,-4.3185,-4.1923,-4.1422,-4.128,-4.0232,-3.9664,-3.9388,-3.9388,-3.9388,-3.9388,-4.7923,-4.7638,-4.7309,-4.7309,-4.7309,-4.7309,-4.7309,-4.7309,-4.7309,-4.7309,-4.7309,-4.7309,-4.7309,-4.7309,-4.7309,-4.7309,-4.7309,-4.7309,-4.7309,-4.7309,-4.7309,-4.7309,-4.7892,-4.7934,-4.7294,-4.7934,-4.7934,-4.7309,-4.7309,-4.7309,-4.7309,-4.7309,-4.7309,-4.7309,-4.7309,-4.7309,-4.7266,-4.7019,-4.7062,-4.7266,-4.7019,-4.7062,-4.7309,-4.7309,-4.7309,-4.7309,-4.7309,-4.7309,-4.7309,-4.7309,-4.7309,-4.7309,-4.7309,-4.7309,-4.7309,-4.7309,-4.7737,-4.819,-4.7866,-4.8063,-4.8149,-4.7548,-4.7503,-4.7723,-4.8173,-4.8096,-4.7996,-4.8227,-4.7801,0.0,0.0,0.0,-4.6286,-4.6544,0.0,-4.6756,-4.7234,-4.7309,-4.7309,-4.7309,-4.7145,-4.6845,-4.6324,-4.5544,-4.4825,-4.4347,-4.3663,-4.329,-4.329,-4.329,-4.329,-4.329,-4.329,-4.329,-4.329,-4.329,-4.329,-4.329,-4.329,-4.329,-4.329,-4.329,-4.329,-4.329,-4.329,-4.329,-4.3185,-4.1923,-4.1422,-4.1287,-3.9933,-3.9388,-3.9388,-3.9388,-3.9388,-3.9388,-4.7339,-4.7309,-4.7309,-4.7309,-4.7309,-4.7309,-4.7309,-4.7309,-4.7309,-4.7309,-4.7309,-4.7309,-4.7309,-4.7309,-4.7309,-4.7309,-4.7309,-4.7309,-4.7309,-4.7309,-4.7309,-4.7309,-4.7352,-4.7352,-4.7309,-4.7352,-4.7352,-4.7309,-4.7309,-4.7309,-4.7309,-4.7309,-4.7309,-4.7309,-4.7309,-4.7309,-4.7251,-4.6255,-4.6403,-4.7207,-4.6255,-4.6447,-4.7309,-4.7309,-4.7309,-4.7309,-4.7309,-4.7309,-4.7309,-4.7309,-4.7309,-4.7309,-4.7309,-4.7309,-4.7309,-4.7309,-4.7309,-4.7538,-4.835,-4.7988,-4.7734,-4.932,-4.8496,-4.7746,-4.9345,-4.9119,-4.881,-4.9584,-4.9702,-4.9425,-4.8661,-4.8496,-4.8236,-4.7379,-4.7279,0.0,0.0,-4.7309,-4.7309,-4.7309,-4.6741,-4.6309,-4.6279,-4.5125,-4.4332,-4.4317,-4.3663,-4.329,-4.329,-4.329,-4.329,-4.329,-4.329,-4.329,-4.329,-4.329,-4.329,-4.329,-4.329,-4.329,-4.329,-4.329,-4.329,-4.329,-4.329,-4.329,-4.3185,-4.1923,-4.1422,-4.1287,-3.9933,-3.9388,-3.9388,-3.9388,-3.9388,-3.9388,-4.7399,-4.7309,-4.7309,-4.7309,-4.7309,-4.7309,-4.7309,-4.7309,-4.7309,-4.7309,-4.7309,-4.7309,-4.7309,-4.7309,-4.7309,-4.7309,-4.7309,-4.7309,-4.7309,-4.7309,-4.7309,-4.7309,-4.7309,-4.7309,-4.7309,-4.7309,-4.7309,-4.7309,-4.7309,-4.7309,-4.7309,-4.7309,-4.7309,-4.7309,-4.7309,-4.6931,-4.6299,-4.5928,-4.5598,-4.5281,-4.4961,-4.5417,-4.6403,-4.7062,-4.7309,-4.7309,-4.7309,-4.7309,-4.7309,-4.7309,-4.7309,-4.7309,-4.7309,-4.7309,-4.7309,-4.7309,-4.7309,-4.7337,-4.7666,-4.7538,-4.7424,-4.8003,-4.8172,-4.8282,-4.8887,-4.8805,-4.8682,-4.8953,-4.8994,-4.8764,-4.7892,-4.8214,-4.8282,-4.7424,-4.7309,-4.7309,0.0,-4.7309,-4.7145,-4.6711,-4.6456,-4.6142,-4.5678,-4.484,-4.4137,-4.3663,-4.3424,-4.329,-4.329,-4.329,-4.329,-4.329,-4.329,-4.329,-4.329,-4.329,-4.329,-4.329,-4.329,-4.329,-4.329,-4.329,-4.329,-4.329,-4.329,-4.329,-4.3185,-4.1923,-4.1422,-4.1287,-3.9933,-3.9388,-3.9388,-3.9388,-3.9388,-3.9388,-4.7743,-4.7459,-4.7309,-4.7309,-4.7309,-4.7309,-4.7309,-4.7309,-4.7309,-4.7309,-4.7309,-4.7309,-4.7309,-4.7309,-4.7309,-4.7309,-4.7309,-4.7309,-4.7309,-4.7309,-4.7309,-4.7309,-4.7309,-4.7309,-4.7309,-4.7309,-4.7309,-4.7309,-4.7309,-4.7309,-4.7309,-4.7309,-4.7309,-4.7309,-4.7309,-4.6726,-4.5779,-4.5417,-4.49,-4.4312,-4.4312,-4.4684,-4.5326,-4.5987,-4.6697,-4.7309,-4.7309,-4.7309,-4.7309,-4.7309,-4.7309,-4.7309,-4.7309,-4.7309,-4.7309,-4.7309,-4.7309,-4.7309,-4.7309,-4.7309,-4.7309,-4.7309,-4.7694,-4.8214,-4.8532,-4.8615,-4.8682,-4.8953,-4.9035,-4.8764,-4.7934,-4.8214,-4.8282,-4.7424,-4.7309,-4.7309,0.0,-4.7309,-4.7145,-4.6726,-4.6247,-4.5693,-4.5005,-4.4347,-4.3753,-4.3319,-4.329,-4.329,-4.329,-4.329,-4.329,-4.329,-4.329,-4.329,-4.329,-4.329,-4.329,-4.329,-4.329,-4.329,-4.329,-4.329,-4.329,-4.329,-4.329,-4.329,-4.3185,-4.1923,-4.1422,-4.1287,-3.9933,-3.9388,-3.9388,-3.9388,-3.9388,-3.9388,-4.8297,-4.7758,-4.7309,-4.7309,-4.7309,-4.7309,-4.7309,-4.7309,-4.7309,-4.7309,-4.7309,-4.7309,-4.7309,-4.7309,-4.7309,-4.7309,-4.7309,-4.7309,-4.7309,-4.7309,-4.7309,-4.7309,-4.7309,-4.7309,-4.7309,-4.7309,-4.7309,-4.7309,-4.7309,-4.7309,-4.7309,-4.7309,-4.7309,-4.7309,-4.7309,-4.6726,-4.5644,-4.473,-4.4266,-4.4172,-4.4172,-4.4172,-4.4219,-4.4219,-4.5432,-4.7164,-4.7207,-4.7207,-4.7207,-4.7266,-4.7309,-4.7309,-4.7309,-4.7309,-4.7309,-4.7309,-4.7309,-4.7309,-4.7309,-4.7309,-4.7309,-4.7309,-4.7309,-4.751,-4.8339,-4.8532,-4.8764,-4.9543,-4.9686,-4.9487,-4.8682,-4.8573,-4.8282,-4.7424,-4.7309,-4.7309,-4.7309,-4.7309,-4.7294,-4.7249,-4.6127,-4.5095,-4.4421,-4.3693,-4.329,-4.329,-4.329,-4.329,-4.329,-4.329,-4.329,-4.329,-4.329,-4.329,-4.329,-4.329,-4.329,-4.329,-4.329,-4.329,-4.329,-4.329,-4.329,-4.329,-4.329,-4.329,-4.3185,-4.1923,-4.1422,-4.1287,-3.9933,-3.9388,-3.9388,-3.9388,-3.9388,-3.9388,-4.8386,-4.7758,-4.7309,-4.7309,-4.7309,-4.7309,-4.7309,-4.7309,-4.7309,-4.7309,-4.7309,-4.7309,-4.7309,-4.7309,-4.7309,-4.7309,-4.7309,-4.7309,-4.7309,-4.7309,-4.7309,-4.7309,-4.7309,-4.7309,-4.7309,-4.7309,-4.7309,-4.7309,-4.7309,-4.7309,-4.7309,-4.7309,-4.7309,-4.7309,-4.7309,-4.6314,-4.4684,-4.4406,-4.3416,-4.2065,-4.2065,-4.2528,-4.3163,-4.3163,-4.397,-4.5144,-4.5928,-4.6211,-4.6299,-4.7062,-4.7309,-4.7309,-4.7309,-4.7309,-4.7309,-4.7309,-4.7309,-4.7309,-4.7309,-4.7309,-4.7309,-4.7309,-4.7309,-4.7337,-4.7581,-4.7624,-4.7694,-4.7892,-4.8449,-4.8641,-4.7779,-4.8172,-4.8282,-4.7424,-4.7309,-4.7309,-4.7309,-4.7309,-4.713,-4.6636,-4.6277,-4.5798,-4.511,-4.4003,-4.329,-4.329,-4.329,-4.329,-4.329,-4.329,-4.329,-4.329,-4.329,-4.329,-4.329,-4.329,-4.329,-4.329,-4.329,-4.329,-4.329,-4.329,-4.329,-4.329,-4.329,-4.329,-4.3185,-4.1923,-4.1422,-4.1287,-3.9933,-3.9388,-3.9388,-3.9388,-3.9388,-3.9388,-4.9209,-4.8386,-4.7743,-4.7743,-4.7489,-4.7309,-4.7309,-4.7549,-4.7743,-4.7743,-4.7743,-4.7743,-4.7743,-4.7474,-4.7309,-4.7309,-4.7309,-4.7309,-4.7309,-4.7309,-4.7309,-4.7309,-4.7309,-4.7309,-4.7309,-4.7309,-4.7309,-4.7309,-4.7309,-4.7309,-4.7309,-4.7309,-4.7309,-4.7309,-4.7309,-4.6417,-4.49,-4.4017,-4.2985,-4.1918,-4.1498,-4.1634,0.0,-4.215,-4.2479,-4.3143,-4.4158,-4.5024,-4.5869,-4.6447,-4.6931,-4.7309,-4.7309,-4.7309,-4.7309,-4.7309,-4.7309,-4.7309,-4.7309,-4.7309,-4.7309,-4.7309,-4.7309,-4.7309,-4.7309,-4.7309,-4.7309,-4.7309,-4.7694,-4.7892,-4.7381,-4.7694,-4.7849,-4.7381,-4.7309,-4.7309,-4.7309,-4.7309,-4.7174,-4.68,-4.6501,-4.6052,-4.5364,-4.4362,-4.3604,-4.3319,-4.329,-4.329,-4.329,-4.329,-4.329,-4.329,-4.329,-4.329,-4.329,-4.329,-4.329,-4.329,-4.329,-4.329,-4.329,-4.329,-4.329,-4.329,-4.329,-4.329,-4.3215,-4.2222,-4.1677,-4.1287,-3.9933,-3.9388,-3.9388,-3.9388,-3.9388,-3.9388,-5.0091,-4.9194,-4.8416,-4.8416,-4.7878,-4.7429,-4.7429,-4.7848,-4.8162,-4.8162,-4.8162,-4.8162,-4.8162,-4.7653,-4.7309,-4.7309,-4.7309,-4.7309,-4.7309,-4.7309,-4.7309,-4.7309,-4.7309,-4.7309,-4.7309,-4.7309,-4.7309,-4.7309,-4.7309,-4.7309,-4.7309,-4.7309,-4.7309,-4.7309,-4.7309,-4.6682,-4.5463,-4.3592,-4.2744,-4.2514,-4.1634,-4.1311,-4.1311,-4.1311,-4.1311,-4.1411,-4.2284,-4.3815,-4.5417,-4.5553,-4.6255,-4.7121,-4.7121,-4.7207,-4.7309,-4.7309,-4.7309,-4.7309,-4.7309,-4.7309,-4.7309,-4.7309,-4.7309,-4.7309,-4.7309,-4.7309,-4.7309,-4.7309,-4.7309,-4.7309,-4.7309,-4.7309,-4.7309,-4.7309,-4.7309,-4.7309,-4.7309,-4.7309,-4.7309,-4.7309,-4.68,0.0,-4.5499,-4.4751,-4.4007,-4.3349,-4.329,-4.329,-4.329,-4.329,-4.329,-4.329,-4.329,-4.329,-4.329,-4.329,-4.329,-4.329,-4.329,-4.329,-4.329,-4.329,-4.329,-4.329,-4.329,-4.329,-4.3245,-4.2626,-4.1961,-4.113,-3.9993,-3.9499,-3.9388,-3.9388,-3.9388,-3.9388,-4.9553,-4.9299,-4.9134,-4.9134,-4.8551,-4.8117,-4.8117,-4.7758,-4.7474,-4.7474,-4.7474,-4.7474,-4.7474,-4.7369,-4.7309,-4.7309,-4.7309,-4.7309,-4.7309,-4.7309,-4.7309,-4.7309,-4.7309,-4.7309,-4.7309,-4.7309,-4.7309,-4.7309,-4.7309,-4.7309,-4.7309,-4.7309,-4.7309,-4.7309,-4.7309,-4.627,-4.4499,-4.3307,-4.2333,-4.1547,-4.1361,-4.1311,-4.1311,-4.1311,-4.1311,-4.1311,-4.1498,-4.2333,-4.345,-4.4298,-4.5235,-4.6062,-4.6062,-4.6638,-4.7309,-4.7309,-4.7309,-4.7309,-4.7309,-4.7309,-4.7309,-4.7309,-4.7309,-4.7309,-4.7309,-4.7309,-4.7309,-4.7309,-4.7309,-4.7309,-4.7309,-4.7309,-4.7309,-4.7309,-4.7309,-4.7309,-4.7309,-4.7309,-4.7309,-4.7309,-4.7204,-4.6875,-4.6217,-4.5035,-4.4007,-4.3349,-4.329,-4.329,-4.329,-4.329,-4.329,-4.329,-4.329,-4.329,-4.329,-4.329,-4.329,-4.329,-4.329,-4.329,-4.329,-4.329,-4.329,-4.329,-4.329,-4.329,-4.3245,-4.2626,-4.1692,-4.0546,-4.0322,-3.9903,-3.9388,-3.9388,-3.9388,-3.9388,-4.9898,-4.9778,-4.9778,-4.9778,-4.894,-4.8401,-4.879,-4.7511,-4.6845,-4.7714,-4.7348,-4.7259,-4.7774,-4.6564,-4.6181,-4.7207,-4.6829,-4.6726,-4.7266,-4.7309,-4.7309,-4.7309,-4.7309,-4.7309,-4.7309,-4.7309,-4.7309,-4.7309,-4.7309,-4.7309,-4.7309,-4.7309,-4.7309,-4.7266,-4.6741,-4.5973,-4.4992,-4.345,-4.2514,-4.2052,-4.1498,-4.1311,-4.1311,-4.1311,-4.1311,-4.1311,-4.1311,-4.1597,-4.2199,-4.3177,-4.4205,-4.5084,-4.5644,-4.6107,-4.6638,-4.7164,-4.7309,-4.7309,-4.7309,-4.7309,-4.7309,-4.7309,-4.7309,-4.7309,-4.7309,-4.7309,-4.7309,-4.7309,-4.7309,-4.7309,-4.7309,-4.7309,-4.7309,-4.7309,-4.7309,-4.7309,-4.7309,-4.7309,-4.7309,-4.7309,-4.7309,-4.7055,-4.6396,-4.5409,-4.4541,-4.3858,-4.3484,-4.329,-4.329,-4.329,-4.329,-4.329,-4.329,-4.329,-4.329,-4.329,-4.329,-4.329,-4.329,-4.329,-4.329,-4.329,-4.329,-4.329,-4.329,-4.329,-4.3245,-4.2626,-4.2036,-4.1422,-4.104,-4.0502,-3.9933,-3.9933,-3.9709,-3.9388,-5.051,-5.0405,-5.036,-5.0211,-4.9269,-4.8626,-4.9045,-4.7242,-4.6297,-4.7585,-4.6896,-4.6563,-4.7361,-4.5536,-4.4915,-4.6506,-4.6107,-4.6062,-4.6594,-4.6873,-4.6975,-4.6975,-4.6975,-4.7062,-4.7309,-4.7309,-4.7309,-4.7309,-4.7309,-4.7309,-4.7309,-4.7309,-4.7207,-4.6975,-4.6166,-4.5553,-4.5084,-4.3497,-4.2695,-4.2417,-4.1634,-4.1311,-4.1311,-4.1311,-4.1311,-4.1311,-4.1311,-4.1311,-4.1411,-4.2186,-4.3129,-4.4111,-4.49,-4.5312,-4.5689,-4.6697,-4.6975,-4.7019,-4.7251,-4.7309,-4.7309,-4.7309,-4.7309,-4.7309,-4.7309,-4.7309,-4.7309,-4.7309,-4.7309,-4.7309,-4.7309,-4.7309,-4.7309,-4.7309,-4.7309,-4.7309,-4.7309,-4.7309,-4.7309,-4.7309,-4.7309,-4.71,-4.6576,-4.5783,-4.508,-4.4556,-4.3738,-4.329,-4.329,-4.329,-4.329,-4.329,-4.329,-4.329,-4.329,-4.329,-4.329,-4.329,-4.329,-4.329,-4.329,-4.329,-4.329,-4.329,-4.329,-4.329,-4.3245,-4.2776,-4.253,-4.2351,-4.1826,-4.119,-4.0606,-4.0606,-4.0277,-3.9843,-5.1139,-5.1124,-5.0883,-5.03,-4.9643,-4.9045,-4.8461,-4.6903,-4.5853,-4.6001,-4.5138,-4.4583,-4.4676,-4.4434,-4.4359,-4.4545,-4.5326,-4.5463,-4.4638,-4.5417,-4.5928,-4.5928,-4.5928,-4.6358,-4.7266,-4.7309,-4.7309,-4.7309,-4.7309,-4.7309,-4.7309,-4.7309,-4.6829,-4.5928,-4.5824,-4.4808,-4.3067,-4.2889,-4.2284,-4.1461,-4.1361,-4.1311,-4.1311,-4.1311,-4.1311,-4.1311,-4.1311,-4.1311,-4.1311,-4.1411,-4.2101,-4.2985,-4.3067,-4.3687,-4.4638,-4.5644,-4.5928,-4.6166,-4.7062,-4.7309,-4.7309,-4.7309,-4.7309,-4.7309,-4.7309,-4.7309,-4.7309,-4.7309,-4.7309,-4.7309,-4.7309,-4.7309,-4.7309,-4.7309,-4.7309,-4.7309,-4.7309,-4.7309,-4.7309,-4.7309,-4.7309,-4.7279,-4.7219,-4.6052,-4.5274,-4.5214,-4.4007,-4.329,-4.329,-4.329,-4.329,-4.329,-4.329,-4.329,-4.329,-4.329,-4.329,-4.329,-4.329,-4.329,-4.329,-4.329,-4.329,-4.329,-4.329,-4.329,-4.329,-4.323,-4.2895,-4.2396,-4.2336,-4.1916,-4.1294,-4.1294,-4.1287,-4.119,-5.1214,-5.1214,-5.1005,-5.03,-4.9703,-4.885,-4.7581,-4.5987,-4.467,-4.4097,-4.364,-4.364,-4.4219,-4.3239,-4.2999,-4.4172,-4.4111,-4.4064,-4.4312,-4.4684,-4.49,-4.49,-4.49,-4.5372,-4.6403,-4.6403,-4.6682,-4.7309,-4.7309,-4.7309,-4.7309,-4.6682,-4.5838,-4.4854,-4.4284,-4.3531,-4.2744,-4.215,-4.1683,-4.1311,-4.1311,-4.1311,-4.1311,-4.1311,-4.1311,-4.1311,-4.1311,-4.1311,-4.1311,-4.1311,-4.1547,-4.2016,-4.2598,-4.3081,-4.3592,-4.4624,-4.5326,-4.5869,-4.6299,-4.6829,-4.7309,-4.7309,-4.7309,-4.7309,-4.7309,-4.7309,-4.7309,-4.7309,-4.7309,-4.7309,-4.7309,-4.7309,-4.7309,-4.7309,-4.7309,-4.7309,-4.7309,-4.7309,-4.7309,-4.7309,-4.7309,-4.7309,-4.7309,-4.6456,-4.5738,-4.5334,-4.4077,-4.329,-4.329,-4.329,-4.329,-4.329,-4.329,-4.329,-4.329,-4.329,-4.329,-4.329,-4.329,-4.329,-4.329,-4.329,-4.329,-4.329,-4.329,-4.329,-4.329,-4.329,-4.314,-4.294,-4.294,-4.2551,-4.2006,-4.2006,-4.1767,-4.1422,-5.1214,-5.1065,-5.0674,-5.0062,-4.9177,-4.8086,-4.6729,-4.5014,-4.3592,-4.2889,-4.2563,-4.2612,-4.3321,-4.2164,-4.1881,-4.3286,-4.3033,-4.2985,-4.3368,-4.3701,-4.3876,-4.3876,-4.3876,-4.4345,-4.5326,-4.5372,-4.5703,-4.6417,-4.6417,-4.6417,-4.6417,-4.5703,-4.4808,-4.3829,-4.3129,-4.266,-4.2333,-4.1597,-4.1311,-4.1311,-4.1311,-4.1311,-4.1311,-4.1311,-4.1311,-4.1311,-4.1311,-4.1311,-4.1311,-4.1311,-4.1311,-4.1411,-4.215,-4.2382,-4.2563,-4.3545,-4.4331,-4.4992,-4.5267,-4.6077,-4.6873,-4.6873,-4.7062,-4.7309,-4.7309,-4.7309,-4.7309,-4.7309,-4.7309,-4.7309,-4.7309,-4.7309,-4.7309,-4.7309,-4.7309,-4.7309,-4.7309,-4.7309,-4.7309,-4.7309,-4.7309,-4.7309,-4.7309,-4.6711,-4.6112,-4.5633,-4.4362,-4.3499,-4.3305,-4.329,-4.329,-4.329,-4.329,-4.329,-4.329,-4.329,-4.329,-4.329,-4.329,-4.329,-4.329,-4.329,-4.329,-4.329,-4.329,-4.329,-4.329,-4.329,-4.329,-4.329,-4.329,-4.3045,-4.2641,-4.2641,-4.2357,-4.1953,-5.1214,-5.0644,-5.0001,-4.9434,-4.7934,-4.6608,-4.594,-4.4111,-4.2792,-4.2792,-4.1904,-4.1311,-4.1311,-4.1311,-4.1311,-4.1311,-4.2235,-4.2368,-4.1411,-4.2284,-4.284,-4.284,-4.284,-4.3307,-4.4312,-4.4312,-4.4298,-4.4359,-4.4359,-4.4359,-4.4359,-4.4298,-4.3782,-4.284,-4.2792,-4.2235,-4.1311,-4.1311,-4.1311,-4.1311,-4.1311,-4.1311,-4.1311,-4.1311,-4.1311,-4.1311,-4.1311,-4.1311,-4.1311,-4.1311,-4.1311,-4.1311,-4.1311,-4.1311,-4.1498,-4.2514,-4.284,-4.3033,-4.4078,-4.5038,-4.5824,-4.5824,-4.6594,-4.7309,-4.7309,-4.7309,-4.7309,-4.7309,-4.7309,-4.7309,-4.7309,-4.7309,-4.7309,-4.7309,-4.7309,-4.7309,-4.7309,-4.7309,-4.7309,-4.7309,-4.7309,-4.7309,-4.7309,-4.6711,-4.6279,-4.6264,-4.5065,-4.4018,-4.3334,-4.329,-4.329,-4.329,-4.329,-4.329,-4.329,-4.329,-4.329,-4.329,-4.329,-4.329,-4.329,-4.329,-4.329,-4.329,-4.329,-4.329,-4.329,-4.329,-4.329,-4.329,-4.329,-4.329,-4.329,-4.329,-4.3275,-4.3275,-5.0599,-5.0345,-4.9654,-4.7887,-4.7155,-4.612,-4.4054,-4.3211,-4.2563,-4.1868,-4.1498,-4.1311,-4.1311,-4.1311,-4.1311,-4.1311,-4.1597,-4.1634,-4.1311,-4.1597,-4.1782,-4.1782,-4.1782,-4.2248,-4.3273,-4.3259,-4.3592,-4.4312,-4.4312,-4.3923,-4.3259,-4.3259,-4.2757,-4.1782,-4.1782,-4.1597,-4.1311,-4.1311,-4.1311,-4.1311,-4.1311,-4.1311,-4.1311,-4.1311,-4.1311,-4.1311,-4.1311,-4.1311,-4.1311,-4.1311,-4.1311,-4.1311,-4.1311,-4.1311,-4.1361,-4.1683,-4.2284,-4.2889,-4.3163,-4.4017,-4.4961,-4.5644,-4.6018,-4.6447,-4.7164,-4.7309,-4.7309,-4.7309,-4.7309,-4.7309,-4.7309,-4.7309,-4.7309,-4.7309,-4.7309,-4.7309,-4.7309,-4.7309,-4.7309,-4.7309,-4.7309,-4.7309,-4.7309,-4.7115,-4.68,-4.6309,-4.5484,-4.4691,-4.4032,-4.3544,-4.329,-4.329,-4.329,-4.329,-4.329,-4.329,-4.329,-4.329,-4.329,-4.329,-4.329,-4.329,-4.329,-4.329,-4.329,-4.329,-4.329,-4.329,-4.329,-4.329,-4.329,-4.329,-4.329,-4.329,-4.329,-4.329,-5.0315,-5.0001,-4.919,-4.7153,-4.6287,-4.5184,-4.3136,-4.2466,-4.2003,-4.1361,-4.1311,-4.1311,-4.1311,-4.1311,-4.1311,-4.1311,-4.1311,-4.1311,-4.1311,-4.1311,-4.1311,-4.1311,-4.1311,-4.1597,-4.2235,-4.2235,-4.2514,-4.3191,-4.3191,-4.2854,-4.2235,-4.2235,-4.1918,-4.1311,-4.1311,-4.1311,-4.1311,-4.1311,-4.1311,-4.1311,-4.1311,-4.1311,-4.1311,-4.1311,-4.1311,-4.1311,-4.1311,-4.1311,-4.1311,-4.1311,-4.1311,-4.1311,-4.1311,-4.1311,-4.1311,-4.1311,-4.1733,-4.2235,-4.2235,-4.2985,-4.3876,-4.4517,-4.5221,-4.6062,-4.7062,-4.7309,-4.7309,-4.7309,-4.7309,-4.7309,-4.7309,-4.7309,-4.7309,-4.7309,-4.7309,-4.7309,-4.7309,-4.7309,-4.7309,-4.7309,-4.7309,-4.7309,-4.7309,-4.7309,-4.713,-4.6726,-4.6052,-4.5379,-4.4721,-4.3783,-4.329,-4.329,-4.329,-4.329,-4.329,-4.329,-4.329,-4.329,-4.329,-4.329,-4.329,-4.329,-4.329,-4.329,-4.329,-4.329,-4.329,-4.329,-4.329,-4.329,-4.329,-4.329,-4.329,-4.329,-4.329,-4.329,-5.0255,-4.9643,-4.8655,-4.6916,-4.536,-4.3923,-4.284,-4.1918,-4.1311,-4.1311,-4.1311,-4.1311,-4.1311,-4.1311,-4.1311,-4.1311,-4.1311,-4.1311,-4.1311,-4.1311,-4.1311,-4.1311,-4.1311,-4.1311,-4.1311,-4.1311,-4.1311,-4.1311,-4.1311,-4.1311,-4.1311,-4.1311,-4.1311,-4.1311,-4.1311,-4.1311,-4.1311,-4.1311,-4.1311,-4.1311,-4.1311,-4.1311,-4.1311,-4.1311,-4.1311,-4.1311,-4.1311,-4.1311,-4.1311,-4.1311,-4.1311,-4.1311,-4.1311,-4.1311,-4.1311,-4.1311,-4.1311,-4.1311,-4.1311,-4.1954,-4.2695,-4.2792,-4.4331,-4.6062,-4.6975,-4.7251,-4.7309,-4.7309,-4.7309,-4.7309,-4.7309,-4.7309,-4.7309,-4.7309,-4.7309,-4.7309,-4.7309,-4.7309,-4.7309,-4.7309,-4.7309,-4.7309,-4.7309,-4.7309,-4.7309,-4.7309,-4.6696,-4.6037,-4.5394,-4.4127,-4.3394,-4.329,-4.329,-4.329,-4.329,-4.329,-4.329,-4.329,-4.325,-4.325,-4.329,-4.329,-4.329,-4.329,-4.329,-4.329,-4.329,-4.329,-4.329,-4.329,-4.329,-4.329,-4.329,-4.329,-4.329,-4.329,-4.9628,-4.897,-4.7777,-4.5303,-4.4551,-4.3701,-4.1918,-4.1448,-4.1311,-4.1311,-4.1311,-4.1311,-4.1311,-4.1311,-4.1311,-4.1311,-4.1311,-4.1311,-4.1311,-4.1311,-4.1311,-4.1311,-4.1311,-4.1311,-4.1311,-4.1311,-4.1311,-4.1311,-4.1311,-4.1311,-4.1311,-4.1311,-4.1311,-4.1311,-4.1311,-4.1311,-4.1311,-4.1311,-4.1311,-4.1311,-4.1311,-4.1311,-4.1311,-4.1311,-4.1311,-4.1311,-4.1311,-4.1311,-4.1311,-4.1311,-4.1311,-4.1311,-4.1311,-4.1311,-4.1311,-4.1311,-4.1311,-4.1311,-4.1311,-4.1448,-4.1819,-4.2598,-4.4331,-4.5869,-4.6107,-4.6741,-4.7309,-4.7309,-4.7309,-4.7309,-4.7309,-4.7309,-4.7309,-4.7309,-4.7309,-4.7309,-4.7309,-4.7309,-4.7309,-4.7309,-4.7309,-4.7309,-4.7309,-4.7309,-4.7309,-4.7309,-4.6696,-4.6204,-4.6082,-4.5289,-4.4377,-4.3319,-4.329,-4.329,-4.329,-4.329,-4.329,-4.329,-4.2618,-4.2659,-4.329,-4.329,-4.329,-4.329,-4.329,-4.329,-4.329,-4.329,-4.329,-4.329,-4.329,-4.329,-4.329,-4.329,-4.329,-4.329,-4.9,-4.8536,-4.7451,-4.4797,-4.4312,-4.3606,-4.1597,-4.1311,-4.1311,-4.1311,-4.1311,-4.1311,-4.1311,-4.1311,-4.1311,-4.1311,-4.1311,-4.1311,-4.1311,-4.1311,-4.1311,-4.1311,-4.1311,-4.1311,-4.1311,-4.1311,-4.1311,-4.1311,-4.1311,-4.1311,-4.1311,-4.1311,-4.1311,-4.1311,-4.1311,-4.1311,-4.1311,-4.1311,-4.1311,-4.1311,-4.1311,-4.1311,-4.1311,-4.1311,-4.1311,-4.1311,-4.1311,-4.1311,-4.1311,-4.1311,-4.1311,-4.1311,-4.1311,-4.1311,-4.1311,-4.1311,-4.1311,-4.1311,-4.1311,-4.1311,-4.1547,-4.2563,-4.3626,-4.4563,-4.4992,-4.5883,-4.6594,-4.6594,-4.6975,-4.7309,-4.7309,-4.7309,-4.7309,-4.7309,-4.7309,-4.7309,-4.7309,-4.7309,-4.7309,-4.7309,-4.7309,-4.7309,-4.7309,-4.7309,-4.7309,-4.7309,-4.698,-4.6636,-4.6337,-4.5509,-4.4652,-4.3783,-4.3738,-4.3604,-4.329,-4.329,-4.309,-4.2699,-4.2618,-4.2618,-4.2714,-4.313,-4.329,-4.329,-4.329,-4.329,-4.329,-4.329,-4.329,-4.329,-4.329,-4.329,-4.329,-4.329,-4.329,-4.329,-4.8506,-4.8207,-4.7392,-4.4954,-4.4545,-4.3843,-4.1819,-4.1547,-4.1448,-4.1311,-4.1311,-4.1311,-4.1311,-4.1311,-4.1311,-4.1311,-4.1311,-4.1311,-4.1311,-4.1311,-4.1311,-4.1311,-4.1311,-4.1311,-4.1311,-4.1311,-4.1311,-4.1311,-4.1311,-4.1311,-4.1311,-4.1311,-4.1311,-4.1311,-4.1311,-4.1311,-4.1311,-4.1311,-4.1311,-4.1311,-4.1311,-4.1311,-4.1311,-4.1311,-4.1311,-4.1311,-4.1311,-4.1311,-4.1311,-4.1311,-4.1311,-4.1311,-4.1311,-4.1311,-4.1311,-4.1311,-4.1311,-4.1311,-4.1311,-4.1311,-4.1498,-4.2382,-4.2695,-4.3033,-4.3876,-4.4854,-4.5553,-4.5553,-4.6255,-4.6887,-4.7077,-4.6931,-4.6931,-4.7251,-4.7164,-4.7062,-4.7062,-4.7207,-4.7251,-4.7062,-4.7207,-4.7309,-4.7309,-4.7309,-4.7309,-4.7309,-4.7309,-4.7055,-4.6459,-4.5623,-4.4935,-4.4385,-4.4162,-4.3826,-4.3305,-4.317,-4.2795,-4.2196,-4.282,-4.2795,-4.2196,-4.2955,-4.329,-4.329,-4.329,-4.329,-4.329,-4.329,-4.329,-4.329,-4.329,-4.329,-4.329,-4.329,-4.329,-4.329,-4.8327,-4.7833,-4.705,-4.5808,-4.5553,-4.49,-4.2889,-4.2563,-4.2284,-4.1411,-4.1311,-4.1311,-4.1311,-4.1311,-4.1311,-4.1311,-4.1311,-4.1311,-4.1311,-4.1311,-4.1311,-4.1311,-4.1311,-4.1311,-4.1311,-4.1311,-4.1311,-4.1311,-4.1311,-4.1311,-4.1311,-4.1311,-4.1311,-4.1311,-4.1311,-4.1311,-4.1311,-4.1311,-4.1311,-4.1311,-4.1311,-4.1311,-4.1311,-4.1311,-4.1311,-4.1311,-4.1311,-4.1311,-4.1311,-4.1311,-4.1311,-4.1311,-4.1311,-4.1311,-4.1311,-4.1311,-4.1311,-4.1311,-4.1311,-4.1311,-4.1361,-4.1498,-4.2186,-4.284,-4.2985,-4.3829,-4.4531,-4.4531,-4.4638,-4.5007,-4.5883,-4.5326,-4.5341,-4.7019,-4.6594,-4.6018,-4.6018,-4.6785,-4.6975,-4.6107,-4.6785,-4.7309,-4.7309,-4.7309,-4.7309,-4.7309,-4.7309,-4.7249,-4.716,-4.7015,-4.6238,-4.4778,-4.3628,-4.3101,-4.3305,-4.2578,-4.2496,-4.309,-4.2496,-4.2537,-4.3076,-4.325,-4.329,-4.329,-4.329,-4.329,-4.329,-4.329,-4.329,-4.329,-4.329,-4.329,-4.329,-4.329,-4.329,-4.329,-4.7833,-4.7519,-4.6975,-4.5973,-4.5779,-4.5312,-4.3829,-4.3592,-4.3273,-4.2235,-4.2101,-4.1918,-4.1361,-4.1311,-4.1311,-4.1311,-4.1311,-4.1311,-4.1311,-4.1311,-4.1311,-4.1311,-4.1311,-4.1311,-4.1311,-4.1311,-4.1311,-4.1311,-4.1311,-4.1311,-4.1311,-4.1311,-4.1311,-4.1311,-4.1311,-4.1311,-4.1311,-4.1311,-4.1311,-4.1311,-4.1311,-4.1311,-4.1311,-4.1311,-4.1311,-4.1311,-4.1311,-4.1311,-4.1311,-4.1311,-4.1311,-4.1311,-4.1311,-4.1311,-4.1311,-4.1311,-4.1311,-4.1311,-4.1311,-4.1311,-4.1311,-4.1311,-4.1634,-4.2003,-4.2003,-4.2757,-4.3497,-4.3497,-4.3923,-4.4452,-4.49,-4.4638,-4.4591,-4.5522,-4.5281,-4.4992,-4.4992,-4.5372,-4.5522,-4.5052,-4.5883,-4.6491,-4.6491,-4.6975,-4.7309,-4.7309,-4.7309,-4.7309,-4.7309,-4.6785,-4.6123,-4.5343,-4.4023,-4.3264,-4.3022,-4.3175,-4.3012,-4.2618,-4.2659,-4.2659,-4.2618,-4.309,-4.329,-4.329,-4.329,-4.329,-4.329,-4.329,-4.329,-4.329,-4.329,-4.329,-4.329,-4.329,-4.329,-4.329,-4.7399,-4.7309,-4.7062,-4.6299,-4.6166,-4.5793,-4.4823,-4.4638,-4.4298,-4.3259,-4.3163,-4.284,-4.2065,-4.1782,-4.1733,-4.1967,-4.1547,-4.1411,-4.1634,-4.1461,-4.1311,-4.1311,-4.1311,-4.1311,-4.1311,-4.1311,-4.1311,-4.1311,-4.1311,-4.1311,-4.1311,-4.1311,-4.1311,-4.1311,-4.1311,-4.1311,-4.1311,-4.1311,-4.1311,-4.1311,-4.1311,-4.1311,-4.1311,-4.1311,-4.1311,-4.1311,-4.1311,-4.1311,-4.1311,-4.1311,-4.1311,-4.1311,-4.1311,-4.1311,-4.1311,-4.1311,-4.1311,-4.1311,-4.1311,-4.1311,-4.1311,-4.1311,-4.1311,-4.1311,-4.1311,-4.1918,-4.2466,-4.2466,-4.3095,-4.3654,-4.3923,-4.3748,-4.3748,-4.4219,-4.4125,-4.3923,-4.3923,-4.4172,-4.4219,-4.3984,-4.5038,-4.5689,-4.5463,-4.6358,-4.6975,-4.6975,-4.6975,-4.7062,-4.7309,-4.6594,-4.5928,-4.5463,-4.4514,-4.369,-4.3038,-4.4004,-4.3872,-4.2553,-4.3218,-4.3104,-4.2319,-4.2996,-4.329,-4.329,-4.329,-4.329,-4.329,-4.329,-4.329,-4.329,-4.329,-4.329,-4.329,-4.329,-4.329,-4.329,-4.7309,-4.7309,-4.7266,-4.7207,-4.7207,-4.6829,-4.5824,-4.5689,-4.5326,-4.4298,-4.4172,-4.4172,-4.4078,-4.3273,-4.3081,-4.3984,-4.2395,-4.1683,-4.2647,-4.1819,-4.1311,-4.1311,-4.1311,-4.1311,-4.1311,-4.1311,-4.1311,-4.1311,-4.1311,-4.1311,-4.1311,-4.1311,-4.1311,-4.1311,-4.1311,-4.1311,-4.1311,-4.1311,-4.1311,-4.1311,-4.1311,-4.1311,-4.1311,-4.1311,-4.1311,-4.1311,-4.1311,-4.1311,-4.1311,-4.1311,-4.1311,-4.1311,-4.1311,-4.1311,-4.1311,-4.1311,-4.1311,-4.1311,-4.1311,-4.1311,-4.1311,-4.1311,-4.1311,-4.1311,-4.1311,-4.1361,-4.1411,-4.1411,-4.1448,-4.1832,-4.2744,-4.215,-4.2115,-4.3984,-4.3497,-4.2937,-4.2937,-4.3687,-4.3923,-4.3033,-4.461,-4.5417,-4.4499,-4.5326,-4.5928,-4.5928,-4.5928,-4.6299,-4.7251,-4.7207,-4.6314,-4.4452,-4.462,-4.44,-4.3733,-4.4726,-4.4859,-4.4105,-4.4201,-4.3888,-4.321,-4.325,-4.329,-4.329,-4.329,-4.329,-4.329,-4.329,-4.329,-4.329,-4.329,-4.329,-4.329,-4.329,-4.329,-4.329,-4.7309,-4.7309,-4.7309,-4.7309,-4.7309,-4.7164,-4.6785,-4.6726,-4.6358,-4.5372,-4.5235,-4.4992,-4.4359,-4.397,-4.3876,-4.4266,-4.3606,-4.3321,-4.3701,-4.3368,-4.2577,-4.1361,-4.1311,-4.1311,-4.1311,-4.1311,-4.1311,-4.1311,-4.1311,-4.1311,-4.1311,-4.1311,-4.1311,-4.1311,-4.1311,-4.1311,-4.1311,-4.1311,-4.1311,-4.1311,-4.1311,-4.1311,-4.1311,-4.1311,-4.1311,-4.1311,-4.1311,-4.1311,-4.1311,-4.1311,-4.1311,-4.1311,-4.1311,-4.1311,-4.1311,-4.1311,-4.1311,-4.1311,-4.1311,-4.1311,-4.1311,-4.1311,-4.1311,-4.1311,-4.1311,-4.1311,-4.1311,-4.1311,-4.1311,-4.1411,-4.1782,-4.1547,-4.1547,-4.2297,-4.266,-4.2563,-4.1967,-4.2757,-4.2985,-4.2016,-4.3081,-4.3768,-4.3402,-4.4298,-4.4854,-4.4854,-4.5463,-4.5973,-4.6344,-4.6358,-4.5748,-4.4359,-4.4397,-4.4169,-4.3499,-4.4472,-4.4955,-4.493,-4.493,-4.4796,-4.4541,-4.4122,-4.3902,-4.3888,-4.3469,-4.329,-4.329,-4.329,-4.329,-4.329,-4.329,-4.329,-4.329,-4.329,-4.329,-4.329,-4.7309,-4.7309,-4.7309,-4.7309,-4.7309,-4.7309,-4.7309,-4.7309,-4.7062,-4.6358,-4.6255,-4.6032,-4.5341,-4.4961,-4.4915,-4.519,-4.4684,-4.4452,-4.4762,-4.4499,-4.3559,-4.1819,-4.1448,-4.1311,-4.1311,-4.1311,-4.1311,-4.1311,-4.1311,-4.1311,-4.1311,-4.1311,-4.1311,-4.1311,-4.1311,-4.1311,-4.1311,-4.1311,-4.1311,-4.1337,-4.152,-4.1585,-4.1598,-4.1781,-4.1847,-4.1847,-4.1847,-4.1847,-4.1847,-4.1847,-4.1847,-4.1847,-4.1847,-4.1847,-4.1847,-4.1847,-4.1847,-4.1847,-4.1847,-4.1716,-4.1546,-4.1363,-4.1311,-4.1311,-4.1311,-4.1311,-4.1311,-4.1311,-4.1547,-4.1683,-4.1361,-4.1832,-4.2164,-4.1819,-4.2612,-4.3033,-4.2346,-4.2854,-4.2889,-4.1868,-4.266,-4.3033,-4.2382,-4.3225,-4.3829,-4.3829,-4.4485,-4.4992,-4.5326,-4.5038,-4.4517,-4.3829,-4.3511,-4.3271,-4.3124,-4.4123,-4.4806,-4.5154,-4.5154,-4.5191,-4.5274,-4.4825,-4.4616,-4.4586,-4.3928,-4.3604,-4.3589,-4.3379,-4.329,-4.329,-4.329,-4.329,-4.329,-4.329,-4.329,-4.329,-4.7309,-4.7309,-4.7309,-4.7309,-4.7309,-4.7309,-4.7309,-4.7309,-4.7309,-4.7309,-4.7309,-4.7309,-4.7309,-4.6403,-4.6211,-4.7207,-4.5477,-4.4762,-4.5734,-4.4854,-4.3876,-4.2889,-4.1868,-4.1311,-4.1311,-4.1311,-4.1311,-4.1311,-4.1311,-4.1311,-4.1311,-4.1311,-4.1311,-4.1311,-4.1311,-4.1324,-4.1324,-4.1324,-4.1324,-4.1376,-4.1951,-4.2224,-4.229,-4.2814,-4.3023,-4.3023,-4.3023,-4.3023,-4.3023,-4.3023,-4.3023,-4.3023,-4.3023,-4.3023,-4.3023,-4.3023,-4.3023,-4.3023,-4.3023,-4.2605,-4.2081,-4.1468,-4.1311,-4.1311,-4.1311,-4.1311,-4.1311,-4.1311,-4.2101,-4.2466,-4.1498,-4.295,-4.397,-4.2985,-4.364,-4.4312,-4.4312,-4.4312,-4.3923,-4.2937,-4.3687,-4.3511,-4.1498,-4.2186,-4.2792,-4.2792,-4.2792,-4.3211,-4.4266,-4.3355,-4.2792,-4.2792,-4.1819,-4.1782,-4.2792,-4.3782,-4.445,-4.4791,-4.4791,-4.5008,-4.5304,-4.5304,-4.5304,-4.5274,-4.4601,-4.4317,-4.4272,-4.3574,-4.329,-4.329,-4.329,-4.329,-4.329,-4.329,-4.329,-4.329,-4.7309,-4.7309,-4.7309,-4.7309,-4.7309,-4.7309,-4.7309,-4.7309,-4.7309,-4.7309,-4.7309,-4.7309,-4.7309,-4.7019,-4.6975,-4.7266,-4.6741,-4.655,-4.6829,-4.5928,-4.5221,-4.4932,-4.3259,-4.2003,-4.1311,-4.1311,-4.1311,-4.1311,-4.1311,-4.1311,-4.1311,-4.1311,-4.1311,-4.1337,-4.1729,-4.1912,-4.1938,-4.2343,-4.2513,-4.2526,-4.2696,-4.2762,-4.2788,-4.2958,-4.3023,-4.3023,-4.3023,-4.3023,-4.3023,-4.3023,-4.3023,-4.3023,-4.3023,-4.3023,-4.3023,-4.3023,-4.3023,-4.3023,-4.3023,-4.2892,-4.2631,-4.2056,-4.1611,-4.1311,-4.1311,-4.1311,-4.1498,-4.2186,-4.2052,-4.2101,-4.3191,-4.3321,-4.3355,-4.3782,-4.4716,-4.5098,-4.4406,-4.49,-4.4716,-4.3019,-4.3081,-4.2757,-4.1411,-4.1597,-4.1733,-4.1733,-4.2382,-4.3211,-4.4266,-4.4031,-4.3545,-4.284,-4.2514,-4.2514,-4.2792,-4.3129,-4.4013,-4.5488,-4.5488,-4.5903,-4.6696,-4.6232,-4.6022,-4.5978,-4.5289,-4.4736,-4.4302,-4.4067,-4.3708,-4.329,-4.329,-4.329,-4.329,-4.329,-4.329,-4.329,-4.7309,-4.7309,-4.7309,-4.7309,-4.7309,-4.7309,-4.7309,-4.7309,-4.7309,-4.7309,-4.7309,-4.7309,-4.7309,-4.7309,-4.7309,-4.7309,-4.7309,-4.7309,-4.7309,-4.6726,-4.6211,-4.5824,-4.4656,-4.3307,-4.1918,-4.1498,-4.1311,-4.1311,-4.1311,-4.1428,-4.1651,-4.1651,-4.1768,-4.2004,-4.2343,-4.2513,-4.2526,-4.2879,-4.3023,-4.3036,-4.3271,-4.3363,-4.3376,-4.3611,-4.3689,-4.3689,-4.3689,-4.3689,-4.3689,-4.3689,-4.3689,-4.3689,-4.3689,-4.3689,-4.3689,-4.3689,-4.3689,-4.3689,-4.3689,-4.3533,-4.3271,-4.2918,-4.2409,-4.199,-4.199,-4.199,-4.2064,-4.2488,-4.2412,-4.2529,-4.3553,-4.3876,-4.4191,-4.4808,-4.5748,-4.6166,-4.5568,-4.6032,-4.5658,-4.364,-4.3402,-4.2985,-4.2016,-4.1868,-4.1868,-4.1868,-4.2101,-4.2479,-4.3095,-4.3095,-4.2854,-4.2235,-4.2186,-4.2186,-4.2186,-4.2598,-4.3592,-4.519,-4.4808,-4.5372,-4.6668,-4.6283,-4.6337,-4.6681,-4.5992,-4.5484,-4.508,-4.4811,-4.4466,-4.4077,-4.3783,-4.3678,-4.3648,-4.3394,-4.329,-4.329,-4.7309,-4.7309,-4.7309,-4.7309,-4.7309,-4.7309,-4.7309,-4.7309,-4.7309,-4.7309,-4.7309,-4.7309,-4.7309,-4.7309,-4.7309,-4.7309,-4.7309,-4.7309,-4.7309,-4.7309,-4.6873,-4.5973,-4.5824,-4.4961,-4.3197,-4.2043,-4.1524,-4.1676,-4.1576,-4.1828,-4.243,-4.243,-4.2616,-4.3023,-4.3075,-4.3101,-4.3101,-4.3154,-4.318,-4.3219,-4.3742,-4.3951,-4.4003,-4.4526,-4.4668,-4.4668,-4.4668,-4.4668,-4.4668,-4.4668,-4.4668,-4.4668,-4.4668,-4.4668,-4.4668,-4.4668,-4.4668,-4.4668,-4.4668,-4.4343,-4.3951,-4.3951,-4.3559,-4.3154,-4.3049,-4.3023,-4.2879,-4.2497,-4.3112,-4.3669,-4.3292,-4.469,-4.5911,-4.6001,-4.6727,-4.7309,-4.7309,-4.7309,-4.6609,-4.4684,-4.4452,-4.4017,-4.3033,-4.2937,-4.2889,-4.2792,-4.1954,-4.1411,-4.1311,-4.1311,-4.1311,-4.1311,-4.1311,-4.1361,-4.1461,-4.2235,-4.3177,-4.4172,-4.3307,-4.3956,-4.5779,-4.5779,-4.6344,-4.7279,-4.6666,-4.6381,-4.6234,-4.5648,-4.5349,-4.5229,-4.4631,-4.4407,-4.4332,-4.3618,-4.3379,-4.3364,-4.7309,-4.7309,-4.7309,-4.7309,-4.7309,-4.7309,-4.7309,-4.7309,-4.7309,-4.7309,-4.7309,-4.7309,-4.7309,-4.7309,-4.7309,-4.7309,-4.7309,-4.7309,-4.7309,-4.7309,-4.7207,-4.6975,-4.6211,-4.583,-4.5935,-4.365,-4.312,-4.4408,-4.3658,-4.3525,-4.4078,-4.4078,-4.3664,-4.3036,-4.348,-4.3689,-4.3716,-4.4173,-4.4302,-4.4315,-4.4487,-4.4539,-4.4552,-4.4683,-4.4668,-4.4668,-4.4668,-4.4668,-4.4668,-4.4668,-4.4668,-4.4668,-4.4668,-4.4668,-4.4668,-4.4668,-4.4668,-4.4668,-4.4668,-4.4643,-4.4539,-4.4539,-4.4447,-4.4121,-4.3232,-4.3023,-4.3178,-4.3865,-4.4229,-4.4873,-4.6272,-4.659,-4.6851,-4.7644,-4.7492,-4.7309,-4.7309,-4.7309,-4.6829,-4.5598,-4.5463,-4.5084,-4.4064,-4.3984,-4.364,-4.284,-4.2612,-4.215,-4.1361,-4.1311,-4.1311,-4.1311,-4.1311,-4.1683,-4.2466,-4.1918,-4.215,-4.3129,-4.3687,-4.4624,-4.5779,-4.5779,-4.6344,-4.7294,-4.716,-4.68,-4.6264,-4.6115,-4.5783,-4.5289,-4.514,-4.508,-4.5005,-4.4347,-4.4067,-4.3992,-4.7309,-4.7309,-4.7309,-4.7309,-4.7309,-4.7309,-4.7309,-4.7309,-4.7309,-4.7309,-4.7309,-4.7309,-4.7309,-4.7309,-4.7309,-4.7309,-4.7309,-4.7309,-4.7309,-4.7309,-4.7444,-4.7758,-4.7288,-4.7317,-4.798,-4.6171,-4.5386,-4.5757,-4.524,-4.5252,-4.5782,-4.5782,-4.5646,-4.5386,-4.5152,-4.5102,-4.5063,-4.4807,-4.4668,-4.4668,-4.4668,-4.4668,-4.4668,-4.4668,-4.4668,-4.4668,-4.4668,-4.4668,-4.4668,-4.4668,-4.4668,-4.4668,-4.4668,-4.4668,-4.4668,-4.4668,-4.4668,-4.4668,-4.4668,-4.4668,-4.4668,-4.4668,-4.4668,-4.4511,-4.3977,-4.378,-4.3914,-4.416,-4.4248,-4.4654,-4.5874,-4.5872,-4.6187,-4.7722,-4.7685,-4.7644,-4.8193,-4.7967,-4.7244,-4.5726,-4.527,-4.4854,-4.4359,-4.3876,-4.3545,-4.3497,-4.2612,-4.1868,-4.1311,-4.1311,-4.1311,-4.1311,-4.1311,-4.1547,-4.2101,-4.2052,-4.2052,-4.2101,-4.2625,-4.3654,-4.5084,-4.5084,-4.5658,-4.6594,-4.7062,-4.7115,-4.68,-4.68,-4.6576,-4.6217,-4.5903,-4.5783,-4.5708,-4.502,-4.4781,-4.4736,-4.7309,-4.7309,-4.7309,-4.7309,-4.7309,-4.7309,-4.7309,-4.7309,-4.7309,-4.7309,-4.7309,-4.7309,-4.7309,-4.7309,-4.7309,-4.7309,-4.7309,-4.7309,-4.7309,-4.7414,-4.7713,-4.8267,-4.8401,-4.876,-4.9419,-4.8612,-4.7775,-4.6985,-4.6792,-4.7008,-4.7518,-4.7518,-4.7687,-4.7979,-4.6881,-4.6374,-4.6321,-4.5194,-4.4668,-4.4668,-4.4668,-4.4668,-4.4668,-4.4668,-4.4668,-4.4668,-4.4668,-4.4668,-4.4668,-4.4668,-4.4668,-4.4668,-4.4668,-4.4668,-4.4668,-4.4668,-4.4668,-4.4668,-4.4668,-4.4668,-4.4722,-4.4938,-4.4979,-4.5033,-4.5235,-4.4979,-4.4591,-4.4121,-4.4176,-4.4427,-4.4759,-4.4874,-4.5542,-4.7448,-4.7691,-4.7928,-4.8862,-4.8551,-4.7489,-4.5618,-4.4931,-4.4574,-4.4574,-4.3766,-4.3472,-4.4138,-4.2547,-4.1498,-4.1311,-4.1311,-4.1311,-4.1311,-4.1311,-4.1311,-4.1311,-4.215,-4.2186,-4.1547,-4.1361,-4.2346,-4.4312,-4.4312,-4.4961,-4.6107,-4.6785,-4.7164,-4.7309,-4.7309,-4.7309,-4.7249,-4.6711,-4.6444,-4.6411,-4.5723,-4.5394,-4.5289,-4.7309,-4.7309,-4.7309,-4.7309,-4.7309,-4.7309,-4.7309,-4.7309,-4.7309,-4.7309,-4.7309,-4.7309,-4.7309,-4.7309,-4.7309,-4.7309,-4.7309,-4.7309,-4.7309,-4.7833,-4.8192,-4.8282,-4.888,-4.9434,-5.0046,-4.9954,-4.9816,-4.9662,-4.8883,-4.8726,-4.9285,-4.9285,-4.8822,-4.7979,-4.6881,-4.6374,-4.6321,-4.5194,-4.4668,-4.4668,-4.4668,-4.4668,-4.4668,-4.4668,-4.4668,-4.4668,-4.4668,-4.4668,-4.4668,-4.4668,-4.4668,-4.4668,-4.4668,-4.4668,-4.4668,-4.4668,-4.4668,-4.4668,-4.4668,-4.4668,-4.4938,-4.5914,-4.6164,-4.6413,-4.7317,-4.6098,-4.4709,-4.463,-4.5382,-4.6081,-4.6143,-4.645,-4.7074,-4.8254,-4.7981,-4.7666,-4.782,-4.7748,-4.7268,-4.6061,-4.5845,-4.5789,-4.5789,-4.5216,-4.4587,-4.3838,-4.3055,-4.2235,-4.1361,-4.1311,-4.1311,-4.1311,-4.1311,-4.1311,-4.1311,-4.1461,-4.1868,-4.2612,-4.1733,-4.2346,-4.4312,-4.4312,-4.5341,-4.7062,-4.6299,-4.6491,-4.7309,-4.7309,-4.7309,-4.7294,-4.7204,-4.7174,-4.71,-4.6426,-4.5813,-4.5289,-4.7309,-4.7309,-4.7309,-4.7309,-4.7309,-4.7309,-4.7309,-4.7309,-4.7309,-4.7309,-4.7309,-4.7309,-4.7309,-4.7309,-4.7309,-4.7309,-4.7309,-4.7459,-4.7833,-4.8132,-4.8611,-4.9344,-4.9658,-5.0122,-5.0719,-5.0749,-5.0749,-5.0749,-5.0345,-5.0242,-5.0475,-5.0475,-5.0254,-4.9742,-4.8646,-4.8209,-4.8108,-4.7009,-4.6556,-4.6503,-4.59,-4.6006,-4.6399,-4.5181,-4.5087,-4.5555,-4.4938,-4.4668,-4.4668,-4.4668,-4.4668,-4.483,-4.5449,-4.5194,-4.483,-4.5449,-4.5194,-4.4668,-4.4668,-4.4668,-4.483,-4.5342,-4.5914,-4.6531,-4.7023,-4.6816,-4.6347,-4.5755,-4.6517,-4.7126,-4.6531,-4.7007,-4.7921,-4.8982,-4.8895,-4.8912,-4.9542,-4.928,-4.8337,-4.6278,-4.502,-4.4532,-4.5106,-4.4439,-4.4003,-4.4139,-4.3359,-4.2735,-4.2265,-4.2265,-4.2121,-4.1794,-4.1794,-4.1638,-4.1311,-4.1311,-4.1498,-4.1967,-4.2674,-4.3416,-4.4312,-4.4312,-4.4776,-4.5613,-4.5748,-4.6062,-4.6447,-4.6447,-4.6785,-4.7309,-4.7309,-4.7309,-4.7264,-4.698,-4.6681,-4.6426]},{"header":{"parameterUnit":"m.s-1","parameterCategory":1,"la1":30.6,"la2":28.766,"lo1":-90.7593,"lo2":-88.6598,"dy":0.0162,"dx":0.0183,"nx":116,"ny":114,"refTime":"2024-04-10T06:00:00:Z","depth":0,"parameterNumber":3,"parameterNumberName":"V-component_of_WINDS"},"data":[0.0,0.0,0.0,0.0,0.0,0.0,0.0,0.0,0.0,0.0,0.0,0.0,0.0,0.0,0.0,0.0,0.0,0.0,0.0,0.0,0.0,0.0,0.0,0.0,0.0,0.0,0.0,0.0,0.0,0.0,0.0,0.0,0.0,0.0,0.0,0.0,0.0,0.0,0.0,0.0,0.0,0.0,0.0,0.0,0.0,0.0,0.0,0.0,0.0,0.0,0.0,0.0,0.0,0.0,0.0,0.0,0.0,0.0,0.0,0.0,0.0,0.0,0.0,0.0,0.0,0.0,0.0,0.0,0.0,0.0,0.0,0.0,0.0,0.0,0.0,0.0,0.0,0.0,0.0,0.0,0.0,0.0,0.0,0.0,0.0,0.0,0.0,0.0,0.0,0.0,0.0,0.0,0.0,0.0,0.0,0.0,0.0,0.0,0.0,0.0,0.0,0.0,0.0,0.0,0.0,0.0,0.0,0.0,0.0,0.0,0.0,0.0,0.0,0.0,0.0,0.0,0.0,0.0,0.0,0.0,0.0,0.0,0.0,0.0,0.0,0.0,0.0,0.0,0.0,0.0,0.0,0.0,0.0,0.0,0.0,0.0,0.0,0.0,0.0,0.0,0.0,0.0,0.0,0.0,0.0,0.0,0.0,0.0,0.0,0.0,0.0,0.0,0.0,0.0,0.0,0.0,0.0,0.0,0.0,0.0,0.0,0.0,0.0,0.0,0.0,0.0,0.0,0.0,0.0,0.0,0.0,0.0,0.0,0.0,0.0,0.0,0.0,0.0,0.0,0.0,0.0,0.0,0.0,0.0,0.0,0.0,0.0,0.0,0.0,0.0,0.0,0.0,0.0,0.0,0.0,0.0,0.0,0.0,0.0,0.0,0.0,0.0,0.0,0.0,0.0,0.0,0.0,0.0,0.0,0.0,0.0,0.0,0.0,0.0,0.0,0.0,0.0,0.0,0.0,0.0,0.0,0.0,0.0,0.0,0.0,0.0,0.0,0.0,0.0,0.0,0.0,0.0,0.0,0.0,0.0,0.0,0.0,0.0,0.0,0.0,0.0,0.0,0.0,0.0,0.0,0.0,0.0,0.0,0.0,0.0,0.0,0.0,0.0,0.0,0.0,0.0,0.0,0.0,0.0,0.0,0.0,0.0,0.0,0.0,0.0,0.0,0.0,0.0,0.0,0.0,0.0,0.0,0.0,0.0,0.0,0.0,0.0,0.0,0.0,0.0,0.0,0.0,0.0,0.0,0.0,0.0,0.0,0.0,0.0,0.0,0.0,0.0,0.0,0.0,0.0,0.0,0.0,0.0,0.0,0.0,0.0,0.0,0.0,0.0,0.0,0.0,0.0,0.0,0.0,0.0,0.0,0.0,0.0,0.0,0.0,0.0,0.0,0.0,0.0,0.0,0.0,0.0,0.0,0.0,0.0,0.0,0.0,0.0,0.0,0.0,0.0,0.0,0.0,0.0,0.0,0.0,0.0,0.0,0.0,0.0,0.0,0.0,0.0,0.0,0.0,0.0,0.0,0.0,0.0,0.0,0.0,0.0,0.0,0.0,0.0,0.0,0.0,0.0,0.0,0.0,0.0,0.0,0.0,0.0,0.0,0.0,0.0,0.0,0.0,0.0,0.0,0.0,0.0,0.0,0.0,0.0,0.0,0.0,0.0,0.0,0.0,0.0,0.0,0.0,0.0,0.0,0.0,0.0,0.0,0.0,0.0,0.0,0.0,0.0,0.0,0.0,0.0,0.0,0.0,0.0,0.0,0.0,0.0,0.0,0.0,0.0,0.0,0.0,0.0,0.0,0.0,0.0,0.0,0.0,0.0,0.0,0.0,0.0,0.0,0.0,0.0,0.0,0.0,0.0,0.0,0.0,0.0,0.0,0.0,0.0,0.0,0.0,0.0,0.0,0.0,0.0,0.0,0.0,0.0,0.0,0.0,0.0,0.0,0.0,0.0,0.0,0.0,0.0,0.0,0.0,0.0,0.0,0.0,0.0,0.0,0.0,0.0,0.0,0.0,0.0,0.0,0.0,0.0,0.0,0.0,0.0,0.0,0.0,0.0,0.0,0.0,0.0,0.0,0.0,0.0,0.0,0.0,0.0,0.0,0.0,0.0,0.0,0.0,0.0,0.0,0.0,0.0,0.0,0.0,0.0,0.0,0.0,0.0,0.0,0.0,0.0,0.0,0.0,0.0,0.0,0.0,0.0,0.0,0.0,0.0,0.0,0.0,0.0,0.0,0.0,0.0,0.0,0.0,0.0,0.0,0.0,0.0,0.0,0.0,0.0,0.0,0.0,0.0,0.0,0.0,0.0,0.0,0.0,0.0,0.0,0.0,0.0,0.0,0.0,0.0,0.0,0.0,0.0,0.0,0.0,0.0,0.0,0.0,0.0,0.0,0.0,0.0,0.0,0.0,0.0,0.0,0.0,0.0,0.0,0.0,0.0,0.0,0.0,0.0,0.0,0.0,0.0,0.0,0.0,0.0,0.0,0.0,0.0,0.0,0.0,0.0,0.0,0.0,0.0,0.0,0.0,0.0,0.0,0.0,0.0,0.0,0.0,0.0,0.0,0.0,0.0,0.0,0.0,0.0,0.0,0.0,0.0,0.0,0.0,0.0,0.0,0.0,0.0,0.0,0.0,0.0,0.0,0.0,0.0,0.0,0.0,0.0,0.0,0.0,0.0,0.0,0.0,0.0,0.0,0.0,0.0,0.0,0.0,0.0,0.0,0.0,0.0,0.0,0.0,0.0,0.0,0.0,0.0,0.0,0.0,0.0,0.0,0.0,0.0,0.0,0.0,0.0,0.0,0.0,0.0,0.0,0.0,0.0,0.0,0.0,0.0,0.0,0.0,0.0,0.0,0.0,0.0,0.0,0.0,0.0,0.0,0.0,0.0,0.0,0.0,0.0,0.0,0.0,0.0,0.0,0.0,0.0,0.0,0.0,0.0,0.0,0.0,0.0,0.0,0.0,0.0,0.0,0.0,0.0,0.0,0.0,0.0,0.0,0.0,0.0,0.0,0.0,0.0,0.0,0.0,0.0,0.0,0.0,0.0,0.0,0.0,0.0,0.0,0.0,0.0,0.0,0.0,0.0,0.0,0.0,0.0,0.0,0.0,0.0,0.0,0.0,0.0,0.0,0.0,0.0,0.0,0.0,0.0,0.0,0.0,0.0,0.0,0.0,0.0,0.0,0.0,0.0,0.0,0.0,0.0,0.0,0.0,0.0,0.0,0.0,0.0,0.0,0.0,0.0,0.0,0.0,0.0,0.0,0.0,0.0,0.0,0.0,0.0,0.0,0.0,0.0,0.0,0.0,0.0,0.0,0.0,0.0,0.0,0.0,0.0,0.0,0.0,0.0,0.0,0.0,0.0,0.0,0.0,0.0,0.0,0.0,0.0,0.0,0.0,0.0,0.0,0.0,0.0,0.0,0.0,0.0,0.0,0.0,0.0,0.0,0.0,0.0,0.0,0.0,0.0,0.0,0.0,0.0,0.0,0.0,0.0,0.0,0.0,0.0,0.0,0.0,0.0,0.0,0.0,0.0,0.0,0.0,0.0,0.0,0.0,0.0,0.0,0.0,0.0,0.0,0.0,0.0,0.0,0.0,0.0,0.0,0.0,0.0,0.0,0.0,0.0,0.0,0.0,0.0,0.0,0.0,0.0,0.0,0.0,0.0,0.0,0.0,0.0,0.0,0.0,0.0,0.0,0.0,0.0,0.0,0.0,0.0,0.0,0.0,0.0,0.0,0.0,0.0,0.0,0.0,0.0,0.0,0.0,0.0,0.0,0.0,0.0,0.0,0.0,0.0,0.0,0.0,0.0,0.0,0.0,0.0,0.0,0.0,0.0,0.0,0.0,0.0,0.0,0.0,0.0,0.0,0.0,0.0,0.0,0.0,0.0,0.0,0.0,0.0,0.0,0.0,0.0,0.0,0.0,0.0,0.0,0.0,0.0,0.0,0.0,0.0,0.0,0.0,0.0,0.0,0.0,0.0,0.0,0.0,0.0,0.0,0.0,0.0,0.0,0.0,0.0,0.0,0.0,0.0,0.0,0.0,0.0,0.0,0.0,0.0,0.0,0.0,0.0,0.0,0.0,0.0,0.0,0.0,0.0,0.0,0.0,0.0,0.0,0.0,0.0,0.0,0.0,0.0,0.0,0.0,0.0,0.0,0.0,0.0,0.0,0.0,0.0,0.0,0.0,0.0,0.0,0.0,0.0,0.0,0.0,0.0,0.0,0.0,0.0,0.0,0.0,0.0,0.0,0.0,0.0,0.0,0.0,0.0,0.0,0.0,0.0,0.0,0.0,0.0,0.0,0.0,0.0,0.0,0.0,0.0,0.0,0.0,0.0,0.0,0.0,0.0,0.0,0.0,0.0,0.0,0.0,0.0,0.0,0.0,0.0,0.0,0.0,0.0,0.0,0.0,0.0,0.0,0.0,0.0,0.0,0.0,0.0,0.0,0.0,0.0,0.0,0.0,0.0,0.0,0.0,0.0,0.0,0.0,0.0,0.0,0.0,0.0,0.0,0.0,0.0,0.0,0.0,0.0,0.0,0.0,0.0,0.0,0.0,0.0,0.0,0.0,0.0,0.0,0.0,0.0,0.0,0.0,0.0,0.0,0.0,0.0,0.0,0.0,0.0,0.0,0.0,0.0,0.0,0.0,0.0,0.0,0.0,0.0,0.0,0.0,0.0,0.0,0.0,0.0,0.0,0.0,0.0,0.0,0.0,0.0,0.0,0.0,0.0,0.0,0.0,0.0,0.0,0.0,0.0,0.0,0.0,0.0,0.0,0.0,0.0,0.0,0.0,0.0,0.0,0.0,0.0,0.0,0.0,0.0,0.0,0.0,0.0,0.0,0.0,0.0,0.0,0.0,0.0,0.0,0.0,0.0,0.0,0.0,0.0,0.0,0.0,0.0,0.0,0.0,0.0,0.0,0.0,0.0,0.0,0.0,0.0,0.0,0.0,0.0,0.0,0.0,0.0,0.0,0.0,0.0,0.0,0.0,0.0,0.0,0.0,0.0,0.0,0.0,0.0,0.0,0.0,0.0,0.0,0.0,0.0,0.0,0.0,0.0,0.0,0.0,0.0,0.0,0.0,0.0,0.0,0.0,0.0,0.0,0.0,0.0,0.0,0.0,0.0,0.0,0.0,0.0,0.0,0.0,0.0,0.0,0.0,0.0,0.0,0.0,0.0,0.0,0.0,0.0,0.0,0.0,0.0,0.0,0.0,0.0,0.0,0.0,0.0,0.0,0.0,0.0,0.0,0.0,0.0,0.0,0.0,0.0,0.0,0.0,0.0,0.0,0.0,0.0,0.0,0.0,0.0,0.0,0.0,0.0,0.0,0.0,0.0,0.0,0.0,0.0,0.0,0.0,0.0,0.0,0.0,0.0,0.0,0.0,0.0,0.0,0.0,0.0,0.0,0.0,0.0,0.0,0.0,0.0,0.0,0.0,0.0,0.0,0.0,0.0,0.0,0.0,0.0,0.0,0.0,0.0,0.0,0.0,0.0,0.0,0.0,0.0,0.0,0.0,0.0,0.0,0.0,0.0,0.0,0.0,0.0,0.0,0.0,0.0,0.0,0.0,0.0,0.0,0.0,0.0,0.0,0.0,0.0,0.0,0.0,0.0,0.0,0.0,0.0,0.0,0.0,0.0,0.0,0.0,0.0,0.0,0.0,0.0,0.0,0.0,0.0,0.0,0.0,0.0,0.0,0.0,0.0,0.0,0.0,0.0,0.0,0.0,0.0,0.0,0.0,0.0,0.0,0.0,0.0,0.0,0.0,0.0,0.0,0.0,0.0,0.0,0.0,0.0,0.0,0.0,0.0,0.0,0.0,0.0,0.0,0.0,0.0,0.0,0.0,0.0,0.0,0.0,0.0,0.0,0.0,0.0,0.0,0.0,0.0,0.0,0.0,0.0,0.0,0.0,0.0,0.0,0.0,0.0,0.0,0.0,0.0,0.0,0.0,0.0,0.0,0.0,0.0,0.0,0.0,0.0,0.0,0.0,0.0,0.0,0.0,0.0,0.0,0.0,0.0,0.0,0.0,0.0,0.0,0.0,0.0,0.0,0.0,2.4917,2.3643,0.0,0.0,0.0,0.0,0.0,0.0,0.0,0.0,0.0,0.0,0.0,0.0,0.0,0.0,0.0,0.0,0.0,0.0,0.0,0.0,0.0,0.0,0.0,3.3418,3.3418,3.3418,3.3418,3.3481,3.367,0.0,0.0,0.0,0.0,0.0,3.411,3.4298,3.4385,3.4359,3.4359,3.4309,3.4279,3.4462,3.4707,3.5097,0.0,0.0,0.0,0.0,0.0,0.0,0.0,0.0,0.0,0.0,0.0,0.0,0.0,0.0,0.0,0.0,0.0,0.0,0.0,0.0,0.0,0.0,0.0,0.0,0.0,0.0,0.0,0.0,0.0,0.0,0.0,0.0,0.0,0.0,0.0,0.0,0.0,0.0,0.0,0.0,0.0,0.0,0.0,0.0,0.0,0.0,0.0,0.0,0.0,0.0,0.0,0.0,0.0,0.0,0.0,0.0,0.0,0.0,0.0,0.0,0.0,0.0,0.0,0.0,0.0,0.0,0.0,0.0,0.0,0.0,2.6367,2.5485,0.0,0.0,0.0,0.0,0.0,0.0,0.0,0.0,0.0,0.0,0.0,0.0,0.0,0.0,0.0,0.0,0.0,0.0,0.0,0.0,0.0,3.3418,3.3418,3.3418,3.3418,3.3418,3.3418,3.3481,3.3544,3.3796,0.0,0.0,3.3915,3.399,3.4178,3.4294,3.4267,3.4146,3.4449,3.4364,3.3992,3.4383,3.4787,3.5135,3.4435,0.0,0.0,0.0,0.0,0.0,0.0,0.0,0.0,0.0,0.0,0.0,0.0,0.0,0.0,0.0,0.0,0.0,0.0,0.0,0.0,0.0,0.0,0.0,0.0,0.0,0.0,0.0,0.0,0.0,0.0,0.0,0.0,0.0,0.0,0.0,0.0,0.0,0.0,0.0,0.0,0.0,0.0,0.0,0.0,0.0,0.0,0.0,0.0,0.0,0.0,0.0,0.0,0.0,0.0,0.0,0.0,0.0,0.0,0.0,0.0,0.0,0.0,0.0,2.757,2.7535,2.7474,2.7447,2.7871,2.8482,2.7748,2.7295,2.6996,2.5973,0.0,0.0,0.0,0.0,0.0,0.0,0.0,0.0,0.0,0.0,0.0,0.0,0.0,0.0,0.0,0.0,0.0,0.0,0.0,3.3418,3.3418,3.3418,3.3418,3.3418,3.367,3.3985,3.4235,3.4047,3.4047,3.4298,3.3999,3.3675,3.3428,3.3902,3.3978,3.3677,3.4954,3.5557,3.5551,3.6194,3.6589,3.6556,3.4827,0.0,0.0,0.0,0.0,0.0,0.0,0.0,0.0,0.0,0.0,0.0,0.0,0.0,0.0,0.0,0.0,0.0,0.0,0.0,0.0,0.0,0.0,0.0,0.0,0.0,0.0,0.0,0.0,0.0,0.0,0.0,0.0,0.0,0.0,0.0,0.0,0.0,0.0,0.0,0.0,0.0,0.0,0.0,3.2166,3.1976,0.0,0.0,0.0,0.0,0.0,0.0,0.0,0.0,0.0,0.0,0.0,0.0,0.0,3.0401,3.0401,3.0401,3.0199,2.9757,2.9757,2.9622,2.9276,2.9266,2.9294,2.9424,2.9304,0.0,2.754,2.7359,0.0,0.0,0.0,0.0,0.0,0.0,0.0,0.0,0.0,0.0,0.0,0.0,0.0,0.0,0.0,0.0,0.0,0.0,0.0,0.0,0.0,3.3544,3.367,3.367,3.3766,3.3813,3.3751,3.3574,3.3434,3.3372,3.3376,3.375,3.4391,3.4669,3.5013,3.5474,3.5824,3.6028,3.6016,3.6358,3.6518,3.6475,3.5647,3.5296,3.5296,3.5296,0.0,0.0,0.0,0.0,0.0,0.0,0.0,0.0,0.0,0.0,0.0,0.0,0.0,0.0,0.0,0.0,0.0,0.0,0.0,0.0,0.0,0.0,0.0,0.0,0.0,0.0,0.0,0.0,0.0,0.0,0.0,0.0,0.0,0.0,0.0,0.0,0.0,0.0,0.0,3.2458,3.2163,3.1563,3.1839,3.181,0.0,0.0,0.0,0.0,0.0,0.0,0.0,0.0,0.0,3.0889,3.0889,3.0889,3.0889,3.0889,3.0791,3.0586,3.0322,3.0098,2.9912,2.9678,2.9434,2.9209,2.9209,2.8732,2.799,2.7705,2.6843,2.5729,0.0,0.0,0.0,0.0,2.4919,2.4894,0.0,0.0,0.0,0.0,0.0,0.0,0.0,0.0,0.0,0.0,0.0,0.0,3.3125,3.3569,3.3891,3.4009,3.4136,3.4186,3.4296,3.4147,3.402,3.3782,3.3906,3.4481,3.5577,3.5572,3.5901,3.6704,3.6653,3.6619,3.663,3.6954,3.7115,3.7115,3.7115,3.6738,3.6185,3.6185,3.6185,0.0,0.0,0.0,0.0,0.0,0.0,0.0,0.0,0.0,0.0,0.0,0.0,0.0,0.0,0.0,0.0,0.0,0.0,0.0,0.0,0.0,0.0,0.0,0.0,0.0,0.0,0.0,0.0,0.0,0.0,0.0,0.0,0.0,0.0,0.0,0.0,0.0,0.0,3.2315,3.2058,3.1249,3.1622,3.176,0.0,0.0,0.0,0.0,0.0,0.0,3.0889,3.0889,3.0889,3.0889,3.0889,3.0889,3.0889,3.0889,3.083,3.0713,3.0361,3.0137,3.0019,2.959,2.9228,2.8916,2.8809,2.8584,2.8286,2.79,2.7475,2.6976,2.6283,2.5652,2.5177,2.5507,2.5617,2.5617,0.0,0.0,0.0,0.0,0.0,0.0,0.0,0.0,0.0,0.0,0.0,3.349,3.2375,3.3202,3.3974,3.432,3.4869,3.5678,3.6812,3.6904,3.6893,3.6893,3.6432,3.6297,3.6353,3.6232,3.62,3.6231,3.7299,3.7832,3.7832,3.8985,3.953,3.953,3.953,3.8267,3.6185,3.6185,3.6185,3.6185,0.0,0.0,0.0,0.0,0.0,0.0,0.0,0.0,0.0,0.0,0.0,0.0,0.0,0.0,0.0,0.0,0.0,0.0,0.0,0.0,0.0,0.0,0.0,0.0,0.0,0.0,0.0,0.0,0.0,0.0,0.0,0.0,0.0,0.0,0.0,0.0,0.0,0.0,0.0,3.174,3.1808,0.0,0.0,0.0,0.0,3.1325,3.1276,3.116,3.0889,3.0889,3.0889,3.0889,3.0889,3.0889,3.0889,3.0889,3.0674,3.0234,3.0205,2.999,2.959,2.915,2.8945,2.8896,2.8496,2.831,2.8301,2.8286,2.7568,2.6663,2.7711,2.7422,2.6527,2.7682,2.813,2.813,0.0,0.0,0.0,0.0,0.0,3.333,3.3057,3.3018,3.2871,3.2451,3.2642,3.2919,3.3235,3.4046,3.4878,3.5729,3.6145,3.6432,3.6635,3.6386,3.6204,3.6204,3.6034,3.6383,3.7331,3.8087,3.8425,3.8425,3.8868,3.9037,3.9089,3.9478,3.9697,3.9697,3.9697,3.9258,3.8425,3.8425,3.8425,3.8372,3.7607,3.7287,0.0,0.0,0.0,0.0,0.0,0.0,0.0,0.0,0.0,0.0,0.0,0.0,0.0,0.0,0.0,0.0,0.0,0.0,0.0,0.0,0.0,0.0,0.0,0.0,0.0,0.0,0.0,0.0,0.0,0.0,0.0,0.0,0.0,0.0,0.0,0.0,0.0,3.409,3.4202,0.0,3.409,3.4035,3.3979,3.3866,3.3866,3.381,3.3754,3.2975,3.2473,3.2311,3.1546,3.1054,3.0889,3.0889,3.081,3.0644,3.0342,3.0117,2.9961,2.9531,2.9189,2.8916,2.876,2.8545,2.8291,2.8291,2.8077,2.7682,2.8121,2.8014,2.7736,2.813,2.8291,2.8291,0.0,0.0,0.0,0.0,0.0,3.3281,3.2861,3.2793,3.2598,3.2021,3.2544,3.3104,3.342,3.4672,3.5722,3.6511,3.6985,3.7306,3.7348,3.7075,3.6942,3.6942,3.6942,3.7382,3.8332,3.9258,3.9697,3.9697,3.9697,3.9697,3.9697,3.9697,3.9697,3.9697,3.9697,3.9697,3.9697,3.9697,3.9697,3.9633,3.8816,3.8489,3.8437,0.0,0.0,0.0,0.0,0.0,0.0,0.0,0.0,0.0,0.0,0.0,0.0,0.0,0.0,0.0,0.0,0.0,0.0,0.0,0.0,0.0,0.0,0.0,0.0,0.0,0.0,0.0,0.0,0.0,0.0,0.0,0.0,0.0,0.0,3.5876,3.5793,3.5629,3.5738,3.5793,3.5629,3.5574,3.5574,3.5453,3.5453,3.5398,3.5288,3.4515,3.4013,3.3856,3.2985,3.2436,3.2275,3.2113,3.1893,3.1508,3.1189,3.0821,3.042,2.998,2.9619,2.9336,2.9043,2.876,2.8496,2.835,2.8291,2.8291,2.8291,2.8291,2.8291,2.8291,2.8291,2.8291,0.0,0.0,0.0,0.0,0.0,3.3262,3.2842,3.2764,3.2451,3.1611,3.313,3.3941,3.2893,3.4997,3.6538,3.6665,3.7447,3.8332,3.9206,3.9258,3.9258,3.9258,3.9258,3.9258,3.9258,3.953,3.9697,3.9697,3.9685,3.9697,3.9697,3.9697,3.9697,3.9697,3.9697,3.9697,3.9697,3.9697,3.9697,3.9697,3.9697,3.9697,3.9697,0.0,0.0,0.0,0.0,0.0,0.0,0.0,0.0,0.0,0.0,0.0,0.0,0.0,0.0,0.0,0.0,0.0,0.0,0.0,0.0,0.0,0.0,0.0,0.0,0.0,0.0,0.0,0.0,0.0,0.0,0.0,0.0,0.0,3.5999,3.612,3.6294,3.6294,3.6294,3.6294,3.6294,3.6294,3.6174,3.5836,3.5836,3.5727,3.5453,3.5398,3.5409,3.5343,3.5079,3.4914,3.4914,3.4603,3.3899,3.2799,3.2799,3.2123,3.0986,3.0535,3.0319,3.0203,2.9407,2.898,2.8887,2.852,2.8344,2.8291,2.8291,2.8291,2.8291,2.8291,2.8291,2.8291,0.0,0.0,0.0,3.2374,3.2903,3.2822,3.2412,3.207,3.168,3.1133,3.2302,3.3346,3.3875,3.55,3.6901,3.7814,3.8291,3.8671,3.8945,3.8945,3.8945,3.8945,3.8945,3.8945,3.8945,3.901,3.9062,3.9062,3.927,3.9426,3.9413,3.9594,3.9697,3.9697,3.9697,3.9697,3.9697,3.9697,3.9697,3.9697,3.9697,3.9697,3.9697,0.0,0.0,0.0,0.0,0.0,0.0,0.0,0.0,0.0,0.0,0.0,0.0,0.0,0.0,0.0,0.0,0.0,0.0,0.0,0.0,0.0,0.0,0.0,0.0,0.0,0.0,0.0,0.0,0.0,0.0,0.0,3.9206,3.9089,3.8647,3.8699,3.8764,3.8764,3.8764,3.8764,3.8764,3.8764,3.8699,3.8594,3.8582,3.8582,3.8477,3.766,3.7115,3.6918,3.5945,3.5398,3.5189,3.5079,3.4814,3.4325,3.4325,3.3989,3.3438,3.33,3.2609,3.1539,3.1766,3.0743,2.8941,2.9293,2.9006,2.8291,2.8291,2.8291,2.8291,2.8291,2.8291,2.8291,0.0,0.0,0.0,3.2902,3.3076,3.2656,3.2226,3.1797,3.1367,3.0947,3.2342,3.3674,3.4336,3.6197,3.7566,3.8198,3.8566,3.8736,3.8631,3.8631,3.8566,3.8473,0.0,3.8631,3.8631,3.8736,3.8788,3.8788,3.8998,3.9102,3.9102,3.927,3.9426,3.953,3.953,3.9581,3.9697,3.9697,3.9697,3.9697,3.9697,3.9697,3.9697,3.9697,3.9697,3.9697,3.9697,3.9697,3.9697,3.9697,0.0,0.0,0.0,0.0,0.0,0.0,0.0,0.0,0.0,0.0,0.0,0.0,0.0,0.0,0.0,0.0,0.0,0.0,0.0,0.0,0.0,0.0,0.0,0.0,3.9697,3.9697,3.9697,3.9697,3.9697,3.9697,3.9697,3.9785,4.0011,4.0036,4.0136,4.0362,4.0388,4.0388,4.0388,3.9717,3.9157,3.8753,3.7971,3.738,3.6996,3.6846,3.6457,3.5804,3.5804,3.5476,3.4759,3.4648,3.4106,3.3194,3.3063,3.2084,3.0627,3.0611,3.0235,2.9576,0.0,0.0,0.0,0.0,2.8291,2.8291,0.0,0.0,0.0,3.2702,3.2902,3.2598,3.2226,3.1758,3.1309,3.0947,3.2835,3.428,3.4391,3.6654,3.8092,3.8039,3.8461,3.8631,3.8356,3.8356,3.825,3.8039,3.825,3.8356,3.8356,3.8579,3.8736,3.8736,3.8736,3.8736,3.8736,3.8788,3.8945,3.9258,3.9258,3.9426,3.9633,3.9633,3.9697,3.9697,3.9697,3.9697,3.9697,3.9697,3.9697,3.9697,3.9697,3.9697,3.9697,3.9697,0.0,0.0,0.0,0.0,0.0,0.0,0.0,0.0,0.0,0.0,0.0,0.0,0.0,0.0,0.0,0.0,0.0,0.0,0.0,0.0,0.0,0.0,0.0,0.0,3.9697,3.9722,3.9772,3.9785,3.9785,3.9785,3.9835,4.0074,4.0563,4.0614,4.0814,4.125,4.1288,4.1288,4.1288,4.1288,0.0,0.0,0.0,3.9894,3.9461,3.9087,3.8396,3.7352,3.7352,3.6738,3.5683,3.5464,3.5256,3.509,3.3948,3.325,3.2971,3.2174,3.1728,3.1421,2.9323,2.8398,2.8291,2.8291,2.8291,2.8291,0.0,0.0,0.0,3.1387,3.2018,3.2256,3.2178,3.1514,3.0986,3.0898,3.2123,3.3402,3.428,3.5729,3.7,3.7933,3.8092,3.8145,3.8092,3.8092,3.8039,3.7986,3.8039,3.8092,3.8092,3.8145,3.8145,3.8145,3.8356,3.8461,3.8461,3.8684,3.8841,3.8893,3.8893,3.905,3.9374,3.9374,3.9478,3.9697,3.9697,3.9697,3.9697,3.9697,3.9697,3.9697,3.9697,3.9697,3.9697,3.9697,3.9697,3.9697,3.9697,0.0,0.0,0.0,0.0,0.0,0.0,0.0,0.0,0.0,0.0,0.0,0.0,0.0,0.0,0.0,0.0,0.0,0.0,0.0,0.0,3.9697,3.9697,3.9848,4.0287,4.0362,4.0362,4.0362,4.0752,4.1012,4.1112,4.1125,4.1175,4.1275,4.1288,4.1288,4.1288,4.1288,4.1238,4.1125,4.0699,4.0358,4.0257,3.9755,3.931,3.8881,3.8881,0.0,3.812,3.8068,3.7524,3.6638,3.6263,3.5005,3.3332,3.3248,3.2678,3.1768,3.0182,2.9059,2.8291,2.8291,2.8291,2.8291,0.0,0.0,0.0,3.0927,3.1236,3.1407,3.2097,3.1445,3.0889,3.0889,3.196,3.3119,3.428,3.5454,3.6677,3.7868,3.7986,3.7986,3.7986,3.7986,3.7986,3.7986,3.7986,3.7986,3.7986,3.7986,3.7986,3.7986,3.8145,3.8198,3.8198,3.8356,3.8473,3.8579,3.8579,3.8841,3.931,3.931,3.9478,3.9697,3.9697,3.9697,3.9697,3.9697,3.9697,3.9697,3.9697,3.9697,3.9697,3.9697,3.9697,3.9697,3.9697,3.9697,3.9697,0.0,0.0,0.0,0.0,0.0,0.0,0.0,0.0,0.0,0.0,0.0,0.0,0.0,0.0,3.9697,3.9697,0.0,3.9697,3.9697,3.9923,4.0199,4.0475,4.099,4.1241,4.0965,4.1125,4.1388,4.1718,4.1743,4.1856,4.2145,4.2158,4.2158,4.2158,4.2158,4.2032,4.1756,4.1216,4.0802,4.0513,3.9973,3.9633,3.9478,3.9478,3.9426,3.927,3.9102,3.8724,3.8166,3.7329,3.6336,3.5285,3.4776,3.3895,3.2739,3.2022,3.0742,2.927,2.8548,2.8398,2.8432,0.0,0.0,0.0,3.0012,3.0339,3.0541,3.161,3.1325,3.0986,3.0898,3.174,3.2789,3.3944,3.5124,3.6449,3.7868,3.7986,3.7986,3.7986,3.7986,3.7986,3.7986,3.7986,3.7986,3.7986,3.7986,3.7986,3.7986,3.7986,3.7986,3.7986,3.7986,3.8145,3.8303,3.8303,3.8631,3.9154,3.9154,3.9374,3.9633,3.9697,3.9697,3.9697,3.9697,3.9697,3.9697,3.9697,3.9697,3.9697,3.9697,3.9697,3.9697,3.9697,3.9697,3.9697,3.9697,3.9697,0.0,0.0,0.0,0.0,0.0,0.0,0.0,0.0,3.9697,3.9697,3.9697,3.9697,3.9697,3.9697,3.9785,3.9848,3.9848,4.0325,4.0714,4.0814,4.1593,4.2032,4.1693,4.1601,4.1831,4.2326,4.2363,4.2552,4.2949,4.2974,4.2974,4.2974,4.2974,4.2828,4.2389,4.1681,4.1075,4.0676,4.0023,3.9697,3.9697,3.9697,3.9697,3.9697,3.9478,3.9374,3.9312,3.79,3.7158,3.6899,3.6025,3.5066,3.4054,3.3845,3.2678,3.1,2.9576,2.9026,2.8966,0.0,0.0,0.0,0.0,0.0,3.0543,3.038,3.0946,3.1309,3.0947,3.1005,3.1566,3.2742,3.3899,3.5498,3.7814,3.7986,3.7986,3.7986,3.7986,3.7986,3.7986,3.7986,3.7986,3.7986,3.7986,3.7986,3.7986,3.7986,3.7986,3.7986,3.7986,3.8039,3.8039,3.8039,3.8198,3.8514,3.8736,3.905,3.9374,3.9581,3.9697,3.9697,3.9697,3.9697,3.9697,3.9697,3.9697,3.9697,3.9697,3.9697,3.9697,3.9697,3.9697,3.9697,3.9697,3.9697,3.9697,3.9697,3.9697,3.9697,3.9697,3.9697,3.9697,0.0,3.9697,3.9697,3.9697,3.9697,3.9697,3.9697,4.0099,4.0425,4.0425,4.0837,4.1417,4.1949,4.2137,4.2376,4.2735,4.2798,4.2823,4.2873,4.2886,4.2911,4.2974,4.2974,4.2974,4.2974,4.2974,4.2949,4.2886,4.1882,4.125,4.12,4.0212,3.9697,3.9697,3.9697,3.9697,3.9697,3.9697,3.9645,3.9583,3.8191,3.701,3.6141,3.6017,3.5872,3.5668,3.469,3.4178,3.3784,3.2174,3.0938,3.0213,0.0,0.0,0.0,0.0,0.0,2.9626,3.0071,3.0914,3.1367,3.0947,3.0889,3.1334,3.2571,3.373,3.5113,3.6773,3.6947,3.7269,3.7921,3.7986,3.7986,3.7986,3.7986,3.7986,3.7986,3.7986,3.7986,3.7986,3.7986,3.7986,3.7986,3.7986,3.7986,3.7986,3.7986,3.8145,3.8409,3.8514,3.8841,3.931,3.9426,3.9581,3.9697,3.9697,3.9697,3.9697,3.9697,3.9697,0.0,0.0,3.9697,3.9697,3.9697,3.9697,3.9697,3.9697,3.9697,3.9697,3.9697,3.9697,3.9697,3.9697,3.9697,3.9697,3.9697,3.9697,3.9697,3.9697,3.9697,3.9697,3.9697,4.0149,4.0513,4.0513,4.1241,4.1894,4.2175,4.2489,4.2778,4.2949,4.2974,4.2974,4.2974,4.2974,4.2974,4.2974,4.2974,4.2974,4.2974,4.2974,4.2974,4.2974,4.1907,4.1288,4.1288,4.0249,3.9697,3.9697,3.9697,3.9697,3.9697,3.9697,3.9333,3.868,3.8104,3.7143,3.6015,3.6193,3.6146,3.5968,3.5512,3.4945,3.4227,3.2705,3.1761,3.119,0.0,0.0,0.0,0.0,0.0,2.8305,2.9466,3.0517,3.1106,3.1054,3.0967,3.1334,3.2571,3.3459,3.4402,3.5619,3.5674,3.6231,3.7429,3.7495,3.7655,3.7986,3.7986,3.7986,3.7986,3.7986,3.7986,3.7986,3.7986,3.7986,3.7986,3.7986,3.7986,3.7986,3.7986,3.8092,3.8303,3.8356,3.8671,3.905,3.9154,3.9322,3.9581,3.9581,3.9645,3.9697,3.9697,3.9697,0.0,0.0,3.9697,3.9697,3.9697,3.9697,3.9697,3.9697,3.9697,3.9697,3.9697,3.9697,3.9697,3.9697,3.9697,3.9697,3.9697,3.9697,3.9697,3.9697,3.9697,3.9747,3.9885,4.0375,4.0789,4.094,4.1769,4.2439,4.2439,4.2778,4.2974,4.2974,4.2974,4.2974,4.2974,4.2974,4.2974,4.2974,4.2974,4.2974,4.2974,4.2974,4.2974,4.2974,4.1907,4.1288,4.1288,4.0249,3.9697,3.9697,3.9697,3.9697,3.9685,3.9534,3.8931,3.8002,3.7839,3.7152,3.6146,3.6323,3.6275,3.6098,3.6098,3.5644,3.4824,3.3798,3.2969,3.2317,0.0,0.0,0.0,0.0,0.0,2.6729,2.8378,2.9484,3.0475,3.1364,3.1143,3.1334,3.2571,3.2742,3.3233,3.4336,3.4447,3.4947,3.6177,3.6231,3.6785,3.7933,3.7986,3.7986,3.7986,3.7986,3.7986,3.7986,3.7986,3.7986,3.7986,3.7986,3.7986,3.7986,3.7986,3.7986,3.8039,3.8303,3.8409,3.8461,3.8736,3.8998,3.931,3.931,3.9478,3.9697,3.9697,0.0,0.0,0.0,3.9697,3.9697,3.9697,3.9697,3.9697,3.9697,3.9697,3.9697,3.9697,3.9697,3.9697,3.9697,3.9697,3.9697,3.9697,3.9697,3.9697,3.9697,3.9697,3.986,4.0388,4.0887,4.1492,4.2074,4.264,4.2949,4.2949,4.2974,4.2974,4.2974,4.2974,4.2974,4.2974,4.2974,4.2974,4.2974,4.2974,4.2974,4.2974,4.2974,4.2974,4.2974,4.1907,4.1288,4.1288,4.0249,3.9697,3.9697,3.9697,3.9697,3.9672,3.9145,3.8567,3.7977,3.7437,3.6885,3.6405,3.6405,3.6405,3.6405,3.6405,3.6358,3.631,3.631,3.506,3.3553,0.0,0.0,0.0,0.0,0.0,0.0,2.6706,2.7615,2.8418,2.9337,3.0099,0.0,0.0,0.0,0.0,0.0,3.3289,3.3786,3.4947,3.574,3.6394,3.6785,3.7548,3.7986,3.7986,3.7986,3.7986,3.7986,3.7986,3.7986,3.7986,3.7986,3.7986,3.7986,3.7986,3.7986,3.7986,3.8092,3.825,3.8409,3.8526,3.8736,3.8998,3.9218,3.9374,3.9478,0.0,0.0,0.0,0.0,0.0,3.9697,3.9697,3.9697,3.9697,3.9697,3.9697,3.9697,3.9697,3.9697,3.9697,3.9697,3.9697,3.9697,3.9697,3.9697,3.9697,3.9697,3.9986,4.03,4.0488,4.1266,4.1932,4.2187,4.2678,4.2974,4.2974,4.2974,4.2974,4.2974,4.2974,4.2974,4.2974,4.2974,4.2974,4.2974,4.2974,4.2974,4.2974,4.2974,4.2974,4.2974,4.1907,4.1288,4.1288,4.0249,3.9697,3.9697,3.9697,3.9697,3.9672,3.912,3.8555,3.7977,3.7425,3.692,3.6405,3.6405,3.6405,3.6405,3.6405,3.6405,3.6405,3.6405,3.5488,3.4345,0.0,0.0,0.0,0.0,0.0,0.0,0.0,0.0,0.0,0.0,0.0,0.0,0.0,0.0,0.0,0.0,0.0,3.2571,3.373,3.4514,3.5124,3.5564,3.6719,3.7376,3.7376,3.7761,3.7986,3.7986,3.7548,3.7376,3.7322,3.6935,3.6708,3.6708,3.6708,3.6708,3.6708,3.6708,3.6815,3.6977,3.6977,3.7406,3.8068,3.8267,3.8764,0.0,0.0,0.0,0.0,0.0,3.9697,3.9697,3.9697,3.9697,3.9697,3.9697,3.9697,3.9697,3.9697,3.9697,3.9697,3.9697,3.9697,3.9697,3.9697,3.9697,3.9697,3.9697,4.0136,4.0576,4.0777,4.1543,4.2275,4.2476,4.2803,4.2974,4.2974,4.2974,4.2974,4.2974,4.2974,4.2974,4.2974,4.2974,4.2974,4.2974,4.2974,4.2974,4.2974,4.2974,4.2974,4.2974,4.1907,4.1288,4.1288,4.0249,3.9697,3.9697,3.9697,3.9697,3.9672,3.8906,3.8366,3.7965,3.7211,3.6732,3.6405,3.6405,3.6405,3.6405,3.6405,3.6405,3.6405,3.6405,3.5667,3.468,0.0,0.0,0.0,0.0,0.0,0.0,0.0,0.0,0.0,0.0,0.0,0.0,0.0,0.0,0.0,0.0,0.0,0.0,3.2514,0.0,0.0,3.428,3.5454,3.6122,3.6122,3.7215,3.7814,3.7814,3.6677,3.6122,3.6068,3.4947,3.4391,3.4391,3.4391,3.4391,3.4391,3.4391,3.4391,3.4391,3.4391,3.5256,3.6511,3.6511,0.0,0.0,0.0,0.0,0.0,3.9672,3.9697,3.9697,3.9697,3.9697,3.9697,3.9697,3.9697,3.9697,3.9697,3.9697,3.9697,3.9697,3.9697,3.9697,3.9697,3.9697,3.9697,3.9697,4.0162,4.0727,4.1188,4.1806,4.2426,4.2898,4.2974,4.2974,4.2974,4.2974,4.2974,4.2974,4.2974,4.2974,4.2974,4.2974,4.2974,4.2974,4.2974,4.2974,4.2974,4.2974,4.2961,4.2936,4.1894,4.1275,4.125,4.0224,3.9697,3.9697,3.9697,3.9685,3.9609,3.8517,3.799,3.7902,3.6822,3.6405,3.6405,3.6405,3.6405,3.6405,3.6405,3.6405,3.6405,3.6405,3.5667,3.468,0.0,0.0,0.0,0.0,0.0,0.0,0.0,0.0,0.0,0.0,0.0,0.0,0.0,0.0,0.0,0.0,0.0,0.0,3.1344,0.0,0.0,0.0,0.0,0.0,0.0,0.0,0.0,0.0,0.0,3.4836,3.4836,3.4558,3.4391,3.4391,3.4391,3.4391,3.4391,3.4391,3.4391,3.4391,0.0,3.4614,3.4991,0.0,0.0,0.0,0.0,0.0,3.7227,3.9075,3.9697,3.9697,3.9697,3.9697,3.9697,3.9697,3.9697,3.9697,3.9697,3.9697,3.9697,3.9697,3.9697,3.9697,3.9697,3.9697,3.9697,3.9697,4.0463,4.1125,4.1263,4.212,4.2811,4.2949,4.2974,4.2974,4.2974,4.2974,4.2974,4.2974,4.2974,4.2974,4.2974,4.2974,4.2974,4.2974,4.2974,4.2974,4.2974,4.2974,4.2841,4.2439,4.1693,4.1087,4.0727,4.0036,3.9697,3.9697,3.9697,3.9484,3.9057,3.8329,3.7789,3.7362,3.6707,3.6405,3.6405,3.6405,3.6405,3.6405,3.6405,3.6405,3.6405,3.6405,3.5667,3.468,0.0,0.0,0.0,0.0,0.0,0.0,0.0,0.0,0.0,0.0,0.0,0.0,0.0,0.0,0.0,0.0,0.0,0.0,0.0,0.0,0.0,0.0,0.0,0.0,0.0,0.0,0.0,0.0,0.0,0.0,0.0,3.3119,3.2835,3.2835,3.2835,3.2835,3.2835,3.2835,0.0,0.0,0.0,0.0,0.0,0.0,0.0,0.0,0.0,0.0,3.6593,3.8148,3.9123,3.9697,3.9697,3.9697,3.9697,3.9697,3.9697,3.9697,3.9697,3.9697,3.9697,3.9697,3.9697,3.9697,3.9697,3.9697,3.9697,3.9697,4.0375,4.1,4.125,4.2045,4.2753,4.2936,4.2974,4.2974,4.2974,4.2974,4.2974,4.2974,4.2974,4.2974,4.2974,4.2974,4.2974,4.2974,4.2974,4.2974,4.2974,4.2974,4.2778,4.2225,4.1618,4.0912,4.0162,3.9848,3.9697,3.9697,3.9697,3.9408,3.8906,3.8278,3.7701,3.7149,3.6644,3.6405,3.6405,3.6405,3.6405,3.6405,3.6405,3.6405,3.6405,3.6405,3.5667,3.468,0.0,0.0,0.0,0.0,0.0,0.0,0.0,0.0,0.0,0.0,2.4849,2.5864,0.0,0.0,0.0,0.0,0.0,0.0,0.0,0.0,0.0,0.0,0.0,0.0,0.0,0.0,0.0,0.0,0.0,0.0,0.0,0.0,0.0,0.0,0.0,0.0,0.0,0.0,0.0,0.0,0.0,0.0,0.0,0.0,0.0,0.0,0.0,0.0,3.6645,3.7024,3.8261,3.9697,3.9697,3.9697,3.9697,3.9697,3.9697,3.9697,3.9697,3.9697,3.9697,3.9697,3.9697,3.9697,3.9697,3.9697,3.9697,3.9697,4.0136,4.0676,4.1188,4.1781,4.2389,4.2886,4.2974,4.2974,4.2974,4.2974,4.2974,4.2974,4.2974,4.2974,4.2974,4.2974,4.2974,4.2974,4.2974,4.2974,4.2974,4.2911,4.264,4.2011,4.1404,4.0664,3.9697,3.9697,3.9697,3.9697,3.9697,3.9371,3.8743,3.8241,3.7663,3.7048,3.6619,3.6405,3.6405,3.6405,3.6405,3.6405,3.6405,3.6405,3.6405,3.6405,3.5667,3.468,0.0,0.0,0.0,0.0,0.0,0.0,0.0,0.0,0.0,0.0,2.4006,2.4745,0.0,0.0,0.0,0.0,0.0,0.0,0.0,0.0,0.0,0.0,0.0,0.0,0.0,3.1392,3.1498,3.1498,3.1334,0.0,0.0,0.0,0.0,0.0,0.0,0.0,0.0,0.0,0.0,0.0,0.0,0.0,0.0,0.0,0.0,0.0,0.0,3.2851,0.0,0.0,3.7763,3.9697,3.9697,3.9697,3.9697,3.9697,3.9697,3.9697,3.9697,3.9697,3.9697,3.9697,3.9697,3.9697,3.9697,3.9697,3.9697,3.9697,4.0136,4.0676,4.1188,4.1781,4.2389,4.2886,4.2974,4.2974,4.2974,4.2974,4.2974,4.2974,4.2974,4.2974,4.2974,4.2974,4.2974,4.2974,4.2974,4.2974,4.2974,4.2602,4.1831,4.084,4.0262,3.9885,3.9697,3.9697,3.9697,3.9697,3.9697,3.9157,3.8153,3.8052,3.7462,3.6543,3.6455,3.6405,3.6405,3.6405,3.6405,3.6405,3.6405,3.6405,3.6405,3.6405,3.5667,3.468,0.0,0.0,0.0,0.0,0.0,0.0,0.0,2.2928,2.2928,2.2928,2.3344,2.394,2.4887,2.528,2.6178,0.0,0.0,0.0,0.0,0.0,0.0,0.0,0.0,0.0,0.0,3.0889,3.0889,3.0889,0.0,2.9844,2.9844,2.9194,2.8888,2.8829,2.8215,2.7907,0.0,0.0,0.0,0.0,0.0,0.0,0.0,0.0,0.0,0.0,0.0,0.0,0.0,0.0,3.6307,3.8371,3.9378,3.9697,3.9697,3.9697,3.9697,3.9697,3.9697,3.9697,3.9697,3.9697,3.9697,3.9697,3.9697,3.9697,3.9697,3.9697,3.991,4.0262,4.0761,4.1354,4.1907,4.2514,4.2841,4.2974,4.2974,4.2974,4.2974,4.2974,4.2974,4.2974,4.2974,4.2974,4.2974,4.2974,4.2974,4.2974,4.2974,4.2183,4.1354,4.0538,3.9986,3.9697,3.9697,3.9697,3.9697,3.9697,3.9408,3.8818,3.8002,3.7713,3.7136,3.6405,3.6405,3.6405,3.6405,3.6405,3.6405,3.6405,3.6405,3.6405,3.6405,3.6405,3.5667,3.468,0.0,0.0,0.0,0.0,0.0,0.0,2.2928,2.2928,2.2928,2.2928,2.2928,2.344,2.4915,2.4628,2.5036,0.0,0.0,0.0,0.0,0.0,0.0,0.0,0.0,0.0,0.0,0.0,0.0,3.0039,2.9294,0.0,0.0,0.0,0.0,0.0,2.671,2.6589,2.6589,2.6505,0.0,0.0,0.0,2.6553,0.0,0.0,0.0,0.0,0.0,2.9599,3.118,3.2635,3.4635,3.6776,3.859,3.9429,3.9697,3.9697,3.9697,3.9697,3.9697,3.9697,3.9697,3.9697,3.9697,3.9697,3.9697,3.9697,3.9697,3.9697,3.9697,3.986,4.0413,4.0811,4.1379,4.2099,4.2577,4.2848,4.2961,4.2974,4.2974,4.2974,4.2974,4.2974,4.2974,4.2974,4.2974,4.2974,4.2873,4.2748,4.2635,4.1693,4.0862,4.0362,3.9923,3.9697,3.9697,3.9697,3.9697,3.9685,3.9132,3.8567,3.799,3.7437,3.6933,3.6405,3.6405,3.6405,3.6405,3.6405,3.6405,3.6405,3.6405,3.6405,3.6405,3.6405,3.5667,3.468,0.0,0.0,0.0,0.0,0.0,0.0,2.2928,2.2928,2.2928,2.2928,2.2928,2.3195,2.4053,2.381,2.4145,0.0,0.0,0.0,0.0,0.0,0.0,0.0,0.0,0.0,0.0,0.0,0.0,2.7383,2.8385,0.0,0.0,0.0,0.0,0.0,0.0,2.5256,2.5232,2.4851,0.0,0.0,0.0,0.0,0.0,0.0,0.0,0.0,0.0,2.9237,3.0496,3.1442,3.3395,3.5595,3.707,3.8539,3.9697,3.9697,3.9697,3.9697,3.9697,3.9697,3.9697,3.9697,3.9697,3.9697,3.9697,3.9697,3.9697,3.9697,3.9697,3.986,4.0413,4.0563,4.094,4.2037,4.225,4.2451,4.2898,4.2974,4.2974,4.2974,4.2974,4.2974,4.2974,4.2974,4.2974,4.2974,4.2577,4.2007,4.1517,4.0927,4.0337,3.9785,3.9722,3.9697,3.9697,3.9697,3.9697,3.9685,3.9132,3.8567,3.799,3.7437,3.6933,3.6405,3.6405,3.6405,3.6405,3.6405,3.6405,3.6405,3.6405,3.6405,3.6405,3.6405,3.5667,3.468,0.0,0.0,0.0,0.0,0.0,0.0,2.355,2.3208,2.2996,2.3201,2.3201,2.3406,2.3959,2.405,2.4251,2.4634,2.4456,0.0,0.0,0.0,0.0,0.0,0.0,0.0,0.0,0.0,2.9048,2.9372,2.8283,0.0,0.0,0.0,0.0,0.0,0.0,2.3907,2.3899,2.3701,0.0,0.0,0.0,0.0,0.0,0.0,0.0,0.0,0.0,0.0,2.928,3.0632,3.196,3.3406,3.5595,3.7166,3.8462,3.9429,3.9697,3.9697,3.9697,3.9697,3.9697,3.9697,3.9697,3.9697,3.9697,3.9697,3.9697,3.9697,3.9697,3.976,3.9986,4.0287,4.0664,4.1091,4.1773,4.2288,4.2502,4.2828,4.2974,4.2974,4.2974,4.2974,4.2974,4.2974,4.2891,4.2564,4.1668,4.1078,4.0852,4.0639,4.0262,3.971,3.9697,3.9697,3.9697,3.9697,3.9534,3.9195,3.8617,3.8052,3.75,3.6935,3.6619,3.6405,3.6405,3.6405,3.6405,3.6405,3.6405,3.6405,3.6405,3.6405,3.6405,3.6405,3.5667,3.468,0.0,0.0,0.0,0.0,0.0,2.3679,2.3959,2.355,2.3345,2.3543,2.3475,2.3611,2.4095,2.4299,2.4355,2.4276,2.3925,0.0,0.0,0.0,0.0,0.0,0.0,0.0,0.0,0.0,2.882,2.9736,2.8283,2.7375,0.0,0.0,2.3658,2.3658,0.0,0.0,0.0,0.0,0.0,0.0,0.0,0.0,0.0,0.0,0.0,0.0,0.0,0.0,0.0,0.0,0.0,3.1765,3.4334,0.0,0.0,3.8926,3.9572,3.9697,3.9697,3.9697,3.9697,3.9697,3.9697,3.9697,3.9697,3.9697,3.9697,3.9697,3.9697,3.9697,3.9697,4.0011,4.0325,0.0,4.1166,4.1731,4.1894,4.2384,4.2791,4.2791,4.2873,4.2911,4.2803,4.2585,4.2258,4.1718,4.0953,4.0438,4.0275,4.0275,4.0099,3.9697,3.9697,3.9697,3.9697,3.9697,3.9421,3.8906,3.8278,3.7713,3.7161,3.6656,3.6405,3.6405,3.6405,3.6405,3.6405,3.6405,3.6405,3.6405,3.6405,3.6405,3.6405,3.6405,3.5667,3.468,0.0,0.0,0.0,0.0,0.0,2.4027,2.4027,2.3959,2.3959,2.3959,2.3679,2.3679,2.4435,2.4231,2.4171,2.4591,2.4269,0.0,0.0,0.0,0.0,0.0,0.0,0.0,0.0,0.0,2.7021,2.7013,2.8265,2.8265,2.6952,2.5676,2.5071,2.501,0.0,0.0,0.0,0.0,2.2747,2.2356,0.0,0.0,0.0,0.0,0.0,0.0,0.0,0.0,0.0,0.0,0.0,0.0,0.0,3.4769,3.6047,0.0,3.927,3.9697,3.9697,3.9697,3.9697,3.9697,3.9697,3.9697,3.9697,3.9697,3.9697,3.9697,3.9697,3.9697,3.9697,3.9697,3.9885,4.0425,4.0526,4.0727,4.1213,4.1819,4.2213,4.2213,4.2703,4.276,4.2263,4.1681,4.1075,4.0576,4.0526,4.0275,3.9735,3.9697,3.9697,3.9697,3.9697,3.9697,3.9697,3.9697,3.9421,3.8906,3.8278,3.7713,3.7161,3.6656,3.6405,3.6405,3.6405,3.6405,3.6405,3.6405,3.6405,3.6405,3.6405,3.6405,3.6405,3.6405,3.5667,3.468,0.0,0.0,0.0,0.0,0.0,0.0,2.4713,2.4299,2.4095,2.4299,2.4231,2.4224,2.4503,2.4645,2.4805,2.4913,2.4672,0.0,0.0,0.0,0.0,0.0,0.0,0.0,0.0,2.6771,2.7435,2.8325,2.7829,2.6927,2.5676,2.5317,2.4579,2.372,2.427,2.3969,0.0,2.2871,2.2886,2.3177,0.0,0.0,2.6127,0.0,0.0,0.0,0.0,0.0,0.0,0.0,0.0,0.0,0.0,0.0,0.0,3.7097,3.8391,3.9132,3.9132,3.9408,3.9697,3.9697,3.9697,3.9697,3.9697,3.9697,3.9697,3.9697,3.9697,3.9697,3.9697,3.9697,3.9747,3.9923,4.0275,4.0576,4.0752,4.1254,4.1593,4.1593,4.1743,4.1794,4.1618,4.1103,4.0701,4.0526,4.0174,3.9873,3.9697,3.9697,3.9697,3.9697,3.9697,3.9697,3.9697,3.932,3.8843,3.8278,3.7713,3.7161,3.6669,3.6493,3.6405,3.6405,3.6405,3.6405,3.6405,3.6405,3.6405,3.6405,3.6405,3.6405,3.6405,3.6405,3.5667,3.468,0.0,0.0,0.0,0.0,0.0,0.0,2.5052,2.4713,2.451,2.4713,2.457,2.457,2.4706,2.4781,2.4916,2.5119,2.4936,0.0,0.0,0.0,0.0,0.0,0.0,0.0,2.6225,2.6286,2.7125,2.892,2.8128,2.7598,2.7254,2.6762,2.6086,2.5293,2.5676,2.537,0.0,2.4205,2.4206,2.4458,0.0,0.0,2.6636,0.0,0.0,0.0,0.0,0.0,0.0,0.0,0.0,0.0,0.0,0.0,0.0,0.0,3.7513,3.8278,3.8492,3.8956,3.9383,3.9383,3.9534,3.9697,3.9697,3.9697,3.9697,3.9697,3.9697,3.9697,3.9697,3.9697,3.9697,3.9697,3.9986,4.0212,4.0212,4.0676,4.105,4.1263,4.11,4.0974,4.0974,4.0526,4.0212,4.0212,3.9885,3.9697,3.9697,3.9697,3.9697,3.9697,3.9697,3.9697,3.9697,3.9145,3.858,3.8002,3.745,3.6945,3.6405,3.6405,3.6405,3.6405,3.6405,3.6405,0.0,3.6405,3.6405,3.6405,3.6405,3.6405,3.6405,3.6405,3.5793,3.4956,0.0,0.0,0.0,0.0,0.0,0.0,0.0,2.5127,2.5127,2.5127,2.4781,2.4706,2.5052,2.4781,2.4713,2.5059,2.5127,0.0,0.0,0.0,0.0,0.0,0.0,0.0,2.5071,2.5194,2.6399,2.8742,2.8861,2.9481,3.0587,2.9412,2.8861,2.8742,2.7607,2.7056,2.6953,2.6627,2.6299,2.6076,2.685,2.6921,0.0,0.0,0.0,0.0,0.0,0.0,0.0,0.0,0.0,0.0,0.0,0.0,0.0,0.0,0.0,0.0,0.0,3.8341,3.8869,3.8906,3.9258,3.9647,3.9685,3.9697,0.0,3.9697,3.9697,3.9697,3.9697,3.9697,3.9697,3.9697,3.9697,3.9697,3.9697,4.0136,4.0651,4.1112,4.0777,4.0463,4.0463,3.9998,3.9697,3.9697,3.9697,3.9697,3.9697,3.9697,3.9697,3.9697,3.9697,3.9672,3.9634,3.9082,3.8517,3.7939,3.7387,3.6908,3.6405,3.6405,3.6405,3.6405,3.6405,3.6405,3.6405,3.6405,3.6405,3.6405,3.6405,3.6405,3.6405,3.6405,3.6019,3.542,0.0,0.0,0.0,0.0,0.0,0.0,0.0,0.0,0.0,0.0,2.4991,2.4984,2.5119,2.4991,2.4984,0.0,0.0,0.0,0.0,0.0,0.0,0.0,0.0,0.0,2.5071,2.6042,2.6831,2.7435,2.8444,2.8564,2.7924,2.8564,2.8385,2.7495,2.8146,2.7738,2.6618,2.6224,2.6364,2.6888,2.6719,2.7163,0.0,0.0,0.0,0.0,2.8291,2.8291,0.0,0.0,0.0,0.0,0.0,0.0,0.0,0.0,3.6505,3.6631,3.6757,0.0,3.8316,3.8755,3.8969,3.9182,0.0,3.9697,3.9697,3.9697,3.9697,3.9697,3.9697,3.9697,3.9697,3.9697,3.9697,3.9697,3.9697,3.981,3.9936,4.0061,3.9961,3.9885,3.9885,3.9772,3.9697,3.9697,3.9697,3.9697,3.9697,3.9697,3.9697,3.9697,3.9697,3.9484,3.9069,3.8492,3.7927,3.7374,3.6822,3.6531,3.6405,3.6405,3.6405,3.6405,3.6405,3.6405,3.6405,3.6405,3.6405,3.6405,3.6405,3.6405,3.6405,3.6405,3.6019,3.542,0.0,0.0,0.0,0.0,0.0,0.0,0.0,0.0,0.0,0.0,2.5127,2.5127,2.5127,2.5127,2.5127,0.0,0.0,0.0,0.0,0.0,0.0,0.0,0.0,2.3886,2.5071,2.5806,2.671,2.7847,2.8564,2.887,2.8829,2.9481,2.9422,2.8829,2.9481,2.93,2.8482,2.8321,2.8234,2.8293,2.8011,0.0,0.0,0.0,0.0,0.0,2.8291,2.8291,0.0,2.892,2.9079,2.9586,0.0,0.0,0.0,0.0,3.6405,3.6405,3.6405,3.6973,3.7764,3.8329,3.868,3.9019,3.9572,3.9697,3.9697,3.9697,3.9697,3.9697,3.9697,3.9697,3.9697,3.9697,3.9697,3.9697,3.9697,3.9697,3.9697,3.9697,3.9697,3.9697,3.9697,3.9697,3.9697,3.9697,3.9697,3.9697,3.9697,3.9697,3.9697,3.9697,3.9446,3.917,3.8919,3.8304,3.7726,3.7174,3.6669,3.6405,3.6405,3.6405,3.6405,3.6405,3.6405,3.6405,3.6405,3.6405,3.6405,3.6405,3.6405,3.6405,3.6405,3.6405,3.6169,3.5805,0.0,0.0,0.0,0.0,0.0,0.0,0.0,0.0,0.0,0.0,0.0,0.0,0.0,0.0,0.0,0.0,0.0,0.0,0.0,0.0,0.0,0.0,2.3771,2.4066,2.5079,2.5317,2.6512,2.892,2.9107,2.9785,3.0889,3.0889,3.0889,3.0889,3.0889,3.0889,3.0889,3.081,3.0312,2.956,2.9502,0.0,0.0,0.0,0.0,0.0,0.0,0.0,0.0,2.892,2.9079,2.9586,3.2336,0.0,0.0,0.0,0.0,0.0,3.6405,3.6744,3.7199,3.7739,3.8316,3.8881,3.9433,0.0,0.0,0.0,3.9697,3.9697,3.9697,3.9839,3.989,3.9749,3.9697,3.9697,3.9697,3.9697,3.9697,3.9697,3.9697,3.9697,3.9697,3.9697,3.9697,3.9697,3.9697,3.9697,3.9697,3.9697,3.9697,3.9697,3.9157,3.8881,3.8743,3.8165,3.76,3.7048,3.6631,3.6405,3.6405,3.6405,3.6405,3.6405,3.6405,3.6405,3.6405,3.6405,3.6405,3.6405,3.6405,3.6405,3.6405,3.6405,3.6405,3.6254,0.0,0.0,0.0,0.0,0.0,0.0,0.0,0.0,0.0,0.0,0.0,0.0,0.0,0.0,0.0,0.0,0.0,0.0,0.0,0.0,0.0,2.4108,2.3771,2.4066,2.5079,2.6164,2.7426,2.892,3.003,3.0704,3.0889,3.0889,3.0889,3.0889,3.0889,3.0889,3.0869,3.0469,3.0019,2.9597,2.917,0.0,0.0,0.0,0.0,0.0,0.0,0.0,0.0,2.892,2.9079,2.9586,3.2336,0.0,0.0,0.0,0.0,0.0,3.6405,3.6468,3.6669,3.7174,3.7726,3.8291,3.8868,3.9358,0.0,0.0,3.9697,3.9697,3.9697,4.0415,4.0693,3.9839,3.9697,3.9697,3.9697,3.9697,3.9697,3.9697,3.9697,3.9697,3.9697,3.9697,3.9697,3.9697,3.9697,3.9697,3.9697,3.9697,3.9697,3.9697,3.9157,3.863,3.814,3.7588,3.7036,3.6531,3.6455,3.6405,3.6405,3.6405,3.6405,3.6405,3.6405,3.6405,3.6405,3.6405,3.6405,3.6405,3.6405,3.6405,3.6405,3.6405,3.6405,3.6254,0.0,0.0,0.0,0.0,0.0,0.0,0.0,0.0,0.0,0.0,0.0,0.0,0.0,0.0,0.0,0.0,0.0,0.0,0.0,0.0,2.4833,2.4108,2.4634,2.5305,2.612,2.7366,2.8692,2.9962,3.0587,3.0889,3.0889,3.0889,3.0889,3.0889,3.0889,3.0889,3.0879,3.0664,3.0185,2.9551,0.0,0.0,0.0,0.0,0.0,0.0,0.0,0.0,0.0,0.0,2.9079,2.9586,3.2336,0.0,0.0,0.0,0.0,0.0,3.6405,3.6405,3.6468,3.6719,3.7374,3.8228,3.912,3.9509,3.9697,3.9697,3.9697,3.9697,3.9697,4.007,4.0415,4.0503,4.0503,4.0503,4.0503,4.0995,4.0958,3.9839,4.0173,4.0313,3.9736,3.9697,3.9697,3.9697,3.9697,3.9697,3.9697,3.9697,3.9559,3.9258,3.8693,3.8128,3.7563,3.7059,3.6656,3.6405,3.6405,3.6405,3.6405,3.6405,3.6405,3.6405,3.6405,3.6405,3.6405,3.6405,3.6405,3.6405,3.6405,3.6405,3.6405,3.6405,3.6028,3.5403,0.0,0.0,0.0,0.0,0.0,0.0,0.0,0.0,0.0,0.0,0.0,0.0,0.0,0.0,0.0,0.0,0.0,0.0,0.0,2.5127,2.496,2.4555,2.5792,2.666,2.6969,2.8265,2.953,3.0889,3.0889,3.0889,3.0889,3.0889,3.0889,3.0889,3.0889,3.0889,3.0889,3.0889,3.0381,2.9626,0.0,0.0,0.0,0.0,0.0,0.0,0.0,0.0,0.0,0.0,0.0,0.0,0.0,0.0,0.0,3.5763,3.6405,3.6405,3.6405,3.6405,3.6468,3.6732,3.7374,3.8228,3.9107,3.9496,3.9788,3.9981,4.0032,4.0134,4.0377,4.0224,4.0364,4.1419,4.1369,4.1219,4.1219,4.2097,4.2208,4.0618,4.0895,4.0882,4.0121,3.9839,3.9697,3.9697,3.9697,3.9697,3.9697,3.9697,3.9433,3.8944,3.8304,3.7739,3.7199,3.6681,3.6405,3.6405,3.6405,3.6405,3.6405,3.6405,3.6405,3.6405,3.6405,3.6405,3.6405,3.6405,3.6405,3.6405,3.6405,3.6405,3.6405,3.6405,3.5667,3.468,0.0,0.0,0.0,0.0,0.0,0.0,0.0,0.0,0.0,0.0,0.0,0.0,0.0,0.0,0.0,0.0,0.0,0.0,0.0,2.5127,2.5352,2.5823,2.7115,2.7588,2.703,2.8265,2.953,3.0889,3.0889,3.0889,3.0889,3.0889,3.0889,3.0889,3.0889,3.0889,3.0889,3.0889,3.0381,2.9626,2.9626,0.0,0.0,0.0,0.0,0.0,0.0,0.0,0.0,0.0,0.0,0.0,0.0,0.0,3.3648,3.5763,3.6405,3.6405,3.6405,3.6405,3.6656,3.7638,3.7952,3.8027,3.8103,3.8944,3.9981,4.0882,4.1082,4.1419,4.2404,4.1766,4.1419,4.2501,4.1864,4.1219,4.1219,4.2097,4.2744,4.2598,4.1766,4.1169,4.1082,4.0275,3.9697,3.9697,3.9697,3.9697,3.9697,3.9697,3.9433,3.8944,3.8304,3.7739,3.7199,3.6681,3.6405,3.6405,3.6405,3.6405,3.6405,3.6405,3.6405,3.6405,3.6405,3.6405,3.6405,3.6405,3.6405,3.6405,3.6405,3.6405,3.6405,3.6405,3.5667,3.468,0.0,0.0,0.0,0.0,0.0,0.0,0.0,0.0,0.0,0.0,0.0,2.5127,2.5127,0.0,0.0,0.0,0.0,0.0,0.0,2.5127,2.5352,2.5952,2.7297,2.8076,2.8164,2.9481,3.0401,3.0889,3.0889,3.1005,3.117,3.1005,3.0995,3.116,3.0937,3.0889,3.0889,3.0889,3.0381,2.9626,2.9626,2.9062,0.0,0.0,0.0,0.0,0.0,0.0,0.0,0.0,2.9501,3.0015,3.2448,3.3201,3.3648,3.5763,3.6405,3.6405,3.6405,3.6405,3.6593,3.7312,3.7751,3.8376,3.9695,4.0333,4.0945,4.1963,4.2195,4.2293,4.2744,4.2452,4.2536,4.3545,4.3402,4.315,4.315,4.4031,4.4247,4.2937,4.3019,4.2861,4.2257,4.1232,4.0655,4.0655,4.0032,3.9697,3.9697,3.9371,3.8919,3.8354,3.7789,3.7224,3.6719,3.6518,3.6405,3.6405,3.6405,3.6405,3.6405,3.6405,3.6405,3.6405,3.6405,3.6405,3.6405,3.6405,3.6405,3.6405,3.6405,3.6405,3.6367,3.5981,3.5378,3.4675,0.0,0.0,0.0,0.0,0.0,0.0,0.0,0.0,2.5127,0.0,0.0,0.0,0.0,2.5127,0.0,0.0,0.0,0.0,2.5127,2.5024,2.5438,2.6575,2.7441,2.8386,2.949,3.046,3.0889,3.0889,3.1005,3.1054,3.116,3.117,3.1228,3.1325,3.1228,3.117,3.117,3.117,3.0657,2.9905,2.9905,2.9337,0.0,0.0,0.0,0.0,0.0,0.0,0.0,0.0,2.9659,3.012,3.2448,3.3201,3.3648,3.5763,3.6405,3.6405,3.6405,3.6405,3.6543,3.7048,3.788,3.9005,4.1018,4.1337,4.1604,4.2971,4.3559,4.3796,4.3796,4.3511,4.3497,4.4172,4.4312,4.4312,4.4312,4.5233,4.5353,4.3951,4.4078,4.4031,4.3355,4.1999,4.1319,4.1667,4.0465,3.9839,4.0173,3.936,3.8605,3.8027,3.7475,3.6923,3.6417,3.6405,3.6405,3.6405,3.6405,3.6405,3.6405,3.6405,3.6405,3.6405,3.6405,3.6405,3.6405,3.6405,3.6405,3.6405,3.6405,3.6405,3.6342,3.5696,3.5157,3.4638,0.0,0.0,0.0,0.0,0.0,0.0,0.0,0.0,2.5119,2.5127,2.5127,0.0,0.0,0.0,0.0,0.0,0.0,0.0,2.5127,2.4819,2.5639,2.7882,2.7687,2.8608,3.084,3.0889,3.0889,3.0889,3.116,3.116,3.0947,3.1508,3.1614,3.1325,3.1672,3.1787,3.1787,3.1787,3.1284,3.0535,3.047,2.9937,2.9089,0.0,0.0,0.0,0.0,0.0,0.0,0.0,2.9774,3.0349,3.2499,3.3201,3.3648,3.5763,3.6405,3.6405,3.6405,3.6405,3.6543,3.7048,3.8386,4.0034,4.1619,4.1586,4.1802,4.3876,4.5141,4.588,4.588,4.5049,4.4312,4.4312,4.4312,4.4312,4.4312,4.5247,4.588,4.588,4.4943,4.4312,4.4312,4.2425,4.1667,4.2744,4.0908,4.0173,4.1169,3.9726,3.8605,3.8027,3.7462,3.6958,3.6417,3.6405,3.6405,3.6405,3.6405,3.6405,3.6405,3.6405,3.6405,3.6405,3.6405,3.6405,3.6405,3.6405,3.6405,3.6405,3.6405,3.6405,3.6329,3.5683,3.5144,3.4638,0.0,0.0,0.0,0.0,0.0,0.0,0.0,0.0,2.6174,2.5187,2.5127,0.0,0.0,0.0,0.0,0.0,0.0,0.0,2.5127,2.5603,2.6542,2.7946,2.8562,2.9462,3.0898,3.1112,3.116,3.116,3.1276,3.1508,3.1855,3.1855,3.1845,3.2018,3.1845,3.1787,3.1787,3.1787,3.1455,3.0902,3.059,3.0128,2.9574,0.0,0.0,0.0,0.0,0.0,0.0,0.0,0.0,0.0,3.2499,3.3201,3.3648,3.5763,3.6405,3.6405,3.6405,3.6405,3.6543,3.7048,3.8386,4.0034,4.1619,4.2739,4.3782,4.5141,4.5685,4.588,4.588,4.564,4.5444,4.5444,4.5444,4.5444,4.5444,4.5685,4.588,4.588,4.564,4.5444,4.5444,4.4172,4.3497,4.3829,4.195,4.0882,4.1169,3.9344,3.8191,3.8015,3.7098,3.6568,3.6405,3.6405,3.6405,3.6405,3.6405,3.6405,3.6405,3.6405,3.6405,3.6405,3.6405,3.6405,3.6405,3.6405,3.6405,3.6405,3.6405,3.6119,3.5717,3.5119,3.4613,3.406,0.0,0.0,0.0,0.0,0.0,0.0,2.8065,2.7932,2.761,2.6828,2.6241,2.5906,0.0,0.0,0.0,0.0,0.0,0.0,2.5846,2.6183,2.7034,2.8753,2.9094,2.9733,3.0898,3.116,3.1383,3.1498,3.1614,3.1845,3.2076,3.2143,3.2201,3.2305,3.2201,3.2143,3.2143,3.2143,3.1879,3.1431,3.105,3.0591,3.0089,0.0,0.0,0.0,0.0,0.0,0.0,0.0,0.0,0.0,3.2499,3.3201,3.3648,3.5763,3.6405,3.6405,3.6405,3.6405,3.6493,3.682,3.8541,4.0784,4.306,4.4259,4.5095,4.579,4.588,4.588,4.588,4.588,4.588,4.588,4.588,4.588,4.588,4.588,4.588,4.588,4.588,4.588,4.588,4.4943,4.4452,4.4897,4.3019,4.1758,4.1519,3.9677,3.8331,3.7688,3.687,3.6405,3.6405,3.6405,3.6405,3.6405,3.6405,3.6405,3.6405,3.6405,3.6405,3.6405,3.6405,3.6405,3.6405,3.6405,3.6405,3.6405,3.6405,3.6031,3.5433,3.4881,3.4374,3.3822,0.0,0.0,3.1515,3.1515,0.0,0.0,2.9378,2.9378,2.9378,2.9248,2.8073,2.7278,0.0,0.0,0.0,2.545,0.0,0.0,0.0,2.6688,2.7495,3.0007,2.942,2.9658,3.0889,3.1228,3.1498,3.1845,3.2133,3.2143,3.1903,3.243,3.2555,3.2373,3.2612,3.2669,3.2669,3.2669,3.2432,3.2008,3.1567,3.1122,3.0698,3.0191,0.0,0.0,0.0,0.0,0.0,0.0,0.0,0.0,3.2499,3.3201,3.3648,3.5763,3.6405,3.6405,3.6405,3.6405,3.6405,3.6499,3.8925,4.204,4.5201,4.588,4.588,4.588,4.588,4.588,4.588,4.588,4.588,4.588,4.588,4.588,4.588,4.588,4.588,4.588,4.588,4.588,4.588,4.5003,4.4851,4.5835,4.4045,4.2712,4.2173,4.0526,3.8925,3.7392,3.6742,3.6405,3.6405,3.6405,3.6405,3.6405,3.6405,3.6405,3.6405,3.6405,3.6405,3.6405,3.6405,3.6405,3.6405,3.6405,3.6405,3.6405,3.6355,3.5956,3.5357,3.4806,3.4299,3.3759,0.0,0.0,3.2965,3.2965,0.0,0.0,3.1001,3.0863,3.0475,2.9313,2.8928,2.8732,2.8732,2.846,0.0,2.8337,2.8337,0.0,0.0,2.9055,2.9511,3.0069,3.0357,3.0694,3.1218,3.1508,3.1845,3.219,3.2248,3.2373,3.2498,3.2612,3.2669,3.2612,3.2669,3.2669,3.2669,3.2669,3.2618,3.2452,3.1702,3.1319,3.1143,3.0315,2.9994,0.0,0.0,0.0,0.0,0.0,0.0,0.0,3.2499,3.3201,3.3648,3.5763,3.6405,3.6405,3.6405,3.6405,3.6593,3.7315,3.9892,4.284,4.5351,4.588,4.588,4.588,4.588,4.588,4.588,4.588,4.588,4.588,4.588,4.588,4.588,4.588,4.588,4.588,4.588,4.588,4.588,4.5685,4.564,4.588,4.4712,4.3705,4.3152,4.0857,3.9198,3.8308,3.7061,3.6405,3.6405,3.6405,3.6405,3.6405,3.6405,3.6405,3.6405,3.6405,3.6405,3.6405,3.6405,3.6405,3.6405,3.6405,3.6405,3.6367,3.5893,3.5332,3.4826,3.4274,3.3721,3.3275,0.0,0.0,0.0,0.0,0.0,0.0,0.0,0.0,3.2046,3.1332,3.0613,3.0216,3.0216,2.9574,0.0,0.0,2.9182,2.9509,3.0151,3.0131,3.022,3.0455,3.0868,3.117,3.1325,3.1787,3.2133,3.2305,3.243,3.2555,3.2669,3.2669,3.2669,3.2669,3.2669,3.2669,3.2669,3.2669,3.2669,3.2597,3.1743,3.1381,3.1278,3.0346,2.9994,2.9994,2.9994,0.0,0.0,0.0,0.0,0.0,0.0,0.0,3.3648,3.5763,3.6405,3.6405,3.6405,3.6405,3.6832,3.8516,4.0414,4.2485,4.4888,4.5648,4.588,4.588,4.588,4.588,4.588,4.588,4.588,4.588,4.588,4.588,4.588,4.588,4.588,4.588,4.588,4.588,4.588,4.588,4.588,4.588,4.5398,4.4453,4.3051,4.1289,3.9667,3.8279,3.7062,3.6405,3.6405,3.6405,3.6405,3.6405,3.6405,3.6405,3.6405,3.6405,3.6405,3.6405,3.6405,3.6405,3.6405,3.6405,3.6405,3.6355,3.5768,3.5157,3.4663,3.411,3.3558,3.3124,0.0,0.0,0.0,0.0,0.0,0.0,0.0,0.0,0.0,3.3418,3.2365,3.1643,3.1643,3.0613,2.99,0.0,0.0,0.0,3.1487,3.0791,3.0517,3.0976,3.116,3.1325,3.1441,3.2018,3.2305,3.2373,3.2612,3.2669,3.2669,3.2669,3.2669,3.2669,3.2669,3.2669,3.2669,3.2669,3.2669,3.2597,3.1743,3.1381,3.1278,3.0346,2.9994,2.9994,2.9994,2.9994,2.9994,2.9994,0.0,0.0,0.0,0.0,3.3598,3.5571,3.6263,3.6405,3.6405,3.6499,3.7177,3.9392,4.0577,4.1795,4.4115,4.5211,4.575,4.5866,4.588,4.588,4.588,4.588,4.588,4.588,4.588,4.588,4.588,4.588,4.588,4.588,4.588,4.588,4.588,4.588,4.588,4.588,4.588,4.4987,4.2869,4.1722,4.0156,3.8109,3.6989,3.6405,3.6405,3.6405,3.6405,3.6405,3.6405,3.6405,3.6405,3.6405,3.6405,3.6405,3.6405,3.6405,3.6405,3.6405,3.6405,3.6342,3.5608,3.5082,3.4638,3.3997,3.347,3.3124,0.0,0.0,0.0,0.0,0.0,0.0,0.0,0.0,0.0,0.0,3.3228,3.3092,3.3092,3.2965,3.2838,3.2838,3.2838,3.2748,3.2579,0.0,0.0,3.1238,3.1267,3.1556,3.2133,3.2248,3.243,3.2669,3.2669,3.2669,3.2669,3.2669,3.2669,3.2669,3.2669,3.2669,3.2669,3.2669,3.2669,3.2597,3.1743,3.1381,3.1278,3.0346,2.9994,2.9994,2.9994,2.9994,2.9994,2.9994,2.9994,0.0,0.0,0.0,3.3449,3.4678,3.5667,3.6405,3.6405,3.6989,3.7814,3.8747,4.0264,4.1892,4.3373,4.4403,4.5184,4.5764,4.588,4.588,4.588,4.588,4.588,4.588,4.588,4.588,4.588,4.588,4.588,4.588,4.588,4.588,4.588,4.588,4.588,4.588,4.588,4.5284,4.3864,4.2098,4.0477,3.9073,3.7289,3.6405,3.6405,3.6405,3.6405,3.6405,3.6405,3.6405,3.6405,3.6405,3.6405,3.6405,3.6405,3.6405,3.6405,3.6405,3.6405,3.6304,3.5228,3.4743,3.46,3.3571,3.3144,3.3124,0.0,0.0,0.0,0.0,0.0,0.0,0.0,0.0,0.0,0.0,0.0,3.3985,3.3985,3.3985,3.3985,3.3985,3.3579,3.2969,3.2129,3.1898,3.1614,3.1286,3.1672,3.2018,3.2305,3.243,3.2555,3.2669,3.2669,3.2669,3.2727,3.3388,3.3332,3.2669,3.2669,3.3058,3.366,3.3001,3.3115,3.3652,3.298,3.2757,3.265,3.1688,3.1325,3.1251,3.0339,2.9994,2.9994,2.9994,2.9994,3.0193,3.1278,0.0,0.0,0.0,3.5571,3.6405,3.6405,3.6675,3.7193,3.803,3.9148,4.03,4.1379,4.2953,4.4224,4.451,4.529,4.588,4.588,4.588,4.588,4.588,4.588,4.588,4.588,4.588,4.588,4.588,4.588,4.588,4.588,4.588,4.588,4.588,4.588,4.5329,4.4066,4.2665,4.108,3.9237,3.7887,3.6956,3.6417,3.6405,3.6405,3.6405,3.6405,3.6405,3.6405,3.6405,3.6405,3.6405,3.6405,3.6405,3.6405,3.6405,3.6405,3.6304,3.5152,3.468,3.4587,3.3483,3.3124,3.3124,0.0,0.0,0.0,0.0,0.0,0.0,0.0,0.0,0.0,0.0,0.0,3.4423,3.4423,0.0,0.0,0.0,3.3713,3.2911,3.1801,3.188,3.1847,3.1576,3.2018,3.2305,3.2373,3.2612,3.2669,3.2669,3.2556,3.2664,3.2926,3.3731,3.3842,3.3367,3.354,3.4089,3.4847,3.3976,3.4089,3.4869,3.4426,3.4227,3.4116,3.3182,3.2816,3.2594,3.0955,3.0391,3.0339,3.0099,2.9994,3.0151,3.0929,3.1942,0.0,0.0,0.0,3.6405,3.6405,3.6405,3.6593,3.7268,3.7983,3.8754,3.9623,4.1315,4.2747,4.3054,4.4297,4.5347,4.5461,4.573,4.588,4.588,4.588,4.588,4.588,4.588,4.588,4.588,4.588,4.588,4.588,4.588,4.588,4.588,4.5721,4.5155,4.4052,4.2891,4.1432,3.9634,3.8419,3.7441,3.6769,3.6499,3.6405,3.6405,3.6405,3.6405,3.6405,3.6405,3.6405,3.6405,3.6405,3.6405,3.6405,3.6405,3.6405,3.6304,3.5152,3.468,3.4587,3.3483,3.3124,3.3124,0.0,0.0,0.0,0.0,0.0,0.0,0.0,0.0,0.0,0.0,0.0,3.4423,3.4423,3.4423,3.4262,3.385,3.3789,3.3397,3.2443,3.1991,3.1933,3.2248,3.2305,0.0,3.2669,3.2669,3.2669,3.2669,3.2235,3.2556,3.354,3.3139,3.3806,3.5283,3.5817,3.6022,3.6131,3.6022,3.6022,3.6085,3.5581,3.5428,3.5313,3.4274,3.3907,3.3737,3.2108,3.1524,3.1381,3.0339,2.9994,2.9994,3.0047,3.0836,3.188,0.0,0.0,0.0,3.6405,3.6405,3.6405,3.6452,3.7155,3.8024,3.8641,3.9599,4.0691,4.1854,4.2907,4.3762,4.4293,4.5187,4.588,4.588,4.588,4.588,4.588,4.588,4.588,4.588,4.588,4.588,4.588,4.588,4.588,4.588,4.53,4.4661,4.4023,4.2479,4.1292,4.0532,3.8765,3.7763,3.7717,3.6862,3.6405,3.6405,3.6405,3.6405,3.6405,3.6405,3.6405,3.6405,3.6405,3.6405,3.6405,3.6405,3.6405,3.6304,3.5152,3.468,3.4587,3.3483,3.3124,3.3124,0.0,0.0,0.0,0.0,0.0,0.0,0.0,0.0,0.0,0.0,0.0,0.0,0.0,3.479,3.4626,3.4462,3.3668,3.2899,3.2059,3.2109,3.219,3.2305,3.243,3.2612,3.2669,3.2669,3.2669,3.2669,3.2215,3.2569,3.3617,3.3908,3.4946,3.6466,3.5955,3.6263,3.7233,3.6522,3.663,3.7275,3.7127,3.7056,3.6985,3.6351,3.6129,3.5868,3.3879,3.2704,3.199,3.1284,3.0588,2.9994,2.9994,3.0744,3.1931,3.3685,3.4775,3.5523,3.6203,3.6405,3.6405,3.6405,3.664,3.6947,3.7185,3.8277,3.9356,3.9841,4.1321,4.2576,4.2797,4.4503,4.588,4.588,4.588,4.588,4.588,4.588,4.588,4.588,4.588,4.588,4.588,4.588,4.588,4.588,4.5271,4.4632,4.4023,4.245,4.1002,3.9752,3.8464,3.7487,3.6909,3.6593,3.6405,3.6405,3.6405,3.6405,3.6405,3.6405,3.6405,3.6405,3.6405,3.6405,3.6405,3.6405,3.6405,3.6304,3.5152,3.468,3.4587,3.3483,3.3124,3.3124,0.0,3.4735,3.4797,3.5046,0.0,3.517,3.5356,3.5418,3.5418,3.5418,0.0,0.0,0.0,0.0,3.4526,3.437,3.342,3.2622,3.2106,3.2315,3.243,3.243,3.2612,3.2669,3.2669,3.2669,3.2597,3.2442,3.2347,3.278,3.3728,3.4418,3.5675,3.7353,3.661,3.7108,3.8437,3.7713,3.7832,3.8489,3.8489,3.8489,3.8441,3.802,3.7606,3.6996,3.5384,3.3982,3.2864,3.2541,3.1819,3.1002,3.064,3.1289,3.2437,3.3834,3.4775,3.5463,3.6216,3.6405,3.6405,3.6405,3.6405,3.6405,3.6405,3.7177,3.7989,3.8209,3.9685,4.1046,4.1401,4.318,4.4761,4.5264,4.5685,4.588,4.588,4.588,4.588,4.588,4.588,4.588,4.588,4.588,4.588,4.588,4.5082,4.4414,4.4008,4.2251,4.0473,3.8778,3.8115,3.7361,3.6405,3.6405,3.6405,3.6405,3.6405,3.6405,3.6405,3.6405,3.6405,3.6405,3.6405,3.6405,3.6405,3.6405,3.6405,3.6304,3.5152,3.468,3.4587,3.3483,3.3124,3.3124,3.5356,3.5418,3.5418,3.5418,3.5418,3.5418,3.5418,3.5407,3.5407,3.5407,0.0,0.0,0.0,0.0,0.0,3.3399,3.2975,3.2669,3.2669,3.2669,3.2669,3.2669,3.2669,3.2669,3.2659,3.2659,3.2432,3.1967,3.2598,3.3218,3.3907,3.4537,3.5942,3.799,3.8002,3.8617,3.9672,3.9685,3.9697,3.9697,3.9697,3.9697,3.9634,3.9094,3.8195,3.7108,3.663,3.5392,3.4004,3.4032,3.3687,3.3012,3.1931,3.2286,3.3151,3.3201,3.4678,3.6358,0.0,0.0,0.0,3.6405,3.6405,3.6405,3.6405,3.6405,3.6556,3.7048,3.7998,3.9092,4.0135,4.1216,4.2465,4.3966,4.5095,4.579,4.579,4.579,4.579,4.579,4.5835,4.5835,4.579,4.588,4.588,4.5835,4.4705,4.3993,4.3993,4.1824,3.9681,3.7808,3.7763,3.7315,3.6405,3.6405,3.6405,3.6405,3.6405,3.6405,3.6405,3.6405,3.6405,3.6405,3.6405,3.6405,3.6405,3.6405,3.6405,3.6279,3.514,3.4668,3.4562,3.3483,3.3124,3.3124,3.5356,3.5418,3.5418,3.5418,3.5418,3.5418,3.5418,3.5148,3.4941,0.0,0.0,0.0,3.4318,3.3844,3.3389,3.2944,3.2742,3.2669,3.2669,3.2669,3.2669,3.2669,3.2669,3.2514,3.2184,3.2173,3.2012,3.1557,3.2169,3.2949,3.3907,3.4537,3.5734,3.7425,3.7826,3.8417,3.9132,3.9521,3.9697,3.9697,3.9697,3.9697,3.9672,3.9521,3.9253,3.8896,3.8401,3.738,3.6316,3.586,3.4879,3.3531,3.2042,3.1779,3.2185,3.2951,3.419,3.5415,3.6216,0.0,0.0,0.0,0.0,0.0,3.6405,3.6405,3.6455,3.6606,3.7184,3.7858,3.8534,3.9852,4.1126,4.1955,4.2971,4.3654,4.3654,4.3654,4.3654,4.3654,4.428,4.4466,4.3701,4.5018,4.5595,4.4805,4.4279,4.3993,4.3993,4.1205,3.872,3.6862,3.6769,3.6675,3.6405,3.6405,3.6405,3.6405,3.6405,3.6405,3.6405,3.6405,3.6405,3.6405,3.6405,3.6405,3.6405,3.6405,3.6119,3.5658,3.4956,3.4474,3.4035,3.3332,3.3124,3.3124,3.5418,3.5418,3.5418,3.5418,3.5273,3.5148,3.5148,3.4766,3.4536,0.0,0.0,0.0,3.3524,3.3265,3.3006,3.269,3.2669,3.2669,3.2669,3.2669,3.2587,3.239,3.239,3.2173,3.1774,3.1764,3.1756,3.1762,3.2564,3.3436,3.429,3.5078,3.6231,3.7538,3.7864,3.8454,3.9233,3.9559,3.9697,3.9697,3.9697,3.9697,3.9697,3.9697,3.9374,3.8988,3.9167,3.8368,3.7236,3.7382,3.635,3.4738,3.3101,3.2599,3.2656,3.3058,3.3944,3.5017,3.6108,3.6405,3.6405,3.6405,0.0,0.0,3.6405,3.6405,3.6405,3.6405,3.6669,3.701,3.7563,3.8632,3.9576,4.0155,4.0939,4.1828,4.2695,4.2792,4.2792,4.2792,4.3307,4.345,4.284,4.3904,4.4527,4.4312,4.37,4.2952,4.2062,3.9871,3.7919,3.6452,3.6405,3.6405,3.6405,3.6405,3.6405,3.6405,3.6405,3.6405,3.6405,3.6405,3.6405,3.6405,3.6405,3.6405,3.6405,3.6405,3.6031,3.5445,3.4893,3.4387,3.3834,3.3282,3.3124,3.3124,0.0,3.5438,3.552,3.552,3.5155,3.4914,3.4914,3.4409,3.3989,0.0,3.3586,3.3161,3.2778,3.2669,3.2669,3.2669,3.2669,3.2669,3.2669,3.2669,3.2494,3.2081,3.206,3.1888,3.1391,3.1535,3.1794,3.223,3.3419,3.429,3.4824,3.598,3.6973,3.7927,3.804,3.8655,3.9609,3.9672,3.9697,3.9697,3.9697,3.9697,3.9697,3.9697,3.9037,3.8214,3.931,3.8716,3.7551,3.8564,3.785,3.6249,3.475,3.4294,3.4139,3.348,3.4026,3.5102,3.5978,3.6203,3.6263,3.6358,3.6405,0.0,3.6405,3.6405,3.6405,3.6405,3.6405,3.6568,3.7086,3.7588,3.8128,3.8768,3.9283,4.03,4.2195,4.2452,4.2452,4.2452,4.2536,4.2598,4.2452,4.2647,4.3088,4.3826,4.2789,4.1232,3.9176,3.8251,3.7361,3.6452,3.6405,3.6405,3.6405,3.6405,3.6405,3.6405,3.6405,3.6405,3.6405,3.6405,3.6405,3.6405,3.6405,3.6405,3.6405,3.6342,3.5943,3.5357,3.4868,3.4349,3.3746,3.3257,3.3124,3.3124,3.5418,3.59,3.6296,3.6296,3.5908,3.5585,3.5585,3.4439,3.3572,3.3572,3.313,3.283,3.2737,3.2669,3.2669,3.2669,3.2669,3.2669,3.2669,3.2669,3.2638,3.2545,3.2545,3.2209,3.1391,3.2189,3.2326,3.1717,3.3688,3.4676,3.4836,3.6365,3.7136,3.7387,3.8291,3.8831,3.9057,3.9509,3.9697,3.9697,3.9697,3.9697,3.9697,3.9697,3.953,3.9362,3.9633,3.9467,3.9137,3.8968,3.8109,3.6979,3.6171,3.5941,3.5643,3.4252,3.4616,3.5427,3.5187,3.5126,3.5319,3.6156,3.6405,0.0,3.6405,3.6405,3.6405,3.6405,3.6405,3.6568,3.7086,3.7274,3.7676,3.8756,3.9007,3.9335,4.0211,4.0326,4.0326,4.0326,4.1045,4.1182,4.0377,4.1828,4.2347,4.1236,4.0821,3.9893,3.8154,3.79,3.7361,3.6452,3.6405,3.6405,3.6405,3.6405,3.6405,3.6405,3.6405,3.6405,3.6405,3.6405,3.6405,3.6405,3.6405,3.6405,3.6367,3.5893,3.5332,3.4831,3.4718,3.411,3.3219,3.3162,3.3124,3.3124,3.679,3.699,3.7066,3.7066,3.6652,3.6329,3.6329,3.5453,3.4807,3.4807,3.46,3.4458,3.4458,3.4458,3.4458,3.4458,3.4458,3.4458,3.4458,3.4458,3.4349,3.4109,3.3566,3.3177,3.3092,3.3016,3.3346,3.3975,3.5058,3.5866,3.6431,3.7206,3.7751,3.8052,3.8668,3.9032,3.9295,3.9584,3.9697,3.9697,3.9697,3.9697,3.9697,3.9697,3.9697,3.9697,3.9697,3.9697,3.9647,3.9371,3.8963,3.8273,3.7197,3.6874,3.6612,3.5502,3.5184,3.5168,3.5218,3.4778,3.457,3.5392,3.5619,0.0,0.0,3.5619,3.5619,3.5619,3.5619,3.5849,3.6661,3.6998,3.7462,3.8304,3.868,3.9108,3.9622,3.9697,3.9697,3.9697,4.0173,4.0275,3.9736,4.0668,4.088,3.9978,3.9647,3.8997,3.7848,3.7361,3.6909,3.6405,3.6405,3.6405,3.6405,3.6405,3.6405,3.6405,3.6405,3.6405,3.6405,3.6405,3.6405,3.6405,3.6405,3.6405,3.6367,3.5768,3.5169,3.4655,3.4424,3.3809,3.3124,3.3124,3.3124,3.3124,3.8079,3.8021,3.7788,3.7788,3.7428,3.7081,3.7081,3.6559,3.6185,3.6185,3.6185,3.6185,3.6185,3.6185,3.6185,3.6185,3.6185,3.6185,3.6185,3.6185,3.6056,3.5642,3.4728,3.445,3.4924,3.4253,3.468,3.6401,3.6616,3.7131,3.8002,3.8115,3.8417,3.8881,3.9032,3.927,3.9697,3.9697,3.9697,3.9697,3.9697,3.9697,3.9697,3.9697,3.9697,3.9697,3.9697,3.9697,3.9697,3.9697,3.9697,3.9454,3.8157,3.7752,3.7591,3.6828,3.5932,3.5235,3.5393,3.491,3.4411,3.4691,3.5076,3.5381,0.0,0.0,0.0,3.543,3.543,3.5685,3.6576,3.7048,3.7525,3.8078,3.8567,3.9108,3.9622,3.9697,3.9697,3.9697,3.9697,3.9697,3.9697,3.9496,3.9322,3.9126,3.8631,3.8106,3.7559,3.6815,3.6405,3.6405,3.6405,3.6405,3.6405,3.6405,3.6405,3.6405,3.6405,3.6405,3.6405,3.6405,3.6405,3.6405,3.6405,3.6405,3.6355,3.5655,3.5082,3.4663,3.411,3.3558,3.3124,3.3124,3.3124,3.3124,3.7769,3.8105,3.8508,3.8508,3.809,3.7821,3.7821,3.6881,3.6185,3.6185,3.6185,3.6185,3.6185,3.6185,3.6185,3.6185,3.6185,3.6185,3.6185,3.6185,3.6162,3.6105,3.5997,3.5756,3.5453,3.6203,3.6562,3.6401,3.7331,3.7903,3.8015,3.853,3.8806,3.8944,3.9383,3.9634,3.9697,3.9697,3.9697,3.9697,3.9697,3.9697,3.9697,3.9697,3.9697,3.9697,3.9697,3.9697,3.9697,3.9697,3.9697,3.9685,3.9519,3.9442,3.9111,3.7667,3.7084,3.6693,3.5195,3.5427,3.5836,3.4803,3.612,3.7357,3.6345,0.0,3.7617,3.7617,0.0,3.7666,3.7826,0.0,0.0,3.868,3.8881,3.9108,3.9622,3.9697,3.9697,3.9697,3.9697,3.9697,3.9697,3.8781,3.819,3.815,3.7228,3.6657,3.6546,3.6452,3.6405,3.6405,3.6405,3.6405,3.6405,3.6405,3.6405,3.6405,3.6405,3.6405,3.6405,3.6405,3.6405,3.6405,3.6405,3.6405,3.6329,3.524,3.4731,3.4663,3.411,3.3558,3.3124,3.3124,3.3124,3.3124,3.9297,3.925,3.9253,3.9253,3.9069,3.8933,3.8933,3.8542,3.8214,3.8214,3.8214,3.8214,3.8214,3.8214,3.8214,3.8214,3.8214,3.8214,3.8214,3.8214,3.8214,3.8214,3.7554,3.7394,3.7939,3.7665,3.783,3.8294,3.8778,3.8981,3.8994,3.9233,3.9346,3.9358,3.9584,3.9697,3.9697,3.9697,3.9697,3.9697,3.9697,3.9697,3.9697,3.9697,3.9697,3.9697,3.9697,3.9697,3.9697,3.9697,3.9697,3.9697,3.9697,3.9697,3.9595,3.8881,3.8212,3.7452,3.6486,3.602,3.5834,3.5643,3.5829,3.597,3.5458,3.5715,3.6072,3.6072,0.0,0.0,0.0,0.0,0.0,0.0,3.8919,3.9108,3.9622,3.9697,3.9697,3.9697,3.9697,3.9572,3.9245,3.8479,3.7877,3.755,3.6857,3.6405,3.6405,3.6405,3.6405,3.6405,3.6405,3.6405,3.6405,3.6405,3.6405,3.6405,3.6405,3.6405,3.6405,3.6405,3.6405,3.6405,3.6405,3.6405,3.6317,3.5177,3.468,3.4638,3.3759,3.3282,3.3124,3.3124,3.3124,3.3124,4.0212,3.9973,3.9697,3.9697,3.9697,3.9697,3.9697,3.9697,3.9697,3.9697,3.9697,3.9697,3.9697,3.9697,3.9697,3.9697,3.9697,3.9697,3.9697,3.9697,3.9697,3.9697,3.8868,3.8816,3.9685,3.8816,3.8816,3.9697,3.9697,3.9697,3.9697,3.9697,3.9697,3.9697,3.9697,3.9697,3.9749,3.9981,3.9929,3.9749,3.9981,3.9929,3.9697,3.9697,3.9697,3.9697,3.9697,3.9697,3.9697,3.9697,3.9697,3.9697,3.9697,3.9697,3.9697,3.9697,3.9089,3.8247,3.765,3.7047,3.6613,3.6402,3.6204,3.588,3.5241,3.5346,3.5515,3.52,3.5776,0.0,0.0,0.0,3.824,3.8968,0.0,3.9233,3.9634,3.9697,3.9697,3.9697,3.9559,3.9308,3.8957,3.8216,3.7613,3.7211,3.6719,3.6405,3.6405,3.6405,3.6405,3.6405,3.6405,3.6405,3.6405,3.6405,3.6405,3.6405,3.6405,3.6405,3.6405,3.6405,3.6405,3.6405,3.6405,3.6405,3.6317,3.5177,3.468,3.4568,3.3508,3.3124,3.3124,3.3124,3.3124,3.3124,3.9722,3.9697,3.9697,3.9697,3.9697,3.9697,3.9697,3.9697,3.9697,3.9697,3.9697,3.9697,3.9697,3.9697,3.9697,3.9697,3.9697,3.9697,3.9697,3.9697,3.9697,3.9697,3.9645,3.9645,3.9697,3.9645,3.9645,3.9697,3.9697,3.9697,3.9697,3.9697,3.9697,3.9697,3.9697,3.9697,3.9736,4.0743,4.0605,3.9788,4.0743,4.0554,3.9697,3.9697,3.9697,3.9697,3.9697,3.9697,3.9697,3.9697,3.9697,3.9697,3.9697,3.9697,3.9697,3.9697,3.9697,3.9362,3.8202,3.8687,3.9,3.6745,3.789,3.8923,3.668,3.7014,3.7453,3.6356,3.6194,3.6572,3.7678,3.789,3.8283,3.9492,3.9672,0.0,0.0,3.9697,3.9697,3.9697,3.922,3.8944,3.8919,3.7864,3.7199,3.7186,3.6719,3.6405,3.6405,3.6405,3.6405,3.6405,3.6405,3.6405,3.6405,3.6405,3.6405,3.6405,3.6405,3.6405,3.6405,3.6405,3.6405,3.6405,3.6405,3.6405,3.6317,3.5177,3.468,3.4568,3.3508,3.3124,3.3124,3.3124,3.3124,3.3124,3.9772,3.9697,3.9697,3.9697,3.9697,3.9697,3.9697,3.9697,3.9697,3.9697,3.9697,3.9697,3.9697,3.9697,3.9697,3.9697,3.9697,3.9697,3.9697,3.9697,3.9697,3.9697,3.9697,3.9697,3.9697,3.9697,3.9697,3.9697,3.9697,3.9697,3.9697,3.9697,3.9697,3.9697,3.9697,4.0083,4.0693,4.1082,4.1419,4.1766,4.211,4.1617,4.0605,3.9929,3.9697,3.9697,3.9697,3.9697,3.9697,3.9697,3.9697,3.9697,3.9697,3.9697,3.9697,3.9697,3.9697,3.9633,3.9206,3.9362,3.953,3.8699,3.8489,3.8319,3.7512,3.7619,3.7779,3.7394,3.734,3.7672,3.8868,3.8437,3.8319,3.953,3.9697,3.9697,0.0,3.9697,3.9559,3.9195,3.8981,3.8718,3.8329,3.7626,3.7036,3.6719,3.6518,3.6405,3.6405,3.6405,3.6405,3.6405,3.6405,3.6405,3.6405,3.6405,3.6405,3.6405,3.6405,3.6405,3.6405,3.6405,3.6405,3.6405,3.6405,3.6405,3.6317,3.5177,3.468,3.4568,3.3508,3.3124,3.3124,3.3124,3.3124,3.3124,4.0061,3.9823,3.9697,3.9697,3.9697,3.9697,3.9697,3.9697,3.9697,3.9697,3.9697,3.9697,3.9697,3.9697,3.9697,3.9697,3.9697,3.9697,3.9697,3.9697,3.9697,3.9697,3.9697,3.9697,3.9697,3.9697,3.9697,3.9697,3.9697,3.9697,3.9697,3.9697,3.9697,3.9697,3.9697,4.0262,4.1219,4.1617,4.2146,4.2792,4.2792,4.2404,4.1716,4.1045,4.0326,3.9697,3.9697,3.9697,3.9697,3.9697,3.9697,3.9697,3.9697,3.9697,3.9697,3.9697,3.9697,3.9697,3.9697,3.9697,3.9697,3.9697,3.9141,3.8437,3.8003,3.7897,3.7779,3.7394,3.7287,3.7672,3.8816,3.8437,3.8319,3.953,3.9697,3.9697,0.0,3.9697,3.9559,3.9207,3.8806,3.8341,3.7764,3.7211,3.6795,3.643,3.6405,3.6405,3.6405,3.6405,3.6405,3.6405,3.6405,3.6405,3.6405,3.6405,3.6405,3.6405,3.6405,3.6405,3.6405,3.6405,3.6405,3.6405,3.6405,3.6405,3.6317,3.5177,3.468,3.4568,3.3508,3.3124,3.3124,3.3124,3.3124,3.3124,4.0526,4.0074,3.9697,3.9697,3.9697,3.9697,3.9697,3.9697,3.9697,3.9697,3.9697,3.9697,3.9697,3.9697,3.9697,3.9697,3.9697,3.9697,3.9697,3.9697,3.9697,3.9697,3.9697,3.9697,3.9697,3.9697,3.9697,3.9697,3.9697,3.9697,3.9697,3.9697,3.9697,3.9697,3.9697,4.0262,4.1369,4.2355,4.284,4.2937,4.2937,4.2937,4.2889,4.2889,4.1631,3.9839,3.9788,3.9788,3.9788,3.9749,3.9697,3.9697,3.9697,3.9697,3.9697,3.9697,3.9697,3.9697,3.9697,3.9697,3.9697,3.9697,3.9697,3.9426,3.8279,3.8003,3.7672,3.6576,3.6348,3.6619,3.7779,3.795,3.8319,3.953,3.9697,3.9697,3.9697,3.9697,3.9685,3.9647,3.8705,3.7839,3.7274,3.6744,3.6405,3.6405,3.6405,3.6405,3.6405,3.6405,3.6405,3.6405,3.6405,3.6405,3.6405,3.6405,3.6405,3.6405,3.6405,3.6405,3.6405,3.6405,3.6405,3.6405,3.6405,3.6405,3.6317,3.5177,3.468,3.4568,3.3508,3.3124,3.3124,3.3124,3.3124,3.3124,4.0601,4.0074,3.9697,3.9697,3.9697,3.9697,3.9697,3.9697,3.9697,3.9697,3.9697,3.9697,3.9697,3.9697,3.9697,3.9697,3.9697,3.9697,3.9697,3.9697,3.9697,3.9697,3.9697,3.9697,3.9697,3.9697,3.9697,3.9697,3.9697,3.9697,3.9697,3.9697,3.9697,3.9697,3.9697,4.0706,4.2404,4.2695,4.3701,4.511,4.511,4.462,4.3923,4.3923,4.3115,4.1914,4.1082,4.0794,4.0693,3.9929,3.9697,3.9697,3.9697,3.9697,3.9697,3.9697,3.9697,3.9697,3.9697,3.9697,3.9697,3.9697,3.9697,3.9633,3.931,3.9258,3.9141,3.8868,3.8108,3.7832,3.9037,3.8489,3.8319,3.953,3.9697,3.9697,3.9697,3.9697,3.9546,3.9132,3.8831,3.8429,3.7852,3.6923,3.6405,3.6405,3.6405,3.6405,3.6405,3.6405,3.6405,3.6405,3.6405,3.6405,3.6405,3.6405,3.6405,3.6405,3.6405,3.6405,3.6405,3.6405,3.6405,3.6405,3.6405,3.6405,3.6317,3.5177,3.468,3.4568,3.3508,3.3124,3.3124,3.3124,3.3124,3.3124,4.1291,4.0601,4.0061,4.0061,3.9848,3.9697,3.9697,3.9898,4.0061,4.0061,4.0061,4.0061,4.0061,3.9835,3.9697,3.9697,3.9697,3.9697,3.9697,3.9697,3.9697,3.9697,3.9697,3.9697,3.9697,3.9697,3.9697,3.9697,3.9697,3.9697,3.9697,3.9697,3.9697,3.9697,3.9697,4.0618,4.2146,4.3067,4.4125,4.5247,4.5685,4.5535,0.0,4.5003,4.4666,4.3998,4.2923,4.1985,4.1119,4.0554,4.0083,3.9697,3.9697,3.9697,3.9697,3.9697,3.9697,3.9697,3.9697,3.9697,3.9697,3.9697,3.9697,3.9697,3.9697,3.9697,3.9697,3.9697,3.9141,3.8868,3.9581,3.9141,3.8921,3.9581,3.9697,3.9697,3.9697,3.9697,3.9584,3.927,3.9019,3.8642,3.8065,3.7224,3.6669,3.643,3.6405,3.6405,3.6405,3.6405,3.6405,3.6405,3.6405,3.6405,3.6405,3.6405,3.6405,3.6405,3.6405,3.6405,3.6405,3.6405,3.6405,3.6405,3.6405,3.6405,3.6342,3.5429,3.4893,3.4568,3.3508,3.3124,3.3124,3.3124,3.3124,3.3124,4.2125,4.1279,4.0626,4.0626,4.0174,3.9798,3.9798,4.0149,4.0413,4.0413,4.0413,4.0413,4.0413,3.9986,3.9697,3.9697,3.9697,3.9697,3.9697,3.9697,3.9697,3.9697,3.9697,3.9697,3.9697,3.9697,3.9697,3.9697,3.9697,3.9697,3.9697,3.9697,3.9697,3.9697,3.9697,4.0313,4.1568,4.3497,4.4359,4.4606,4.5535,4.588,4.588,4.588,4.588,4.579,4.4851,4.3245,4.1617,4.1468,4.0743,3.989,3.989,3.9788,3.9697,3.9697,3.9697,3.9697,3.9697,3.9697,3.9697,3.9697,3.9697,3.9697,3.9697,3.9697,3.9697,3.9697,3.9697,3.9697,3.9697,3.9697,3.9697,3.9697,3.9697,3.9697,3.9697,3.9697,3.9697,3.9697,3.927,0.0,3.8178,3.755,3.7008,3.6455,3.6405,3.6405,3.6405,3.6405,3.6405,3.6405,3.6405,3.6405,3.6405,3.6405,3.6405,3.6405,3.6405,3.6405,3.6405,3.6405,3.6405,3.6405,3.6405,3.6405,3.6367,3.5768,3.5132,3.4512,3.3558,3.3144,3.3124,3.3124,3.3124,3.3124,4.158,4.1275,4.1137,4.1137,4.0739,4.0375,4.0375,4.0074,3.9835,3.9835,3.9835,3.9835,3.9835,3.9747,3.9697,3.9697,3.9697,3.9697,3.9697,3.9697,3.9697,3.9697,3.9697,3.9697,3.9697,3.9697,3.9697,3.9697,3.9697,3.9697,3.9697,3.9697,3.9697,3.9697,3.9697,4.0756,4.2598,4.3782,4.4805,4.564,4.5835,4.588,4.588,4.588,4.588,4.588,4.5685,4.4805,4.364,4.2778,4.1815,4.0932,4.0932,4.0364,3.9697,3.9697,3.9697,3.9697,3.9697,3.9697,3.9697,3.9697,3.9697,3.9697,3.9697,3.9697,3.9697,3.9697,3.9697,3.9697,3.9697,3.9697,3.9697,3.9697,3.9697,3.9697,3.9697,3.9697,3.9697,3.9697,3.9609,3.9333,3.8781,3.7789,3.7008,3.6455,3.6405,3.6405,3.6405,3.6405,3.6405,3.6405,3.6405,3.6405,3.6405,3.6405,3.6405,3.6405,3.6405,3.6405,3.6405,3.6405,3.6405,3.6405,3.6405,3.6405,3.6367,3.5768,3.4906,3.4022,3.3834,3.3483,3.3124,3.3124,3.3124,3.3124,4.1869,4.1769,4.1769,4.1769,4.1065,4.0614,4.0849,4.0668,4.0364,4.0126,4.0618,4.0721,4.0176,4.0836,4.0857,3.9788,4.0173,4.0262,3.9749,3.9697,3.9697,3.9697,3.9697,3.9697,3.9697,3.9697,3.9697,3.9697,3.9697,3.9697,3.9697,3.9697,3.9697,3.9749,4.0275,4.1032,4.2048,4.364,4.4606,4.5095,4.5685,4.588,4.588,4.588,4.588,4.588,4.588,4.5595,4.4957,4.3937,4.2875,4.195,4.1369,4.0882,4.0364,3.9839,3.9697,3.9697,3.9697,3.9697,3.9697,3.9697,3.9697,3.9697,3.9697,3.9697,3.9697,3.9697,3.9697,3.9697,3.9697,3.9697,3.9697,3.9697,3.9697,3.9697,3.9697,3.9697,3.9697,3.9697,3.9697,3.9484,3.8931,3.8103,3.7374,3.6883,3.6568,3.6405,3.6405,3.6405,3.6405,3.6405,3.6405,3.6405,3.6405,3.6405,3.6405,3.6405,3.6405,3.6405,3.6405,3.6405,3.6405,3.6405,3.6405,3.6405,3.6367,3.5768,3.5194,3.468,3.4437,3.3985,3.3508,3.3508,3.3319,3.3124,4.2476,4.2389,4.2351,4.2225,4.1342,4.0802,4.1062,4.1158,4.105,4.0731,4.1581,4.1925,4.108,4.2094,4.2159,4.0516,4.0882,4.0932,4.0415,4.0121,4.0032,4.0032,4.0032,3.9929,3.9697,3.9697,3.9697,3.9697,3.9697,3.9697,3.9697,3.9697,3.9788,4.0032,4.0844,4.1468,4.195,4.3592,4.4406,4.4698,4.5535,4.588,4.588,4.588,4.588,4.588,4.588,4.588,4.579,4.4943,4.3984,4.2971,4.2146,4.1703,4.1319,4.0326,4.0032,3.9981,3.9736,3.9697,3.9697,3.9697,3.9697,3.9697,3.9697,3.9697,3.9697,3.9697,3.9697,3.9697,3.9697,3.9697,3.9697,3.9697,3.9697,3.9697,3.9697,3.9697,3.9697,3.9697,3.9697,3.9521,3.9082,3.8417,3.7826,3.7387,3.6782,3.6405,3.6405,3.6405,3.6405,3.6405,3.6405,3.6405,3.6405,3.6405,3.6405,3.6405,3.6405,3.6405,3.6405,3.6405,3.6405,3.6405,3.6405,3.6405,3.6367,3.5893,3.5608,3.5458,3.5019,3.4562,3.4073,3.4073,3.3796,3.3432,4.2911,4.2898,4.2791,4.2301,4.1656,4.1062,4.0664,4.0952,4.1196,4.1147,4.2092,4.2679,4.2582,4.2722,4.2744,4.255,4.1716,4.1568,4.2452,4.1617,4.1082,4.1082,4.1082,4.0655,3.9749,3.9697,3.9697,3.9697,3.9697,3.9697,3.9697,3.9697,4.0173,4.1082,4.1169,4.2244,4.4017,4.4219,4.4851,4.5745,4.5835,4.588,4.588,4.588,4.588,4.588,4.588,4.588,4.588,4.579,4.5049,4.4125,4.4017,4.3402,4.2452,4.1369,4.1082,4.0844,3.9929,3.9697,3.9697,3.9697,3.9697,3.9697,3.9697,3.9697,3.9697,3.9697,3.9697,3.9697,3.9697,3.9697,3.9697,3.9697,3.9697,3.9697,3.9697,3.9697,3.9697,3.9697,3.9697,3.9672,3.9622,3.8642,3.799,3.7939,3.7008,3.6405,3.6405,3.6405,3.6405,3.6405,3.6405,3.6405,3.6405,3.6405,3.6405,3.6405,3.6405,3.6405,3.6405,3.6405,3.6405,3.6405,3.6405,3.6405,3.6405,3.6355,3.5994,3.5495,3.5445,3.5094,3.465,3.465,3.4568,3.4562,4.2974,4.2974,4.2798,4.2301,4.1706,4.1354,4.1453,4.1863,4.239,4.2958,4.345,4.345,4.2889,4.3904,4.4139,4.2937,4.2971,4.3019,4.2792,4.2404,4.2146,4.2146,4.2146,4.1667,4.0605,4.0605,4.0313,3.9697,3.9697,3.9697,3.9697,4.0313,4.1182,4.2195,4.2765,4.3531,4.4359,4.5003,4.5489,4.588,4.588,4.588,4.588,4.588,4.588,4.588,4.588,4.588,4.588,4.588,4.564,4.5155,4.4499,4.4031,4.3497,4.2439,4.1716,4.1119,4.0693,4.0173,3.9697,3.9697,3.9697,3.9697,3.9697,3.9697,3.9697,3.9697,3.9697,3.9697,3.9697,3.9697,3.9697,3.9697,3.9697,3.9697,3.9697,3.9697,3.9697,3.9697,3.9697,3.9697,3.9697,3.8981,3.8379,3.804,3.6985,3.6405,3.6405,3.6405,3.6405,3.6405,3.6405,3.6405,3.6405,3.6405,3.6405,3.6405,3.6405,3.6405,3.6405,3.6405,3.6405,3.6405,3.6405,3.6405,3.6405,3.6405,3.6279,3.6031,3.6031,3.5705,3.5169,3.5169,3.4969,3.468,4.2974,4.2848,4.2615,4.2007,4.1724,4.1616,4.1799,4.2623,4.3497,4.4219,4.4559,4.4513,4.3796,4.5018,4.5307,4.3857,4.4078,4.4125,4.3748,4.3416,4.3211,4.3211,4.3211,4.273,4.1716,4.1667,4.1332,4.0618,4.0618,4.0618,4.0618,4.1332,4.2244,4.3259,4.3984,4.4466,4.4805,4.5595,4.588,4.588,4.588,4.588,4.588,4.588,4.588,4.588,4.588,4.588,4.588,4.588,4.588,4.579,4.5003,4.4759,4.4559,4.3545,4.2716,4.2048,4.1752,4.0945,4.0121,4.0121,3.9929,3.9697,3.9697,3.9697,3.9697,3.9697,3.9697,3.9697,3.9697,3.9697,3.9697,3.9697,3.9697,3.9697,3.9697,3.9697,3.9697,3.9697,3.9697,3.9697,3.9697,3.9195,3.8693,3.8291,3.7224,3.6581,3.6417,3.6405,3.6405,3.6405,3.6405,3.6405,3.6405,3.6405,3.6405,3.6405,3.6405,3.6405,3.6405,3.6405,3.6405,3.6405,3.6405,3.6405,3.6405,3.6405,3.6405,3.6405,3.6405,3.6119,3.578,3.578,3.5542,3.5203,4.2974,4.259,4.2049,4.1388,4.1761,4.1874,4.1274,4.2971,4.4312,4.4312,4.5233,4.588,4.588,4.588,4.588,4.588,4.4897,4.4745,4.579,4.4851,4.4266,4.4266,4.4266,4.3782,4.2792,4.2792,4.2778,4.2744,4.2744,4.2744,4.2744,4.2778,4.3307,4.4266,4.4312,4.4897,4.588,4.588,4.588,4.588,4.588,4.588,4.588,4.588,4.588,4.588,4.588,4.588,4.588,4.588,4.588,4.588,4.588,4.588,4.5685,4.4606,4.4266,4.4078,4.3033,4.1999,4.1169,4.1169,4.0415,3.9697,3.9697,3.9697,3.9697,3.9697,3.9697,3.9697,3.9697,3.9697,3.9697,3.9697,3.9697,3.9697,3.9697,3.9697,3.9697,3.9697,3.9697,3.9697,3.9697,3.9195,3.8919,3.8906,3.7814,3.6935,3.6443,3.6405,3.6405,3.6405,3.6405,3.6405,3.6405,3.6405,3.6405,3.6405,3.6405,3.6405,3.6405,3.6405,3.6405,3.6405,3.6405,3.6405,3.6405,3.6405,3.6405,3.6405,3.6405,3.6405,3.6405,3.6405,3.6392,3.6392,4.2552,4.2338,4.2128,4.1904,4.1995,4.2354,4.3197,4.3876,4.4559,4.5293,4.5685,4.588,4.588,4.588,4.588,4.588,4.5595,4.5535,4.588,4.5595,4.5398,4.5398,4.5398,4.4911,4.3843,4.3829,4.3497,4.2792,4.2792,4.3163,4.3829,4.3829,4.4373,4.5398,4.5398,4.5595,4.588,4.588,4.588,4.588,4.588,4.588,4.588,4.588,4.588,4.588,4.588,4.588,4.588,4.588,4.588,4.588,4.588,4.588,4.5835,4.5489,4.4851,4.4219,4.3923,4.3067,4.211,4.1369,4.0982,4.0554,3.9839,3.9697,3.9697,3.9697,3.9697,3.9697,3.9697,3.9697,3.9697,3.9697,3.9697,3.9697,3.9697,3.9697,3.9697,3.9697,3.9697,3.9697,3.9697,3.9534,3.927,3.8944,3.8165,3.75,3.6948,3.6619,3.6405,3.6405,3.6405,3.6405,3.6405,3.6405,3.6405,3.6405,3.6405,3.6405,3.6405,3.6405,3.6405,3.6405,3.6405,3.6405,3.6405,3.6405,3.6405,3.6405,3.6405,3.6405,3.6405,3.6405,3.6405,3.6405,4.2313,4.2049,4.1919,4.2086,4.2229,4.2785,4.4087,4.4652,4.5141,4.5835,4.588,4.588,4.588,4.588,4.588,4.588,4.588,4.588,4.588,4.588,4.588,4.588,4.588,4.5595,4.4897,4.4897,4.4606,4.3951,4.3951,4.428,4.4897,4.4897,4.5247,4.588,4.588,4.588,4.588,4.588,4.588,4.588,4.588,4.588,4.588,4.588,4.588,4.588,4.588,4.588,4.588,4.588,4.588,4.588,4.588,4.588,4.588,4.588,4.5444,4.4897,4.4897,4.4125,4.3211,4.2523,4.1802,4.0932,3.9929,3.9697,3.9697,3.9697,3.9697,3.9697,3.9697,3.9697,3.9697,3.9697,3.9697,3.9697,3.9697,3.9697,3.9697,3.9697,3.9697,3.9697,3.9697,3.9697,3.9546,3.9207,3.8642,3.8078,3.7525,3.682,3.6405,3.6405,3.6405,3.6405,3.6405,3.6405,3.6405,3.6405,3.6405,3.6405,3.6405,3.6405,3.6405,3.6405,3.6405,3.6405,3.6405,3.6405,3.6405,3.6405,3.6405,3.6405,3.6405,3.6405,3.6405,3.6405,4.2263,4.1656,4.1463,4.2058,4.2484,4.3163,4.4266,4.5247,4.588,4.588,4.588,4.588,4.588,4.588,4.588,4.588,4.588,4.588,4.588,4.588,4.588,4.588,4.588,4.588,4.588,4.588,4.588,4.588,4.588,4.588,4.588,4.588,4.588,4.588,4.588,4.588,4.588,4.588,4.588,4.588,4.588,4.588,4.588,4.588,4.588,4.588,4.588,4.588,4.588,4.588,4.588,4.588,4.588,4.588,4.588,4.588,4.588,4.588,4.588,4.5187,4.4406,4.4312,4.2716,4.0932,4.0032,3.9736,3.9697,3.9697,3.9697,3.9697,3.9697,3.9697,3.9697,3.9697,3.9697,3.9697,3.9697,3.9697,3.9697,3.9697,3.9697,3.9697,3.9697,3.9697,3.9697,3.9697,3.9182,3.863,3.809,3.7109,3.6493,3.6405,3.6405,3.6405,3.6405,3.6405,3.6405,3.6405,3.6452,3.6452,3.6405,3.6405,3.6405,3.6405,3.6405,3.6405,3.6405,3.6405,3.6405,3.6405,3.6405,3.6405,3.6405,3.6405,3.6405,3.6405,4.1643,4.1091,4.1077,4.2431,4.2741,4.3416,4.5247,4.573,4.588,4.588,4.588,4.588,4.588,4.588,4.588,4.588,4.588,4.588,4.588,4.588,4.588,4.588,4.588,4.588,4.588,4.588,4.588,4.588,4.588,4.588,4.588,4.588,4.588,4.588,4.588,4.588,4.588,4.588,4.588,4.588,4.588,4.588,4.588,4.588,4.588,4.588,4.588,4.588,4.588,4.588,4.588,4.588,4.588,4.588,4.588,4.588,4.588,4.588,4.588,4.573,4.5338,4.4499,4.2716,4.1119,4.0882,4.0275,3.9697,3.9697,3.9697,3.9697,3.9697,3.9697,3.9697,3.9697,3.9697,3.9697,3.9697,3.9697,3.9697,3.9697,3.9697,3.9697,3.9697,3.9697,3.9697,3.9697,3.9182,3.8856,3.8668,3.8002,3.7236,3.643,3.6405,3.6405,3.6405,3.6405,3.6405,3.6405,3.7129,3.7083,3.6405,3.6405,3.6405,3.6405,3.6405,3.6405,3.6405,3.6405,3.6405,3.6405,3.6405,3.6405,3.6405,3.6405,3.6405,3.6405,4.1116,4.0727,4.0977,4.2511,4.2792,4.3511,4.5595,4.588,4.588,4.588,4.588,4.588,4.588,4.588,4.588,4.588,4.588,4.588,4.588,4.588,4.588,4.588,4.588,4.588,4.588,4.588,4.588,4.588,4.588,4.588,4.588,4.588,4.588,4.588,4.588,4.588,4.588,4.588,4.588,4.588,4.588,4.588,4.588,4.588,4.588,4.588,4.588,4.588,4.588,4.588,4.588,4.588,4.588,4.588,4.588,4.588,4.588,4.588,4.588,4.588,4.564,4.4559,4.3436,4.2474,4.2048,4.1132,4.0415,4.0415,4.0032,3.9697,3.9697,3.9697,3.9697,3.9697,3.9697,3.9697,3.9697,3.9697,3.9697,3.9697,3.9697,3.9697,3.9697,3.9697,3.9697,3.9697,3.9421,3.9132,3.8881,3.9041,3.839,3.682,3.6782,3.6669,3.6405,3.6405,3.664,3.7036,3.7129,3.7129,3.7049,3.6593,3.6405,3.6405,3.6405,3.6405,3.6405,3.6405,3.6405,3.6405,3.6405,3.6405,3.6405,3.6405,3.6405,3.6405,4.0701,4.045,4.0836,4.2289,4.255,4.3273,4.5338,4.564,4.573,4.588,4.588,4.588,4.588,4.588,4.588,4.588,4.588,4.588,4.588,4.588,4.588,4.588,4.588,4.588,4.588,4.588,4.588,4.588,4.588,4.588,4.588,4.588,4.588,4.588,4.588,4.588,4.588,4.588,4.588,4.588,4.588,4.588,4.588,4.588,4.588,4.588,4.588,4.588,4.588,4.588,4.588,4.588,4.588,4.588,4.588,4.588,4.588,4.588,4.588,4.588,4.5685,4.4759,4.4406,4.4078,4.3211,4.2195,4.1468,4.1468,4.0743,4.0134,3.9942,4.0083,4.0083,3.9736,3.9839,3.9929,3.9929,3.9788,3.9736,3.9929,3.9788,3.9697,3.9697,3.9697,3.9697,3.9697,3.9697,3.9484,3.907,3.9835,3.9494,3.7741,3.7551,3.7102,3.6417,3.6546,3.6956,3.7579,3.6896,3.6956,3.7579,3.6769,3.6405,3.6405,3.6405,3.6405,3.6405,3.6405,3.6405,3.6405,3.6405,3.6405,3.6405,3.6405,3.6405,3.6405,4.0551,4.0136,4.0185,4.1246,4.1468,4.2146,4.4219,4.4559,4.4851,4.579,4.588,4.588,4.588,4.588,4.588,4.588,4.588,4.588,4.588,4.588,4.588,4.588,4.588,4.588,4.588,4.588,4.588,4.588,4.588,4.588,4.588,4.588,4.588,4.588,4.588,4.588,4.588,4.588,4.588,4.588,4.588,4.588,4.588,4.588,4.588,4.588,4.588,4.588,4.588,4.588,4.588,4.588,4.588,4.588,4.588,4.588,4.588,4.588,4.588,4.588,4.5835,4.5685,4.4943,4.4266,4.4125,4.3259,4.2536,4.2536,4.2452,4.2061,4.1132,4.1716,4.173,3.9981,4.0415,4.0982,4.0982,4.0224,4.0032,4.0882,4.0224,3.9697,3.9697,3.9697,3.9697,3.9697,3.9697,3.9647,3.9572,3.9713,3.9841,3.9878,3.9025,3.7882,3.6417,3.7176,3.7268,3.664,3.7268,3.7222,3.6628,3.6452,3.6405,3.6405,3.6405,3.6405,3.6405,3.6405,3.6405,3.6405,3.6405,3.6405,3.6405,3.6405,3.6405,3.6405,4.0136,3.9873,4.0032,4.1032,4.1219,4.1703,4.3259,4.3497,4.3843,4.4897,4.5049,4.5247,4.5835,4.588,4.588,4.588,4.588,4.588,4.588,4.588,4.588,4.588,4.588,4.588,4.588,4.588,4.588,4.588,4.588,4.588,4.588,4.588,4.588,4.588,4.588,4.588,4.588,4.588,4.588,4.588,4.588,4.588,4.588,4.588,4.588,4.588,4.588,4.588,4.588,4.588,4.588,4.588,4.588,4.588,4.588,4.588,4.588,4.588,4.588,4.588,4.588,4.588,4.5535,4.5141,4.5141,4.4373,4.3592,4.3592,4.3163,4.2647,4.2146,4.2452,4.2501,4.1531,4.1766,4.2048,4.2048,4.1667,4.1531,4.2012,4.1132,4.0503,4.0503,4.0032,3.9697,3.9697,3.9697,3.9697,3.9697,4.0224,4.0627,4.0827,3.9813,3.8699,3.7646,3.7531,3.739,3.7129,3.7083,3.7083,3.7129,3.664,3.6405,3.6405,3.6405,3.6405,3.6405,3.6405,3.6405,3.6405,3.6405,3.6405,3.6405,3.6405,3.6405,3.6405,3.9772,3.9697,3.9929,4.0693,4.0844,4.1232,4.2257,4.2452,4.2778,4.3829,4.3923,4.4266,4.511,4.5398,4.5444,4.5201,4.564,4.579,4.5535,4.5745,4.588,4.588,4.588,4.588,4.588,4.588,4.588,4.588,4.588,4.588,4.588,4.588,4.588,4.588,4.588,4.588,4.588,4.588,4.588,4.588,4.588,4.588,4.588,4.588,4.588,4.588,4.588,4.588,4.588,4.588,4.588,4.588,4.588,4.588,4.588,4.588,4.588,4.588,4.588,4.588,4.588,4.588,4.588,4.588,4.588,4.5247,4.4652,4.4652,4.4045,4.3464,4.3163,4.3368,4.3368,4.2889,4.2985,4.3163,4.3163,4.2937,4.2889,4.3129,4.1999,4.1319,4.1568,4.0655,4.0032,4.0032,4.0032,3.9929,3.9697,4.0415,4.1082,4.1568,4.0434,3.9511,3.8922,3.7916,3.747,3.7648,3.6912,3.6896,3.7441,3.6722,3.6405,3.6405,3.6405,3.6405,3.6405,3.6405,3.6405,3.6405,3.6405,3.6405,3.6405,3.6405,3.6405,3.6405,3.9697,3.9697,3.9749,3.9788,3.9788,4.0173,4.1169,4.1319,4.1716,4.2778,4.2937,4.2937,4.3033,4.3843,4.4031,4.3129,4.4773,4.5489,4.4452,4.5338,4.588,4.588,4.588,4.588,4.588,4.588,4.588,4.588,4.588,4.588,4.588,4.588,4.588,4.588,4.588,4.588,4.588,4.588,4.588,4.588,4.588,4.588,4.588,4.588,4.588,4.588,4.588,4.588,4.588,4.588,4.588,4.588,4.588,4.588,4.588,4.588,4.588,4.588,4.588,4.588,4.588,4.588,4.588,4.588,4.588,4.5835,4.579,4.579,4.573,4.5353,4.4359,4.5003,4.5064,4.3129,4.3592,4.4172,4.4172,4.3402,4.3163,4.4078,4.2425,4.1617,4.2598,4.1716,4.1082,4.1082,4.1082,4.0693,3.9736,3.9788,4.0706,4.2647,4.1157,4.0066,3.9551,3.8454,3.7725,3.7255,3.7172,3.6908,3.6499,3.6452,3.6405,3.6405,3.6405,3.6405,3.6405,3.6405,3.6405,3.6405,3.6405,3.6405,3.6405,3.6405,3.6405,3.6405,3.9697,3.9697,3.9697,3.9697,3.9697,3.9839,4.0224,4.0262,4.0655,4.1667,4.1815,4.2048,4.2744,4.3115,4.3211,4.284,4.3511,4.3796,4.3416,4.3748,4.4573,4.5835,4.588,4.588,4.588,4.588,4.588,4.588,4.588,4.588,4.588,4.588,4.588,4.588,4.588,4.588,4.588,4.588,4.588,4.588,4.588,4.588,4.588,4.588,4.588,4.588,4.588,4.588,4.588,4.588,4.588,4.588,4.588,4.588,4.588,4.588,4.588,4.588,4.588,4.588,4.588,4.588,4.588,4.588,4.588,4.588,4.588,4.588,4.588,4.579,4.5398,4.564,4.564,4.4865,4.4466,4.4559,4.5201,4.4373,4.4125,4.5155,4.4031,4.3293,4.3687,4.2778,4.2195,4.2195,4.1568,4.1032,4.0642,4.0655,4.1282,4.2744,4.2224,4.1641,4.1099,4.0043,3.8907,3.7701,3.7701,3.7588,3.7374,3.7023,3.692,3.6908,3.6556,3.6405,3.6405,3.6405,3.6405,3.6405,3.6405,3.6405,3.6405,3.6405,3.6405,3.6405,3.9697,3.9697,3.9697,3.9697,3.9697,3.9697,3.9697,3.9697,3.9929,4.0655,4.0743,4.0995,4.173,4.211,4.2159,4.1864,4.2404,4.2647,4.2293,4.2598,4.3559,4.5338,4.573,4.588,4.588,4.588,4.588,4.588,4.588,4.588,4.588,4.588,4.588,4.588,4.588,4.588,4.588,4.588,4.588,4.5909,4.6113,4.6185,4.62,4.6403,4.6475,4.6475,4.6475,4.6475,4.6475,4.6475,4.6475,4.6475,4.6475,4.6475,4.6475,4.6475,4.6475,4.6475,4.6475,4.633,4.6142,4.5938,4.588,4.588,4.588,4.588,4.588,4.588,4.564,4.5489,4.5835,4.5353,4.5018,4.5338,4.4513,4.4078,4.4819,4.428,4.4219,4.5293,4.4466,4.4078,4.4759,4.389,4.3259,4.3259,4.2585,4.2048,4.1716,4.1999,4.2523,4.3259,4.3606,4.346,4.275,4.1689,4.0344,3.8736,3.8736,3.8512,3.799,3.7613,3.7437,3.7412,3.686,3.6669,3.6656,3.648,3.6405,3.6405,3.6405,3.6405,3.6405,3.6405,3.6405,3.6405,3.9697,3.9697,3.9697,3.9697,3.9697,3.9697,3.9697,3.9697,3.9697,3.9697,3.9697,3.9697,3.9697,4.0605,4.0794,3.9788,4.1581,4.2293,4.1269,4.2195,4.3211,4.4219,4.5293,4.588,4.588,4.588,4.588,4.588,4.588,4.588,4.588,4.588,4.588,4.588,4.588,4.5895,4.5895,4.5895,4.5895,4.5953,4.6592,4.6792,4.6865,4.755,4.7782,4.7782,4.7782,4.7782,4.7782,4.7782,4.7782,4.7782,4.7782,4.7782,4.7782,4.7782,4.7782,4.7782,4.7782,4.7317,4.6633,4.6055,4.588,4.588,4.588,4.588,4.588,4.588,4.5049,4.4652,4.5685,4.4186,4.3115,4.4125,4.345,4.2792,4.2792,4.2792,4.3163,4.4172,4.3402,4.3606,4.5685,4.4943,4.4312,4.4312,4.4312,4.3876,4.284,4.3735,4.4312,4.4312,4.5338,4.5398,4.4312,4.3307,4.1998,4.0419,4.0419,3.9558,3.8015,3.8015,3.8015,3.799,3.7425,3.7186,3.7149,3.6644,3.6405,3.6405,3.6405,3.6405,3.6405,3.6405,3.6405,3.6405,3.9697,3.9697,3.9697,3.9697,3.9697,3.9697,3.9697,3.9697,3.9697,3.9697,3.9697,3.9697,3.9697,3.9981,4.0032,3.9749,4.0275,4.0465,4.0173,4.1082,4.1802,4.2084,4.3829,4.5141,4.588,4.588,4.588,4.588,4.588,4.588,4.588,4.588,4.588,4.5909,4.6345,4.6548,4.6577,4.7027,4.7216,4.723,4.7419,4.7491,4.7521,4.7709,4.7782,4.7782,4.7782,4.7782,4.7782,4.7782,4.7782,4.7782,4.7782,4.7782,4.7782,4.7782,4.7782,4.7782,4.7782,4.7637,4.7346,4.6708,4.6214,4.588,4.588,4.588,4.5685,4.4943,4.5095,4.5049,4.3951,4.3796,4.3735,4.3307,4.2341,4.1963,4.2695,4.2146,4.2341,4.4064,4.4031,4.4373,4.579,4.5595,4.5444,4.5444,4.4759,4.3876,4.284,4.3081,4.3545,4.4266,4.4606,4.4606,4.4312,4.3984,4.2876,4.0958,4.0958,4.0345,3.9182,3.8793,3.8617,3.858,3.8002,3.7538,3.7174,3.7059,3.6757,3.6405,3.6405,3.6405,3.6405,3.6405,3.6405,3.6405,3.9697,3.9697,3.9697,3.9697,3.9697,3.9697,3.9697,3.9697,3.9697,3.9697,3.9697,3.9697,3.9697,3.9697,3.9697,3.9697,3.9697,3.9697,3.9697,4.0262,4.0794,4.1169,4.2377,4.3782,4.5247,4.5685,4.588,4.588,4.588,4.6011,4.6258,4.6258,4.6388,4.665,4.7027,4.7216,4.723,4.7622,4.7782,4.7796,4.8058,4.8159,4.8174,4.8435,4.8522,4.8522,4.8522,4.8522,4.8522,4.8522,4.8522,4.8522,4.8522,4.8522,4.8522,4.8522,4.8522,4.8522,4.8522,4.8348,4.8058,4.7666,4.71,4.6635,4.6635,4.6635,4.6411,4.5463,4.5481,4.521,4.3648,4.3211,4.2861,4.2244,4.1282,4.0844,4.1482,4.0995,4.1382,4.345,4.3687,4.4125,4.5155,4.5293,4.5293,4.5293,4.5049,4.4666,4.4045,4.4045,4.428,4.4897,4.4943,4.4943,4.4943,4.4499,4.3497,4.1864,4.2244,4.1667,4.03,3.9968,3.9576,3.917,3.8592,3.8165,3.7826,3.76,3.7312,3.6985,3.682,3.6732,3.6707,3.6493,3.6405,3.6405,3.9697,3.9697,3.9697,3.9697,3.9697,3.9697,3.9697,3.9697,3.9697,3.9697,3.9697,3.9697,3.9697,3.9697,3.9697,3.9697,3.9697,3.9697,3.9697,3.9697,4.0121,4.1032,4.1169,4.211,4.4054,4.5184,4.5714,4.5681,4.5772,4.615,4.6712,4.6712,4.7123,4.7782,4.784,4.7869,4.7869,4.7927,4.7956,4.7999,4.858,4.8812,4.887,4.9451,4.9717,4.9717,4.9717,4.9717,4.9717,4.9717,4.9717,4.9717,4.9717,4.9717,4.9717,4.9717,4.9717,4.9717,4.9717,4.9248,4.8812,4.8812,4.8377,4.7927,4.7811,4.7782,4.7622,4.6888,4.603,4.5122,4.4344,4.2595,4.1248,4.1147,4.0351,3.9697,3.9697,3.9697,4.0427,4.2404,4.2647,4.3067,4.4078,4.4172,4.4219,4.4312,4.5187,4.579,4.588,4.588,4.588,4.588,4.588,4.5835,4.5745,4.4897,4.3937,4.2937,4.3782,4.3102,4.1219,4.1219,4.0642,3.9672,3.9157,3.8919,3.8881,3.8304,3.8052,3.7952,3.745,3.7262,3.7199,3.6681,3.648,3.6468,3.9697,3.9697,3.9697,3.9697,3.9697,3.9697,3.9697,3.9697,3.9697,3.9697,3.9697,3.9697,3.9697,3.9697,3.9697,3.9697,3.9697,3.9697,3.9697,3.9697,3.9788,4.0032,4.0794,4.1629,4.2555,4.3937,4.4457,4.4118,4.4914,4.5666,4.6246,4.6246,4.6824,4.7796,4.829,4.8522,4.8551,4.9059,4.9311,4.9325,4.9407,4.9465,4.948,4.9625,4.9717,4.9717,4.9717,4.9717,4.9717,4.9717,4.9717,4.9717,4.9717,4.9717,4.9717,4.9717,4.9717,4.9717,4.9717,4.9582,4.9465,4.9465,4.9364,4.9001,4.8014,4.7782,4.7536,4.6528,4.6101,4.5365,4.3624,4.2505,4.1632,4.0782,4.0116,3.9697,3.9697,3.9697,4.0173,4.1419,4.1568,4.195,4.3019,4.3129,4.345,4.4266,4.4513,4.5003,4.5835,4.588,4.588,4.588,4.588,4.5489,4.4652,4.5247,4.5003,4.3984,4.3402,4.2439,4.1219,4.1219,4.0642,3.9685,3.9572,3.927,3.8906,3.8781,3.8417,3.8002,3.7877,3.7826,3.7764,3.7211,3.7059,3.6996,3.9697,3.9697,3.9697,3.9697,3.9697,3.9697,3.9697,3.9697,3.9697,3.9697,3.9697,3.9697,3.9697,3.9697,3.9697,3.9697,3.9697,3.9697,3.9697,3.9697,3.981,4.0074,4.0567,4.1132,4.1708,4.2961,4.3733,4.3995,4.4554,4.5153,4.5782,4.5782,4.6248,4.7102,4.7998,4.8366,4.843,4.9328,4.9717,4.9717,4.9717,4.9717,4.9717,4.9717,4.9717,4.9717,4.9717,4.9717,4.9717,4.9717,4.9717,4.9717,4.9717,4.9717,4.9717,4.9717,4.9717,4.9717,4.9717,4.9717,4.9717,4.9717,4.9717,4.9543,4.8841,4.8729,4.8451,4.7563,4.7347,4.6748,4.4884,4.4298,4.3543,4.1944,4.1452,4.1052,4.0528,4.0249,4.0618,4.2176,4.2123,4.2195,4.2744,4.3211,4.3545,4.3592,4.4513,4.5293,4.588,4.588,4.588,4.588,4.588,4.564,4.5049,4.5095,4.5095,4.5049,4.4527,4.3464,4.195,4.195,4.1382,4.0415,3.9929,3.9534,3.927,3.927,3.9082,3.8781,3.8517,3.8417,3.8354,3.7776,3.7575,3.7538,3.9697,3.9697,3.9697,3.9697,3.9697,3.9697,3.9697,3.9697,3.9697,3.9697,3.9697,3.9697,3.9697,3.9697,3.9697,3.9697,3.9697,3.9697,3.9697,3.9785,4.0036,4.0501,4.0614,4.0915,4.1467,4.2351,4.3206,4.4006,4.4211,4.4609,4.529,4.529,4.5651,4.6333,4.7499,4.8021,4.8072,4.9213,4.9717,4.9717,4.9717,4.9717,4.9717,4.9717,4.9717,4.9717,4.9717,4.9717,4.9717,4.9717,4.9717,4.9717,4.9717,4.9717,4.9717,4.9717,4.9717,4.9717,4.9717,4.9717,4.9669,4.9473,4.941,4.936,4.9149,4.941,4.9524,4.9001,4.8741,4.8167,4.6756,4.6266,4.5443,4.3478,4.3036,4.2684,4.1732,4.1193,4.1647,4.3575,4.3389,4.3139,4.3139,4.3766,4.3948,4.3279,4.4737,4.5685,4.588,4.588,4.588,4.588,4.588,4.588,4.588,4.5003,4.4943,4.564,4.5835,4.4819,4.2792,4.2792,4.211,4.0882,4.0224,3.9839,3.9697,3.9697,3.9697,3.9647,3.9195,3.9057,3.8944,3.8366,3.809,3.8002,3.9697,3.9697,3.9697,3.9697,3.9697,3.9697,3.9697,3.9697,3.9697,3.9697,3.9697,3.9697,3.9697,3.9697,3.9697,3.9697,3.9697,3.9697,3.9697,4.0136,4.0438,4.0513,4.0924,4.148,4.2087,4.2196,4.2359,4.2509,4.3344,4.4163,4.4767,4.4767,4.5329,4.6333,4.7499,4.8021,4.8072,4.9213,4.9717,4.9717,4.9717,4.9717,4.9717,4.9717,4.9717,4.9717,4.9717,4.9717,4.9717,4.9717,4.9717,4.9717,4.9717,4.9717,4.9717,4.9717,4.9717,4.9717,4.9717,4.9717,4.9473,4.8489,4.8223,4.7957,4.7009,4.826,4.9654,4.9567,4.8773,4.8032,4.7783,4.6551,4.5162,4.3927,4.3297,4.2918,4.2775,4.271,4.3124,4.4383,4.4466,4.4412,4.4412,4.4048,4.4103,4.4903,4.4682,4.4897,4.5835,4.588,4.588,4.588,4.588,4.588,4.588,4.5745,4.5293,4.4513,4.5444,4.4819,4.2792,4.2792,4.173,3.9929,4.0693,4.0503,3.9697,3.9697,3.9697,3.9685,3.9609,3.9584,3.9521,3.8956,3.8442,3.8002,3.9697,3.9697,3.9697,3.9697,3.9697,3.9697,3.9697,3.9697,3.9697,3.9697,3.9697,3.9697,3.9697,3.9697,3.9697,3.9697,3.9697,3.9823,4.0136,4.0388,4.0789,4.1404,4.1668,4.2057,4.2652,4.2678,4.2678,4.2678,4.3093,4.3482,4.378,4.378,4.3974,4.4494,4.5661,4.615,4.6255,4.7317,4.7791,4.7841,4.8474,4.8374,4.7943,4.9198,4.9311,4.8852,4.9473,4.9717,4.9717,4.9717,4.9717,4.9571,4.8951,4.9213,4.9571,4.8951,4.9213,4.9717,4.9717,4.9717,4.9571,4.905,4.8489,4.7869,4.7331,4.7536,4.7993,4.8639,4.7855,4.7229,4.7869,4.6905,4.5575,4.4492,4.4122,4.3752,4.3067,4.2744,4.3047,4.4496,4.5713,4.6216,4.5601,4.5817,4.5966,4.5808,4.6092,4.6433,4.694,4.694,4.678,4.6417,4.6417,4.6243,4.588,4.588,4.5685,4.5201,4.448,4.3701,4.2792,4.2792,4.2306,4.1432,4.1282,4.0932,4.0554,4.0554,4.0224,3.9697,3.9697,3.9697,3.9659,3.9421,3.917,3.8956]}]]